     2              OBSERVATION DATA    GPS                 RINEX VERSION / TYPE
FIC2RX 9.60 97/08/04                                        PGM / RUN BY / DATE
                                                            COMMENT
Operator input collection int (sec) 30.0000                 COMMENT
Operator input collection int (sec) 30.0000                 COMMENT
Operator input collection int (sec) 30.0000                 COMMENT
Operator input collection int (sec) 30.0000                 COMMENT
Operator input collection int (sec) 30.0000                 COMMENT
Original Marker Name: CALE55449                             COMMENT
Campaign Name: STRC 1988 University                         COMMENT
4-Character Station Name: CALE                              COMMENT
6-Character Antenna Code: TI4100                            COMMENT
Vertical Measurement Point: PAE                             COMMENT
Vertical Offset to Rinex Ref. Point: 0.0000                 COMMENT
Radial Measurement Point: PAE                               COMMENT
Radial Offset to Rinex Ref. Point: 0.0842                   COMMENT
Antenna Height from Field Measurement: 1.2245 m             COMMENT
Original XYZ: 0.0000 0.0000 0.0000                          COMMENT
New XYZ position is based on association with SCEC monument COMMENT
E1C8V2W0+0011. Position of that monument is believed to be  COMMENT
valid to within 1 m horizontally; vertical accuracy         COMMENT
should be no worse than 3-times this value.                 COMMENT
                                                            COMMENT
Revised Rinex header created by UCSD GPS archive for        COMMENT
GSAC on 01-Jun-1999 (1999:152) 23:42:02 GMT                 COMMENT
For assistance contact dagnew@ucsd.edu or hjohnson@ucsd.edu COMMENT
                                                            COMMENT
CALEXICO 1954 RM 5                                          MARKER NAME
ER MASS INST. OF TECHNOLOGY                                 OBSERVER / AGENCY
UN03 TI 4100 GES 1.50                                       REC # / TYPE / VERS
UN03 TI 4100                                                ANT # / TYPE
 -2314378.0000 -4850791.0000  3422677.0000                  APPROX POSITION XYZ
        1.2216        0.0000        0.0000                  ANTENNA: DELTA H/E/N
     1     1     0                                          WAVELENGTH FACT L1/2
     4    L1    L2    P1    P2                              # / TYPES OF OBSERV
    30                                                      INTERVAL
  1988     3     2     4    36   29.000000                  TIME OF FIRST OBS
  1988     3     2    11    47   59.000000                  TIME OF LAST OBS
     7                                                      # OF SATELLITES
           6   384   384   384   384                        PRN / # OF OBS
           8   288   288   288   288                        PRN / # OF OBS
          11   560   560   560   560                        PRN / # OF OBS
           9   628   628   628   628                        PRN / # OF OBS
          13   576   576   576   576                        PRN / # OF OBS
           3   480   480   480   480                        PRN / # OF OBS
                                                            END OF HEADER
 88  3  2  4 36 29.0800000  0  2  6  8
         -.211 8          .362 7  21746935.120 0  21746934.619 0
         -.428 7         -.344 6  20339978.127 0  20339977.397 0
 88  3  2  4 36 59.0800000  0  2  6  8
    -58007.552 8    -45200.133 7  21735897.868 0  21735897.181 0
    -34207.405 7    -26655.107 7  20333467.987 0  20333469.089 0
 88  3  2  4 37 29.0800000  0  2  6  8
   -115885.799 8    -90300.081 7  21724883.073 0  21724882.351 0
    -67732.966 8    -52778.904 7  20327088.920 0  20327089.664 0
 88  3  2  4 37 59.0800000  0  2  6  8
   -173633.531 7   -135298.300 7  21713894.636 0  21713894.336 0
   -100576.757 7    -78371.457 6  20320839.179 0  20320839.323 0
 88  3  2  4 38 29.0800000  0  2  6  8
   -231248.508 8   -180193.087 7  21702930.254 0  21702930.233 0
   -132737.289 8   -103431.606 7  20314718.479 0  20314719.380 0
 88  3  2  4 38 59.0800000  0  2  6  8
   -288727.861 8   -224982.179 7  21691992.436 0  21691992.622 0
   -164212.613 7   -127957.814 6  20308728.421 0  20308729.738 0
 88  3  2  4 39 29.0800000  0  2  6  8
   -346070.258 8   -269664.553 8  21681080.868 0  21681080.425 0
   -195002.474 7   -151949.875 6  20302869.894 0  20302869.293 0
 88  3  2  4 39 59.0800000  0  2  6  8
   -403273.666 7   -314238.613 7  21670195.000 0  21670194.406 0
   -225105.955 7   -175407.115 6  20297141.294 0  20297141.408 0
 88  3  2  4 40 29.0800000  0  2  6  8
   -460336.397 7   -358703.068 7  21659337.042 0  21659336.469 0
   -254522.420 7   -198329.024 7  20291544.396 0  20291544.768 0
 88  3  2  4 40 59.0800000  0  2  6  8
   -517257.425 7   -403057.103 7  21648504.017 0  21648504.797 0
   -283252.008 8   -220715.714 6  20286077.397 0  20286075.923 0
 88  3  2  4 41 29.0800000  0  2  6  8
   -574033.574 7   -447298.251 7  21637701.578 0  21637700.991 0
   -311292.692 7   -242565.576 7  20280740.439 0  20280740.039 0
 88  3  2  4 41 59.0800000  0  2  6  8
   -630662.679 7   -491424.811 7  21626924.968 0  21626924.281 0
   -338643.566 7   -263877.943 6  20275533.868 0  20275535.999 0
 88  3  2  4 42 29.0800000  0  2  6  8
   -687143.288 7   -535435.671 7  21616175.860 0  21616177.047 0
   -365304.437 8   -284652.632 7  20270462.145 0  20270463.562 0
 88  3  2  4 42 59.0800000  0  2  6  8
   -743473.043 8   -579328.987 7  21605457.180 0  21605457.015 0
   -391273.864 7   -304888.540 6  20265521.123 0  20265519.893 0
 88  3  2  4 43 29.0800000  0  2  6  8
   -799650.343 8   -623103.500 7  21594766.753 0  21594768.177 0
   -416551.653 7   -324585.481 6  20260712.347 0  20260708.999 0
 88  3  2  4 43 59.0800000  0  2  6  8
   -855673.788 7   -666758.112 7  21584106.326 0  21584106.205 0
   -441137.936 8   -343743.610 7  20256031.494 0  20256033.069 0
 88  3  2  4 44 29.0800000  0  4  6  8 11  9
   -911541.998 8   -710291.761 7  21573475.022 0  21573474.520 0
   -465032.988 7   -362363.116 7  20251483.448 0  20251485.775 0
          .277 8          .000 1  22359181.933 0          .000 0
         -.441 8          .000 1  23650070.528 0          .000 0
 88  3  2  4 44 59.0800000  0  4  6  8 11  9
   -967251.210 8   -753701.538 7  21562873.743 0  21562873.812 0
   -488234.333 7   -380442.079 6  20247069.430 0  20247070.201 0
    -93002.318 7     84861.407 7  22341514.051 0  22341515.322 0
    -89406.060 7     31041.359 7  23932872.795 0  23932874.441 0
 88  3  2  4 45 29.0800000  0  4  6  8 11  9
  -1022799.437 8   -796985.841 7  21552303.270 0  21552303.126 0
   -510741.277 8   -397979.939 7  20242786.512 0  20242786.851 0
   -185656.128 7     12663.648 7  22323881.309 0  22323884.519 0
   -178863.148 7    -38665.435 7  23915850.895 0  23915850.494 0
 88  3  2  4 45 59.0800000  0  4  6  8 11  9
  -1078185.600 8   -840143.881 7  21541764.592 0  21541763.403 0
   -532554.588 7   -414977.293 6  20238636.842 0  20238637.138 0
   -277960.820 7    -59262.071 7  22306316.392 0  22306318.149 0
   -268371.913 7   -108412.469 7  23898818.807 0  23898818.299 0
 88  3  2  4 46 29.0800000  0  4  6  8 11  9
  -1133407.136 7   -883173.646 7  21531255.536 0  21531254.389 0
   -553673.260 7   -431433.385 7  20234617.093 0  20234618.841 0
   -369913.467 7   -130913.435 7  22288818.418 0  22288819.549 0
   -357931.138 8   -178198.876 7  23881775.157 0  23881776.537 0
 88  3  2  4 46 59.0800000  0  4  6  8 11  9
  -1188461.815 8   -926073.391 7  21520778.989 0  21520779.173 0
   -574096.351 7   -447347.476 6  20230729.087 0  20230730.191 0
   -461511.238 7   -202288.280 7  22271389.442 0  22271391.041 0
   -447539.191 7   -248023.321 7  23864722.420 0  23864724.137 0
 88  3  2  4 47 29.0800000  0  4  6  8 11  9
  -1243348.113 8   -968841.924 7  21510334.008 0  21510332.776 0
   -593823.727 7   -462719.459 6  20226976.183 0  20226975.924 0
   -552751.931 8   -273384.896 7  22254026.175 0  22254028.182 0
   -537195.670 8   -317885.472 7  23847662.987 0  23847662.558 0
 88  3  2  4 47 59.0800000  0  4  6  8 11  9
  -1298064.310 8  -1011477.929 7  21499922.826 0  21499922.065 0
   -612855.981 7   -477549.773 6  20223354.157 0  20223355.855 0
   -643633.568 7   -344201.751 7  22236733.154 0  22236733.326 0
   -626899.590 8   -387784.595 8  23830592.343 0  23830592.858 0
 88  3  2  4 48 29.0800000  0  4  6  8 11  9
  -1352608.200 8  -1053979.643 7  21489542.351 0  21489542.406 0
   -631192.606 7   -491838.028 7  20219865.543 0  20219866.880 0
   -734153.283 8   -414736.554 7  22219506.213 0  22219509.752 0
   -716649.821 8   -457719.859 7  23813513.134 0  23813514.278 0
 88  3  2  4 48 59.0800000  0  4  6  8 11  9
  -1406977.602 8  -1096345.392 8  21479196.490 0  21479196.460 0
   -648833.132 7   -505583.873 7  20216507.279 0  20216508.894 0
   -824308.698 8   -484987.522 7  22202350.393 0  22202353.274 0
   -806444.869 8   -527690.001 6  23796424.539 0  23796427.294 0
 88  3  2  4 49 29.0800000  0  4  6  8 11  9
  -1461170.411 8  -1138573.552 7  21468884.270 0  21468883.138 0
   -665777.596 7   -518787.337 6  20213283.450 0  20213282.701 0
   -914097.380 8   -554952.698 7  22185264.012 0  22185267.121 0
   -896283.810 8   -597694.334 6  23779329.554 0  23779328.853 0
 88  3  2  4 49 59.0800000  0  4  6  8 11  9
  -1515184.048 8  -1180662.099 7  21458606.063 0  21458605.817 0
   -682024.757 7   -531447.466 7  20210191.740 0  20210192.773 0
  -1003515.956 7   -624629.498 7  22168248.061 0  22168249.535 0
   -986164.642 8   -667731.313 6  23762225.963 0  23762225.405 0
 88  3  2  4 50 29.0800000  0  4  6  8 11  9
  -1569017.158 8  -1222609.975 7  21448362.040 0  21448361.552 0
   -697576.214 7   -543565.462 7  20207232.738 0  20207233.724 0
  -1092563.441 8   -694017.117 7  22151303.784 0  22151305.390 0
  -1076087.041 8   -737800.716 6  23745113.035 0  23745118.565 0
 88  3  2  4 50 59.0800000  0  4  6  8 11  9
  -1622666.906 8  -1264414.985 7  21438151.759 0  21438151.772 0
   -712430.629 7   -555140.321 7  20204404.629 0  20204406.928 0
  -1181236.459 7   -763112.950 7  22134430.537 0  22134431.368 0
  -1166048.899 7   -807900.876 6  23727995.113 0  23727997.624 0
 88  3  2  4 51 29.0800000  0  4  6  8 11  9
  -1676130.978 8  -1306075.305 7  21427978.324 0  21427977.363 0
   -726587.609 7   -566171.716 7  20201710.737 0  20201713.347 0
  -1269532.117 8   -831914.744 6  22117627.475 0  22117628.912 0
  -1256049.112 6   -878030.921 6  23710867.818 0  23710867.890 0
 88  3  2  4 51 59.0800000  0  4  6  8 11  9
  -1729407.751 8  -1347589.662 7  21417840.175 0  21417839.701 0
   -740047.394 7   -576659.837 6  20199149.238 0  20199152.484 0
  -1357448.729 7   -900421.172 7  22100897.064 0  22100899.331 0
  -1346086.616 7   -948190.007 6  23693733.283 0  23693733.991 0
 88  3  2  4 52 29.0800000  0  4  6  8 11  9
  -1782496.059 8  -1388957.159 7  21407736.712 0  21407737.011 0
   -752810.792 7   -586605.324 6  20196722.347 0  20196722.286 0
  -1444985.092 7   -968631.316 6  22084238.383 0  22084240.970 0
  -1436161.256 6  -1018378.020 6  23676593.783 0  23676594.813 0
 88  3  2  4 52 59.0800000  0  4  6  8 11  9
  -1835392.422 8  -1430175.092 7  21397671.268 0  21397672.153 0
   -764876.789 7   -596007.373 7  20194427.253 0  20194426.453 0
  -1532137.026 8  -1036541.897 7  22067654.326 0  22067656.662 0
  -1526270.325 6  -1088592.884 6  23659446.856 0  23659451.521 0
 88  3  2  4 53 29.0800000  0  4  6  8 11  9
  -1888095.147 8  -1471242.131 7  21387642.127 0  21387642.955 0
   -776245.802 8   -604866.338 7  20192263.237 0  20192263.232 0
  -1618902.792 7  -1104151.574 7  22051144.516 0  22051146.486 0
  -1616413.062 6  -1158833.942 7  23642290.628 0  23642296.088 0
 88  3  2  4 53 59.0800000  0  4  6  8 11  9
  -1940601.399 8  -1512156.098 7  21377649.646 0  21377651.819 0
   -786917.107 7   -613181.638 7  20190231.624 0  20190233.000 0
  -1705279.612 7  -1171458.164 7  22034707.475 0  22034709.460 0
  -1706587.374 6  -1229099.610 6  23625133.028 0  23625132.741 0
 88  3  2  4 54 29.0800000  0  4  6  8 11  9
  -1992909.091 8  -1552915.319 7  21367696.315 0  21367696.484 0
   -796890.756 8   -620953.303 6  20188334.636 0  20188334.531 0
  -1791264.872 7  -1238459.642 7  22018344.384 0  22018346.437 0
  -1796791.968 8  -1299388.898 7  23607970.439 0  23607968.185 0
 88  3  2  4 54 59.0800000  0  4  6  8 11  9
  -2045017.505 7  -1593519.268 7  21357780.774 0  21357781.359 0
   -806168.553 7   -628182.757 7  20186567.876 0  20186567.692 0
  -1876857.625 7  -1305155.284 6  22002056.309 0  22002058.272 0
  -1887027.178 7  -1369702.051 6  23590796.876 0  23590798.714 0
 88  3  2  4 55 29.0800000  0  4  6  8 11  9
  -2096924.118 7  -1633965.976 7  21347904.169 0  21347903.952 0
   -814750.487 7   -634869.959 6  20184935.411 0  20184934.308 0
  -1962055.345 7  -1371543.100 7  21985844.523 0  21985846.730 0
  -1977290.934 7  -1440037.429 7  23573620.372 0  23573622.983 0
 88  3  2  4 55 59.0800000  0  4  6  8 11  9
  -2148625.765 8  -1674252.965 7  21338065.368 0  21338065.582 0
   -822635.975 8   -641014.481 6  20183435.013 0  20183436.009 0
  -2046854.682 7  -1437620.457 7  21969707.814 0  21969710.010 0
  -2067581.306 8  -1510393.560 7  23556440.734 0  23556439.890 0
 88  3  2  4 56 29.0800000  0  4  6  8 11  9
  -2200120.411 8  -1714378.644 7  21328266.247 0  21328265.187 0
   -829825.098 7   -646616.373 7  20182066.935 0  20182067.513 0
  -2131253.588 7  -1503385.826 6  21953645.806 0  21953649.115 0
  -2157896.660 8  -1580769.105 7  23539254.121 0  23539253.155 0
 88  3  2  4 56 59.0800000  0  4  6  8 11  9
  -2251406.159 7  -1754341.557 7  21318506.806 0  21318506.489 0
   -836318.282 7   -651675.974 7  20180831.321 0  20180831.982 0
  -2215250.515 7  -1568837.960 7  21937661.612 0  21937664.867 0
  -2248236.386 7  -1651163.649 7  23522060.768 0  23522062.055 0
 88  3  2  4 57 29.0800000  0  4  6  8 11  9
  -2302481.705 8  -1794140.670 7  21308787.629 0  21308788.258 0
   -842117.232 8   -656194.637 6  20179726.694 0  20179727.834 0
  -2298843.991 8  -1633975.709 7  21921754.944 0  21921757.252 0
  -2338599.736 8  -1721576.622 7  23504866.757 0  23504868.166 0
 88  3  2  4 57 59.0800000  0  4  6  8 11  9
  -2353344.237 7  -1833773.799 7  21299108.964 0  21299109.835 0
   -847221.470 7   -660171.953 7  20178756.820 0  20178757.123 0
  -2382030.925 7  -1698796.668 6  21905926.252 0  21905927.589 0
  -2428984.726 8  -1792006.451 6  23487666.693 0  23487666.814 0
 88  3  2  4 58 29.0800000  0  4  6  8 11  9
  -2403991.224 8  -1873238.973 8  21289470.807 0  21289470.419 0
   -851631.000 7   -663607.932 6  20177917.231 0  20177918.017 0
  -2464808.610 7  -1763298.740 7  21890173.845 0  21890175.254 0
  -2519389.698 8  -1862451.822 6  23470462.372 0  23470462.557 0
 88  3  2  4 58 59.0800000  0  4  6  8 11  9
  -2454419.087 8  -1912533.415 7  21279875.334 0  21279875.132 0
   -855344.820 7   -666501.806 7  20177209.977 0  20177209.922 0
  -2547173.815 7  -1827479.407 7  21874499.941 0  21874502.627 0
  -2609811.641 7  -1932910.486 6  23453255.411 0  23453255.683 0
 88  3  2  4 59 29.0800000  0  4  6  8 11  9
  -2504626.126 8  -1951655.781 7  21270321.115 0  21270320.255 0
   -858364.233 7   -668854.581 7  20176635.713 0  20176635.722 0
  -2629124.628 7  -1891337.161 7  21858904.706 0  21858906.030 0
  -2700249.557 8  -2003381.556 7  23436046.690 0  23436047.190 0
 88  3  2  4 59 59.0800000  0  4  6  8 11  9
  -2554612.663 8  -1990606.317 7  21260808.536 0  21260809.077 0
   -860691.813 7   -670668.279 7  20176191.541 0  20176194.383 0
  -2710661.543 8  -1954872.386 7  21843390.015 0  21843390.683 0
  -2790704.996 8  -2073866.292 8  23418832.302 0  23418834.305 0
 88  3  2  5  0 29.0800000  0  4  6  8 11  9
  -2604375.839 8  -2029382.803 8  21251339.370 0  21251338.539 0
   -862327.874 7   -671943.132 7  20175881.205 0  20175883.032 0
  -2791781.863 8  -2018083.010 6  21827951.415 0  21827953.136 0
  -2881175.479 7  -2144362.732 7  23401615.675 0  23401617.600 0
 88  3  2  5  0 59.0800000  0  4  6  8 11  9
  -2653910.968 8  -2067981.593 7  21241913.275 0  21241913.760 0
   -863270.613 8   -672677.717 6  20175701.550 0  20175702.235 0
  -2872480.925 8  -2080965.382 6  21812595.773 0  21812597.015 0
  -2971657.053 8  -2214867.798 7  23384399.713 0  23384398.755 0
 88  3  2  5  1 29.0800000  0  4  6  8 11  9
  -2703216.912 8  -2106401.805 8  21232529.951 0  21232530.336 0
   -863521.438 7   -672873.139 6  20175651.936 0  20175654.842 0
  -2952757.659 8  -2143518.667 7  21797319.959 0  21797320.030 0
  -3062149.574 8  -2285381.404 7  23367179.624 0  23367178.872 0
 88  3  2  5  1 59.0800000  0  4  6  8 11  9
  -2752293.265 8  -2144643.108 8  21223191.700 0  21223191.727 0
   -863083.261 6   -672531.705 7  20175736.144 0  20175738.021 0
  -3032611.883 8  -2205742.725 7  21782124.291 0  21782126.716 0
  -3152653.168 7  -2355903.626 7  23349956.630 0  23349957.567 0
 88  3  2  5  2 29.0800000  0  4  6  8 11  9
  -2801135.651 8  -2182702.109 7  21213896.349 0  21213895.960 0
   -861954.201 6   -671651.919 7  20175951.991 0  20175953.316 0
  -3112039.181 7  -2267634.105 7  21767010.159 0  21767011.233 0
  -3243164.455 8  -2426431.889 7  23332731.804 0  23332732.848 0
 88  3  2  5  2 59.0800000  0  4  6  8 11  9
  -2849741.693 8  -2220576.942 7  21204648.202 0  21204647.442 0
   -860134.987 7   -670234.347 6  20176298.240 0  20176298.302 0
  -3191037.739 8  -2329191.417 6  21751977.233 0  21751979.118 0
  -3333681.409 8  -2496964.541 7  23315507.149 0  23315507.736 0
 88  3  2  5  3 29.0800000  0  4  6  8 11  9
  -2898109.756 8  -2258266.339 7  21195443.872 0  21195443.426 0
   -857627.003 7   -668280.057 7  20176776.212 0  20176775.599 0
  -3269605.543 8  -2390413.061 7  21737025.196 0  21737027.157 0
  -3424203.453 7  -2567501.150 7  23298282.488 0  23298282.409 0
 88  3  2  5  3 59.0800000  0  4  6  8 11  9
  -2946238.444 7  -2295769.216 8  21186284.315 0  21186284.541 0
   -854431.637 7   -665790.152 6  20177384.932 0  20177384.369 0
  -3347741.662 8  -2451298.327 6  21722156.883 0  21722157.336 0
  -3514729.786 8  -2638041.106 7  23281053.784 0  23281054.943 0
 88  3  2  5  4 29.0800000  0  4  6  8 11  9
  -2994125.178 8  -2333083.557 7  21177172.235 0  21177173.106 0
   -850549.653 7   -662765.235 7  20178121.365 0  20178123.191 0
  -3425443.952 7  -2511845.556 7  21707370.650 0  21707370.593 0
  -3605258.596 8  -2708583.011 7  23263827.005 0  23263829.724 0
 88  3  2  5  4 59.0800000  0  4  6  8 11  9
  -3041766.855 7  -2370206.947 7  21168105.544 0  21168106.115 0
   -845981.171 7   -659205.356 7  20178992.436 0  20178992.496 0
  -3502709.334 7  -2572052.329 7  21692666.377 0  21692668.416 0
  -3695787.150 7  -2779124.711 7  23246601.342 0  23246602.808 0
 88  3  2  5  5 29.0800000  0  4  6  8 11  9
  -3089161.538 7  -2407137.870 7  21159086.717 0  21159087.946 0
   -840727.417 7   -655111.503 7  20179991.704 0  20179992.321 0
  -3579536.352 8  -2631917.524 7  21678047.999 0  21678050.149 0
  -3786314.653 7  -2849665.589 7  23229373.875 0  23229375.192 0
 88  3  2  5  5 59.0800000  0  4  6  8 11  9
  -3136306.344 9  -2443874.082 7  21150116.242 0  21150115.424 0
   -834788.131 7   -650483.491 7  20181122.555 0  20181123.151 0
  -3655922.496 8  -2691439.166 7  21663512.355 0  21663512.606 0
  -3876838.463 7  -2920203.576 6  23212147.833 0  23212147.862 0
 88  3  2  5  6 29.0800000  0  4  6  8 11  9
  -3183199.325 8  -2480414.061 7  21141193.201 0  21141193.157 0
   -828165.087 7   -645322.665 7  20182381.577 0  20182382.366 0
  -3731866.181 7  -2750616.068 7  21649059.978 0  21649062.833 0
  -3967357.598 8  -2990737.969 7  23194922.349 0  23194923.336 0
 88  3  2  5  6 59.0800000  0  4  6  8 11  9
  -3229839.295 8  -2516756.893 7  21132316.908 0  21132316.964 0
   -820860.140 7   -639630.464 6  20183772.283 0  20183771.942 0
  -3807366.369 7  -2809447.367 7  21634692.132 0  21634694.636 0
  -4057871.400 7  -3061268.164 7  23177699.040 0  23177699.999 0
 88  3  2  5  7 29.0800000  0  4  6  8 11  9
  -3276223.271 8  -2552900.234 7  21123491.156 0  21123490.968 0
   -812873.585 8   -633407.162 6  20185292.029 0  20185292.243 0
  -3882420.411 8  -2867931.031 7  21620411.282 0  21620412.252 0
  -4148377.477 8  -3131792.363 7  23160475.773 0  23160476.718 0
 88  3  2  5  7 59.0800000  0  4  6  8 11  9
  -3322348.465 7  -2588841.926 7  21114713.397 0  21114712.450 0
   -804206.384 7   -626653.504 7  20186940.101 0  20186941.637 0
  -3957025.696 7  -2926065.006 6  21606214.152 0  21606214.371 0
  -4238873.845 7  -3202308.965 7  23143255.169 0  23143255.040 0
 88  3  2  5  8 29.0800000  0  4  6  8 11  9
  -3368211.674 8  -2624579.489 7  21105985.919 0  21105984.615 0
   -794858.575 7   -619369.497 6  20188720.410 0  20188721.521 0
  -4031179.894 8  -2983847.469 7  21592103.288 0  21592104.702 0
  -4329357.919 8  -3272816.043 6  23126036.675 0  23126036.567 0
 88  3  2  5  8 59.0800000  0  4  6  8 11  9
  -3413812.847 7  -2660112.863 7  21097307.938 0  21097308.236 0
   -784833.278 7   -611557.544 7  20190629.245 0  20190628.224 0
  -4104883.319 8  -3041278.681 7  21578078.151 0  21578078.562 0
  -4419830.115 8  -3343313.840 7  23108820.834 0  23108820.527 0
 88  3  2  5  9 29.0800000  0  4  6  8 11  9
  -3459148.968 8  -2695439.719 7  21088680.811 0  21088680.995 0
   -774131.004 7   -603218.102 7  20192664.595 0  20192665.180 0
  -4178133.258 8  -3098356.534 6  21564138.068 0  21564140.229 0
  -4510288.155 8  -3413800.602 7  23091607.249 0  23091607.220 0
 88  3  2  5  9 59.0800000  0  4  6  8 11  9
  -3504217.254 7  -2730557.863 7  21080104.682 0  21080105.238 0
   -762752.480 7   -594351.723 7  20194829.553 0  20194830.250 0
  -4250927.277 7  -3155079.132 7  21550285.782 0  21550287.492 0
  -4600729.725 7  -3484274.530 7  23074396.653 0  23074396.946 0
 88  3  2  5 10 29.0800000  0  4  6  8 11  9
  -3549015.051 7  -2765465.229 7  21071580.452 0  21071580.422 0
   -750698.460 8   -584958.979 7  20197123.312 0  20197124.545 0
  -4323263.592 8  -3211445.061 7  21536521.147 0  21536523.508 0
  -4691152.864 7  -3554734.100 7  23057188.125 0  23057190.729 0
 88  3  2  5 10 59.0800000  0  4  6  8 11  9
  -3593540.629 7  -2800160.464 7  21063107.107 0  21063107.549 0
   -737970.602 7   -575041.167 6  20199545.790 0  20199545.216 0
  -4395141.003 8  -3267453.430 7  21522843.072 0  21522845.594 0
  -4781556.391 8  -3625178.364 7  23039985.156 0  23039984.148 0
 88  3  2  5 11 29.0800000  0  4  6  8 11  9
  -3637791.383 8  -2834641.566 7  21054686.476 0  21054685.530 0
   -724570.255 8   -564599.312 7  20202095.702 0  20202095.279 0
  -4466557.229 8  -3323102.423 7  21509252.555 0  21509254.461 0
  -4871938.324 8  -3695605.814 7  23022787.424 0  23022785.958 0
 88  3  2  5 11 59.0800000  0  4  6  8 11  9
  -3681765.342 7  -2868906.986 7  21046318.317 0  21046317.829 0
   -710498.968 7   -553634.667 6  20204772.418 0  20204773.805 0
  -4537510.752 7  -3378390.858 6  21495751.009 0  21495751.904 0
  -4962297.357 7  -3766015.424 7  23005592.197 0  23005591.510 0
 88  3  2  5 12 29.0800000  0  4  6  8 11  9
  -3725459.877 7  -2902954.650 7  21038003.417 0  21038002.958 0
   -695757.848 7   -542148.070 7  20207578.228 0  20207579.446 0
  -4607999.749 8  -3433317.324 7  21482337.099 0  21482337.858 0
  -5052631.218 7  -3836405.429 7  22988401.484 0  22988402.714 0
 88  3  2  5 12 59.0800000  0  4  6  8 11  9
  -3768871.162 8  -2936781.633 7  21029743.107 0  21029742.375 0
   -680346.899 7   -530139.540 7  20210510.406 0  20210511.797 0
  -4678021.011 7  -3487879.316 6  21469013.302 0  21469014.075 0
  -5142936.773 7  -3906773.375 7  22971216.580 0  22971218.219 0
 88  3  2  5 13 29.0800000  0  4  6  8 11  9
  -3811997.858 8  -2970386.858 7  21021535.254 0  21021536.254 0
   -664268.366 8   -517610.802 6  20213571.081 0  20213571.803 0
  -4747573.408 7  -3542075.972 6  21455777.904 0  21455778.805 0
  -5233213.053 7  -3977118.506 7  22954038.732 0  22954039.146 0
 88  3  2  5 13 59.0800000  0  4  6  8 11  9
  -3854839.437 7  -3003769.908 7  21013382.620 0  21013384.106 0
   -647525.425 7   -504564.341 7  20216756.950 0  20216756.735 0
  -4816657.173 8  -3595907.468 7  21442631.934 0  21442632.162 0
  -5323460.233 8  -4047440.956 7  22936866.513 0  22936864.710 0
 88  3  2  5 14 29.0800000  0  4  6  8 11  9
  -3897392.704 8  -3036928.282 7  21005284.889 0  21005286.620 0
   -630118.070 7   -491000.183 7  20220067.893 0  20220070.260 0
  -4885270.083 7  -3649372.056 6  21429574.756 0  21429575.472 0
  -5413675.409 7  -4117738.475 7  22919698.058 0  22919697.994 0
 88  3  2  5 14 59.0800000  0  4  6  8 11  9
  -3939654.413 8  -3069859.476 7  20997244.254 0  20997243.794 0
   -612047.236 7   -476918.992 6  20223506.850 0  20223507.303 0
  -4953409.267 7  -3702467.491 6  21416608.045 0  21416608.366 0
  -5503855.932 8  -4188009.000 6  22902536.057 0  22902538.003 0
 88  3  2  5 15 29.0800000  0  4  6  8 11  9
  -3981622.626 8  -3102561.981 7  20989256.676 0  20989257.777 0
   -593314.973 7   -462322.401 7  20227073.107 0  20227072.838 0
  -5021073.790 7  -3755193.082 7  21403731.349 0  21403733.427 0
  -5594000.335 8  -4258251.387 6  22885382.955 0  22885383.886 0
 88  3  2  5 15 59.0800000  0  4  6  8 11  9
  -4023294.495 7  -3135033.576 7  20981327.123 0  20981327.565 0
   -573922.234 7   -447211.178 6  20230763.991 0  20230764.229 0
  -5088261.642 7  -3807547.237 6  21390947.416 0  21390947.584 0
  -5684106.278 8  -4328463.789 7  22868237.259 0  22868236.837 0
 88  3  2  5 16 29.0800000  0  4  6  8 11  9
  -4064668.195 8  -3167272.807 7  20973454.548 0  20973454.447 0
   -553871.108 8   -431586.910 6  20234578.570 0  20234579.431 0
  -5154971.180 8  -3859528.672 7  21378252.904 0  21378253.609 0
  -5774172.367 8  -4398645.153 7  22851097.988 0  22851097.601 0
 88  3  2  5 16 59.0800000  0  4  6  8 11  9
  -4105741.059 8  -3199277.629 7  20965638.639 0  20965638.622 0
   -533163.181 7   -415450.850 7  20238518.867 0  20238520.164 0
  -5221200.852 7  -3911136.197 7  21365649.085 0  21365650.233 0
  -5864196.544 8  -4468793.846 7  22833966.329 0  22833967.023 0
 88  3  2  5 17 29.0800000  0  4  6  8 11  9
  -4146510.722 8  -3231046.210 7  20957879.536 0  20957879.577 0
   -511799.525 7   -398803.858 7  20242584.644 0  20242585.741 0
  -5286949.268 7  -3962368.703 7  21353137.367 0  21353139.424 0
  -5954176.758 8  -4538908.289 6  22816843.570 0  22816845.166 0
 88  3  2  5 17 59.0800000  0  4  6  8 11  9
  -4186975.210 8  -3262576.973 7  20950179.931 0  20950180.430 0
   -489782.192 7   -381647.477 7  20246774.361 0  20246774.917 0
  -5352214.757 7  -4013224.897 7  21340717.545 0  21340719.527 0
  -6044111.588 8  -4608987.354 7  22799730.720 0  22799730.849 0
 88  3  2  5 18 29.0800000  0  4  6  8 11  9
  -4227132.300 7  -3293868.212 7  20942538.350 0  20942538.978 0
   -467113.111 7   -363983.252 6  20251085.738 0  20251088.570 0
  -5416995.963 7  -4063703.759 6  21328389.908 0  21328391.685 0
  -6133998.898 8  -4679029.404 7  22782625.548 0  22782625.097 0
 88  3  2  5 18 59.0800000  0  4  6  8 11  9
  -4266978.911 8  -3324917.526 7  20934955.809 0  20934955.850 0
   -443793.285 7   -345811.966 6  20255524.892 0  20255526.983 0
  -5481290.927 7  -4113803.708 6  21316155.126 0  21316155.888 0
  -6223836.410 8  -4749032.636 7  22765529.197 0  22765529.283 0
 88  3  2  5 19 29.0800000  0  4  6  8 11  9
  -4306512.451 7  -3355722.867 7  20927432.679 0  20927432.248 0
   -419824.101 7   -327134.672 7  20260087.202 0  20260087.165 0
  -5545098.183 8  -4163523.645 7  21304013.049 0  21304014.416 0
  -6313621.691 7  -4818995.161 7  22748442.884 0  22748444.022 0
 88  3  2  5 19 59.0800000  0  4  6  8 11  9
  -4345732.438 8  -3386283.893 7  20919970.120 0  20919968.745 0
   -395209.282 8   -307954.286 7  20264771.770 0  20264772.072 0
  -5608417.437 8  -4212863.300 6  21291965.596 0  21291964.681 0
  -6403354.643 8  -4888916.918 7  22731368.004 0  22731368.025 0
 88  3  2  5 20 29.0800000  0  4  6  8 11  9
  -4384635.502 8  -3416597.973 7  20912566.987 0  20912566.885 0
   -369949.730 7   -288271.514 7  20269575.558 0  20269578.304 0
  -5671246.732 7  -4261821.162 6  21280008.988 0  21280009.149 0
  -6493032.294 8  -4958795.572 7  22714303.483 0  22714303.262 0
 88  3  2  5 20 59.0800000  0  4  6  8 11  9
  -4423218.895 7  -3446662.950 8  20905224.397 0  20905225.210 0
   -344046.246 7   -268086.999 6  20274505.414 0  20274507.771 0
  -5733584.254 7  -4310395.834 6  21268144.593 0  21268148.052 0
  -6582652.134 8  -5028629.179 7  22697248.165 0  22697248.601 0
 88  3  2  5 21 29.0800000  0  4  6  8 11  9
  -4461480.168 8  -3476476.929 8  20897943.207 0  20897944.064 0
   -317501.156 7   -247402.516 6  20279558.254 0  20279559.430 0
  -5795428.069 7  -4358585.815 7  21256375.936 0  21256379.549 0
  -6672212.174 8  -5098416.218 7  22680205.194 0  22680206.589 0
 88  3  2  5 21 59.0800000  0  4  6  8 11  9
  -4499417.298 7  -3506038.312 7  20890724.204 0  20890724.503 0
   -290316.723 8   -226219.803 7  20284731.588 0  20284730.320 0
  -5856777.585 7  -4406390.619 7  21244702.233 0  21244704.539 0
  -6761710.798 8  -5168155.358 7  22663175.037 0  22663175.295 0
 88  3  2  5 22 29.0800000  0  4  6  8 11  9
  -4537028.196 8  -3535345.517 7  20883567.834 0  20883567.160 0
   -262495.049 7   -204540.575 7  20290025.960 0  20290026.102 0
  -5917631.460 7  -4453809.213 6  21233123.831 0  21233123.502 0
  -6851146.066 8  -5237845.147 7  22646155.411 0  22646156.263 0
 88  3  2  5 22 59.0800000  0  4  6  8 11  9
  -4574309.952 8  -3564396.234 7  20876473.494 0  20876471.832 0
   -234037.587 7   -182365.931 7  20295439.949 0  20295442.152 0
  -5977987.886 8  -4500840.169 7  21221638.629 0  21221638.124 0
  -6940515.614 8  -5307483.719 7  22629149.388 0  22629149.852 0
 88  3  2  5 23 29.0800000  0  4  6  8 11  9
  -4611259.353 8  -3593187.995 7  20869442.157 0  20869441.754 0
   -204945.209 7   -159696.555 7  20300976.254 0  20300976.574 0
  -6037844.735 8  -4547481.843 6  21210246.698 0  21210247.277 0
  -7029816.323 7  -5377068.646 6  22612157.114 0  22612157.386 0
 88  3  2  5 23 59.0800000  0  4  6  8 11  9
  -4647874.419 8  -3621719.214 7  20862473.665 0  20862473.463 0
   -175219.977 7   -136534.025 7  20306632.942 0  20306633.161 0
  -6097201.097 7  -4593733.557 7  21198950.133 0  21198952.928 0
  -7119046.549 8  -5446598.667 7  22595175.323 0  22595176.382 0
 88  3  2  5 24 29.0800000  0  4  6  8 11  9
  -4684154.126 7  -3649989.099 7  20855569.995 0  20855570.795 0
   -144865.563 7   -112881.228 7  20312410.073 0  20312409.471 0
  -6156057.003 8  -4639595.296 7  21187751.269 0  21187754.714 0
  -7208205.359 7  -5516073.027 7  22578208.735 0  22578209.937 0
 88  3  2  5 24 59.0800000  0  4  6  8 11  9
  -4720096.196 7  -3677995.897 7  20848729.957 0  20848730.857 0
   -113883.703 7    -88739.517 7  20318305.621 0  20318305.473 0
  -6214411.184 7  -4685066.048 6  21176648.033 0  21176648.448 0
  -7297291.087 7  -5585490.426 7  22561256.248 0  22561256.999 0
 88  3  2  5 25 29.0800000  0  4  6  8 11  9
  -4755697.898 7  -3705737.482 7  20841955.957 0  20841956.027 0
    -82276.206 7    -64110.284 7  20324320.492 0  20324320.198 0
  -6272261.980 8  -4730144.572 7  21165639.732 0  21165639.155 0
  -7386301.033 8  -5654848.796 7  22544318.715 0  22544318.708 0
 88  3  2  5 25 59.0800000  0  4  6  8 11  9
  -4790955.807 7  -3733211.171 7  20835245.503 0  20835245.444 0
    -50043.888 7    -38994.172 7  20330453.391 0  20330454.659 0
  -6329606.887 7  -4774828.886 6  21154726.088 0  21154727.365 0
  -7475231.661 8  -5724145.382 7  22527396.865 0  22527395.784 0
 88  3  2  5 26 29.0800000  0  4  6  8 11  9
  -4825868.246 8  -3760415.668 7  20828602.045 0  20828602.459 0
    -17189.804 7    -13393.599 6  20336704.135 0  20336706.309 0
  -6386445.787 8  -4819118.909 7  21143908.059 0  21143910.363 0
  -7564082.102 8  -5793379.461 7  22510488.737 0  22510488.579 0
 88  3  2  5 26 59.0800000  0  4  6  8 11  9
  -4860432.508 7  -3787348.851 7  20822025.483 0  20822025.954 0
     16284.495 7     12690.269 7  20343075.860 0  20343075.791 0
  -6442776.942 8  -4863013.316 7  21133190.438 0  21133191.912 0
  -7652849.605 8  -5862548.912 7  22493596.742 0  22493596.191 0
 88  3  2  5 27 29.0800000  0  4  6  8 11  9
  -4894646.211 8  -3814008.865 7  20815514.543 0  20815514.928 0
     50376.789 7     39255.709 7  20349562.639 0  20349562.745 0
  -6498599.138 8  -4906511.114 7  21122568.535 0  21122568.979 0
  -7741531.862 8  -5931651.938 6  22476720.746 0  22476720.760 0
 88  3  2  5 27 59.0800000  0  4  6  8 11  9
  -4928507.573 7  -3840394.354 7  20809070.726 0  20809071.154 0
     85084.801 8     66300.901 7  20356166.724 0  20356167.978 0
  -6553911.577 7  -4949611.684 7  21112041.537 0  21112044.041 0
  -7830127.204 8  -6000687.263 7  22459861.455 0  22459861.319 0
 88  3  2  5 28 29.0800000  0  4  6  8 11  9
  -4962014.734 7  -3866503.821 7  20802694.064 0  20802695.808 0
    120405.411 7     93823.476 7  20362889.146 0  20362890.164 0
  -6608713.885 8  -4992314.772 6  21101613.058 0  21101615.355 0
  -7918634.186 8  -6069653.726 7  22443019.943 0  22443019.428 0
 88  3  2  5 28 59.0800000  0  4  6  8 11  9
  -4995164.001 8  -3892334.396 8  20796386.214 0  20796387.543 0
    156337.781 7    121822.728 7  20369726.241 0  20369726.462 0
  -6663003.467 7  -5034618.315 6  21091282.276 0  21091285.344 0
  -8007049.126 8  -6138548.475 7  22426194.373 0  22426194.229 0
 88  3  2  5 29 29.0800000  0  4  6  8 11  9
  -5027953.255 7  -3917884.444 7  20790146.977 0  20790146.960 0
    192879.361 7    150296.680 7  20376679.349 0  20376681.816 0
  -6716779.339 7  -5076521.560 7  21081049.321 0  21081050.354 0
  -8095369.934 8  -6207369.847 7  22409386.702 0  22409387.146 0
 88  3  2  5 29 59.0800000  0  4  6  8 11  9
  -5060381.097 8  -3943152.884 7  20783976.824 0  20783975.462 0
    230027.049 8    179242.931 7  20383748.702 0  20383750.232 0
  -6770041.589 7  -5118024.595 6  21070913.436 0  21070915.307 0
  -8183595.242 8  -6276116.837 7  22392599.509 0  22392597.398 0
 88  3  2  5 30 29.0800000  0  4  6  8 11  9
  -5092446.183 8  -3968138.675 7  20777875.327 0  20777874.395 0
    267777.530 8    208658.898 6  20390933.368 0  20390933.005 0
  -6822790.375 8  -5159127.529 6  21060875.633 0  21060876.911 0
  -8271724.080 8  -6344788.651 7  22375828.963 0  22375828.799 0
 88  3  2  5 30 59.0800000  0  4  6  8 11  9
  -5124144.599 8  -3992838.758 7  20771842.629 0  20771843.156 0
    306130.382 7    238544.264 6  20398231.960 0  20398231.719 0
  -6875022.827 8  -5199828.129 7  21050936.776 0  21050938.142 0
  -8359752.277 8  -6413382.027 7  22359077.078 0  22359077.171 0
 88  3  2  5 31 29.0800000  0  4  6  8 11  9
  -5155472.981 7  -4017250.491 7  20765880.231 0  20765881.002 0
    345084.035 7    268897.745 7  20405643.259 0  20405644.763 0
  -6926737.302 7  -5240125.101 7  21041095.124 0  21041097.381 0
  -8447676.840 7  -6481894.646 7  22342345.160 0  22342344.959 0
 88  3  2  5 31 59.0800000  0  4  6  8 11  9
  -5186430.940 7  -4041373.565 6  20759988.735 0  20759991.681 0
    384634.159 7    299716.023 7  20413170.455 0  20413170.582 0
  -6977934.320 7  -5280018.865 7  21031352.700 0  21031354.935 0
  -8535497.198 8  -6550326.094 7  22325634.477 0  22325633.634 0
 88  3  2  5 32 29.0800000  0  4  6  8 11  9
  -5217014.820 7  -4065205.154 7  20754170.088 0  20754170.845 0
    424779.614 7    330998.211 7  20420809.095 0  20420810.088 0
  -7028611.570 8  -5319507.606 6  21021709.477 0  21021709.817 0
  -8623209.792 8  -6618673.539 7  22308942.790 0  22308942.383 0
 88  3  2  5 32 59.0800000  0  4  6  8 11  9
  -5247223.554 8  -4088744.423 7  20748420.654 0  20748419.923 0
    465517.646 7    362742.134 7  20428560.598 0  20428562.357 0
  -7078769.739 7  -5358591.875 6  21012164.719 0  21012166.297 0
  -8710813.649 8  -6686936.275 7  22292272.646 0  22292272.810 0
 88  3  2  5 33 29.0800000  0  4  6  8 11  9
  -5277054.247 7  -4111989.126 7  20742745.514 0  20742744.067 0
    506846.028 7    394946.073 6  20436426.544 0  20436426.592 0
  -7128407.165 7  -5397270.367 6  21002717.228 0  21002719.296 0
  -8798305.664 7  -6755111.840 7  22275622.956 0  22275623.400 0
 88  3  2  5 33 59.0800000  0  4  6  8 11  9
  -5306504.472 7  -4134937.349 6  20737140.960 0  20737140.015 0
    548762.177 7    427608.030 7  20444402.086 0  20444402.510 0
  -7177522.402 7  -5435541.976 7  20993371.930 0  20993373.761 0
  -8885683.278 7  -6823198.293 7  22258994.337 0  22258995.689 0
 88  3  2  5 34 29.0800000  0  4  6  8 11  9
  -5335571.934 8  -4157587.325 7  20731608.740 0  20731609.854 0
    591263.550 7    460725.968 7  20452490.324 0  20452490.054 0
  -7226114.896 8  -5473406.256 7  20984126.252 0  20984127.386 0
  -8972944.634 7  -6891194.118 7  22242389.607 0  22242390.558 0
 88  3  2  5 34 59.0800000  0  4  6  8 11  9
  -5364254.044 7  -4179937.031 7  20726151.042 0  20726151.098 0
    634348.464 7    494298.616 7  20460689.028 0  20460688.845 0
  -7274183.489 7  -5510862.268 6  20974977.459 0  20974980.954 0
  -9060086.936 8  -6959097.174 7  22225806.992 0  22225808.193 0
 88  3  2  5 35 29.0800000  0  4  6  8 11  9
  -5392548.597 7  -4201984.724 7  20720766.993 0  20720766.920 0
    678014.453 7    528324.056 7  20468998.001 0  20468999.262 0
  -7321727.598 7  -5547909.611 6  20965930.307 0  20965933.305 0
  -9147108.020 7  -7026905.782 7  22209247.300 0  22209247.864 0
 88  3  2  5 35 59.0800000  0  4  6  8 11  9
  -5420454.161 8  -4223729.328 7  20715456.937 0  20715456.922 0
    722257.987 7    562799.533 7  20477417.382 0  20477417.538 0
  -7368747.516 7  -5584548.492 6  20956982.618 0  20956985.323 0
  -9234005.663 7  -7094618.218 7  22192711.146 0  22192712.806 0
 88  3  2  5 36 29.0800000  0  4  6  8 11  9
  -5447967.740 7  -4245168.476 7  20710221.590 0  20710221.388 0
    767076.943 7    597723.411 7  20485947.391 0  20485946.249 0
  -7415241.493 7  -5620777.546 7  20948136.232 0  20948137.956 0
  -9320777.338 7  -7162232.486 7  22176199.891 0  22176200.070 0
 88  3  2  5 36 59.0800000  0  4  6  8 11  9
  -5475087.902 8  -4266301.075 7  20705061.094 0  20705061.350 0
    812468.255 7    633093.268 7  20494584.262 0  20494585.097 0
  -7461209.507 7  -5656596.749 6  20939390.002 0  20939391.000 0
  -9407421.462 7  -7229747.385 7  22159712.074 0  22159712.095 0
 88  3  2  5 37 29.0800000  0  4  6  8 11  9
  -5501811.342 7  -4287124.529 7  20699974.219 0  20699974.890 0
    858430.208 7    668907.774 7  20503329.989 0  20503329.727 0
  -7506649.732 7  -5692004.699 7  20930742.435 0  20930742.613 0
  -9493934.451 8  -7297160.091 7  22143248.804 0  22143250.092 0
 88  3  2  5 37 59.0800000  0  4  6  8 11  9
  -5528136.308 8  -4307637.505 6  20694965.472 0  20694965.813 0
    904959.810 8    705164.601 7  20512184.585 0  20512184.630 0
  -7551562.012 7  -5727001.265 7  20922195.135 0  20922195.593 0
  -9580314.648 8  -7364469.328 7  22126811.935 0  22126812.128 0
 88  3  2  5 38 29.0800000  0  4  6  8 11  9
  -5554060.686 8  -4327838.316 6  20690032.578 0  20690031.947 0
    952054.478 7    741861.761 7  20521145.734 0  20521146.816 0
  -7595945.922 7  -5761586.127 6  20913749.592 0  20913751.355 0
  -9666559.544 8  -7431673.119 7  22110399.929 0  22110399.886 0
 88  3  2  5 38 59.0800000  0  4  6  8 11  9
  -5579582.069 8  -4347725.126 7  20685174.864 0  20685177.409 0
    999711.681 7    778997.240 7  20530215.500 0  20530215.599 0
  -7639800.654 8  -5795758.605 6  20905405.936 0  20905405.608 0
  -9752666.433 8  -7498769.379 7  22094014.286 0  22094013.864 0
 88  3  2  5 39 29.0800000  0  4  6  8 11  9
  -5604698.840 7  -4367296.645 7  20680394.577 0  20680397.195 0
   1047928.441 7    816568.748 7  20539390.500 0  20539390.402 0
  -7683125.948 7  -5829518.552 7  20897159.857 0  20897161.316 0
  -9838633.845 8  -7565756.959 7  22077654.994 0  22077654.938 0
 88  3  2  5 39 59.0800000  0  4  6  8 11  9
  -5629407.543 8  -4386550.164 7  20675694.594 0  20675694.278 0
   1096703.005 7    854574.911 7  20548671.263 0  20548671.841 0
  -7725919.821 7  -5862864.426 7  20889014.040 0  20889017.224 0
  -9924457.547 8  -7632632.563 7  22061323.770 0  22061323.513 0
 88  3  2  5 40 29.0800000  0  4  6  8 11  9
  -5653706.280 7  -4405484.242 7  20671070.221 0  20671070.949 0
   1146032.164 7    893013.212 7  20558058.214 0  20558059.321 0
  -7768182.627 8  -5895796.474 6  20880972.821 0  20880974.063 0
 -10010135.871 8  -7699394.885 7  22045019.218 0  22045018.946 0
 88  3  2  5 40 59.0800000  0  4  6  8 11  9
  -5677592.746 8  -4424097.078 7  20666525.621 0  20666524.317 0
   1195913.663 7    931881.915 7  20567552.026 0  20567551.932 0
  -7809913.588 7  -5928314.077 6  20873033.416 0  20873032.557 0
 -10095666.400 7  -7766042.020 7  22028742.927 0  22028743.299 0
 88  3  2  5 41 29.0800000  0  4  6  8 11  9
  -5701065.978 8  -4442387.896 6  20662058.648 0  20662056.958 0
   1246343.594 8    971177.968 6  20577148.146 0  20577148.484 0
  -7851113.194 7  -5960417.636 7  20865193.702 0  20865193.001 0
 -10181047.326 8  -7832572.574 8  22012495.726 0  22012495.576 0
 88  3  2  5 41 59.0800000  0  4  6  8 11  9
  -5724122.800 7  -4460354.259 7  20657670.105 0  20657670.503 0
   1297320.209 7   1010899.999 7  20586848.661 0  20586849.880 0
  -7891779.875 7  -5992105.950 7  20857453.924 0  20857456.138 0
 -10266275.597 7  -7898984.198 7  21996278.288 0  21996277.336 0
 88  3  2  5 42 29.0800000  0  4  6  8 11  9
  -5746760.453 7  -4477993.984 7  20653362.680 0  20653363.235 0
   1348841.495 8   1051046.462 7  20596652.131 0  20596652.845 0
  -7931912.454 8  -6023378.090 6  20849817.011 0  20849818.091 0
 -10351347.771 8  -7965274.176 7  21980089.519 0  21980088.310 0
 88  3  2  5 42 59.0800000  0  4  6  8 11  9
  -5768978.257 7  -4495306.563 7  20649134.270 0  20649134.641 0
   1400903.087 7   1091613.938 7  20606559.258 0  20606559.710 0
  -7971512.403 7  -6054235.179 6  20842282.945 0  20842282.906 0
 -10436263.118 8  -8031441.965 7  21963929.991 0  21963929.655 0
 88  3  2  5 43 29.0800000  0  4  6  8 11  9
  -5790773.191 8  -4512289.642 7  20644987.824 0  20644988.323 0
   1453502.794 7   1132600.728 7  20616568.469 0  20616568.789 0
  -8010578.150 7  -6084675.998 6  20834846.708 0  20834849.077 0
 -10521017.907 8  -8097484.659 7  21947802.494 0  21947801.771 0
 88  3  2  5 43 59.0800000  0  4  6  8 11  9
  -5812143.009 8  -4528941.448 7  20640921.107 0  20640921.077 0
   1506638.290 7   1174005.005 7  20626680.731 0  20626679.815 0
  -8049109.436 7  -6114700.357 8  20827514.373 0  20827516.559 0
 -10605610.166 7  -8163400.699 7  21931704.445 0  21931704.717 0
 88  3  2  5 44 29.0800000  0  4  6  8 11  9
  -5833085.960 7  -4545260.633 7  20636935.596 0  20636934.880 0
   1560306.293 7   1215824.216 7  20636892.017 0  20636893.611 0
  -8087105.734 7  -6144307.830 6  20820285.008 0  20820285.305 0
 -10690037.215 8  -8229187.994 7  21915637.869 0  21915638.270 0
 88  3  2  5 44 59.0800000  0  4  6  8 11  9
  -5853599.278 8  -4561245.046 7  20633032.664 0  20633032.304 0
   1614504.837 7   1258056.844 7  20647204.898 0  20647207.902 0
  -8124566.372 7  -6173497.922 6  20813156.075 0  20813158.535 0
 -10774295.864 7  -8294844.088 6  21899604.698 0  21899603.697 0
 88  3  2  5 45 29.0800000  0  4  6  8 11  9
  -5873681.334 7  -4576893.408 7  20629210.420 0  20629211.005 0
   1669230.510 6   1300700.228 7  20657621.356 0  20657620.661 0
  -8161491.377 7  -6202270.635 7  20806129.070 0  20806130.904 0
 -10858384.478 8  -8360367.656 8  21883603.222 0  21883603.051 0
 88  3  2  5 45 59.0800000  0  4  6  8 11  9
  -5893329.755 7  -4592203.865 7  20625471.585 0  20625471.584 0
   1724480.348 8   1343752.063 7  20668135.021 0  20668135.481 0
  -8197880.314 7  -6230625.642 6  20799205.308 0  20799205.527 0
 -10942299.696 7  -8425756.141 7  21867633.219 0  21867633.641 0
 88  3  2  5 46 29.0800000  0  4  6  8 11  9
  -5912542.665 7  -4607174.954 7  20621815.372 0  20621816.157 0
   1780251.331 7   1387209.971 7  20678747.071 0  20678747.174 0
  -8233732.998 7  -6258562.780 7  20792381.837 0  20792382.213 0
 -11026039.469 7  -8491007.911 7  21851698.109 0  21851699.626 0
 88  3  2  5 46 59.0800000  0  4  6  8 11  9
  -5931318.521 8  -4621805.490 7  20618242.294 0  20618243.123 0
   1836540.037 7   1431071.311 7  20689458.606 0  20689458.283 0
  -8269049.799 7  -6286082.362 7  20785659.482 0  20785662.722 0
 -11109601.987 8  -8556121.545 8  21835797.305 0  21835797.906 0
 88  3  2  5 47 29.0800000  0  4  6  8 11  9
  -5949653.808 7  -4636092.737 7  20614752.697 0  20614753.225 0
   1893345.256 8   1475335.132 7  20700268.449 0  20700268.136 0
  -8303829.077 8  -6313183.089 7  20779043.000 0  20779045.368 0
 -11192982.776 8  -8621093.565 7  21819931.816 0  21819929.885 0
 88  3  2  5 47 59.0800000  0  4  6  8 11  9
  -5967547.285 7  -4650035.686 7  20611348.511 0  20611347.751 0
   1950663.233 8   1519998.474 7  20711175.126 0  20711175.994 0
  -8338071.348 7  -6339865.351 7  20772528.064 0  20772528.336 0
 -11276180.187 8  -8685922.711 7  21804098.888 0  21804098.824 0
 88  3  2  5 48 29.0800000  0  4  6  8 11  9
  -5984996.398 7  -4663632.399 8  20608027.648 0  20608027.274 0
   2008491.345 8   1565059.344 7  20722179.256 0  20722179.927 0
  -8371775.927 7  -6366128.628 7  20766113.028 0  20766115.202 0
 -11359191.218 8  -8750606.608 7  21788303.665 0  21788303.565 0
 88  3  2  5 48 59.0800000  0  4  6  8 11  9
  -6001999.358 7  -4676881.470 7  20604792.195 0  20604791.707 0
   2066826.555 8   1610515.359 7  20733281.625 0  20733280.354 0
  -8404942.889 7  -6391973.022 6  20759799.894 0  20759803.063 0
 -11442013.655 8  -8815143.565 7  21772542.211 0  21772541.696 0
 88  3  2  5 49 29.0800000  0  4  6  8 11  9
  -6018554.866 8  -4689781.887 7  20601641.397 0  20601641.910 0
   2125665.518 8   1656363.914 6  20744478.321 0  20744476.281 0
  -8437572.825 7  -6417398.917 7  20753590.895 0  20753593.992 0
 -11524645.006 8  -8879531.624 7  21756817.010 0  21756817.839 0
 88  3  2  5 49 59.0800000  0  4  6  8 11  9
  -6034660.136 7  -4702331.440 7  20598577.312 0  20598578.169 0
   2185005.552 8   1702602.904 7  20755769.983 0  20755769.610 0
  -8469665.006 7  -6442405.792 7  20747485.938 0  20747487.852 0
 -11607082.720 8  -8943768.795 7  21741129.813 0  21741130.328 0
 88  3  2  5 50 29.0800000  0  4  6  8 11  9
  -6050313.144 7  -4714528.585 7  20595599.626 0  20595599.109 0
   2244843.804 7   1749230.111 7  20767155.080 0  20767156.317 0
  -8501219.008 7  -6466993.304 7  20741481.225 0  20741483.503 0
 -11689323.897 8  -9007852.804 7  21725479.635 0  21725480.422 0
 88  3  2  5 50 59.0800000  0  4  6  8 11  9
  -6065512.421 8  -4726372.173 7  20592705.863 0  20592706.448 0
   2305176.779 8   1796242.800 6  20778637.223 0  20778638.052 0
  -8532235.373 7  -6491161.879 7  20735578.640 0  20735580.428 0
 -11771365.853 8  -9071781.592 7  21709867.777 0  21709868.270 0
 88  3  2  5 51 29.0800000  0  4  6  8 11  9
  -6080255.444 7  -4737860.238 8  20589901.118 0  20589899.900 0
   2366001.911 7   1843639.017 7  20790213.513 0  20790211.916 0
  -8562713.073 7  -6514910.731 6  20729779.166 0  20729780.043 0
 -11853205.965 8  -9135553.074 7  21694294.610 0  21694294.017 0
 88  3  2  5 51 59.0800000  0  4  6  8 11  9
  -6094540.260 7  -4748991.271 8  20587182.286 0  20587182.727 0
   2427316.347 8   1891416.507 7  20801880.466 0  20801879.867 0
  -8592652.793 7  -6538240.374 7  20724081.946 0  20724082.361 0
 -11934841.407 8  -9199165.100 7  21678760.551 0  21678759.614 0
 88  3  2  5 52 29.0800000  0  4  6  8 11  9
  -6108364.704 7  -4759763.551 7  20584551.497 0  20584551.581 0
   2489117.523 8   1939573.265 7  20813639.899 0  20813640.327 0
  -8622054.116 7  -6561150.458 6  20718486.104 0  20718488.214 0
 -12016269.252 8  -9262615.371 7  21663264.826 0  21663264.411 0
 88  3  2  5 52 59.0800000  0  4  6  8 11  9
  -6121727.473 7  -4770176.107 7  20582008.409 0  20582008.408 0
   2551401.699 8   1988106.388 7  20825492.449 0  20825492.426 0
  -8650917.814 7  -6583641.646 7  20712992.883 0  20712995.527 0
 -12097487.599 8  -9325902.366 7  21647809.782 0  21647809.117 0
 88  3  2  5 53 29.0800000  0  4  6  8 11  9
  -6134626.840 7  -4780227.589 7  20579553.410 0  20579554.496 0
   2614165.413 7   2037013.192 7  20837436.635 0  20837436.147 0
  -8679243.835 7  -6605713.842 7  20707603.450 0  20707606.097 0
 -12178493.895 8  -9389024.154 6  21632394.690 0  21632394.181 0
 88  3  2  5 53 59.0800000  0  4  6  8 11  9
  -6147059.746 7  -4789915.570 7  20577187.427 0  20577189.271 0
   2677406.760 7   2086292.154 7  20849469.960 0  20849470.718 0
  -8707031.387 7  -6627366.486 7  20702316.153 0  20702317.448 0
 -12259284.297 8  -9451977.702 7  21617020.700 0  21617020.479 0
 88  3  2  5 54 29.0800000  0  4  6  8 11  9
  -6159024.448 7  -4799238.696 7  20574911.292 0  20574911.161 0
   2741122.500 7   2135940.771 7  20861594.239 0  20861595.472 0
  -8734280.484 7  -6648599.532 7  20697129.607 0  20697134.072 0
 -12339856.293 7  -9514761.045 7  21601687.778 0  21601688.243 0
 88  3  2  5 54 59.0800000  0  4  6  8 11  9
  -6170520.166 7  -4808196.408 7  20572724.475 0  20572724.259 0
   2805308.482 8   2185955.839 7  20873809.857 0  20873808.553 0
  -8760992.447 7  -6669414.033 7  20692046.974 0  20692047.558 0
 -12420208.354 7  -9577373.020 7  21586398.041 0  21586398.485 0
 88  3  2  5 55 29.0800000  0  4  6  8 11  9
  -6181543.614 7  -4816786.108 7  20570626.088 0  20570626.015 0
   2869962.998 8   2236335.983 7  20886111.955 0  20886110.723 0
  -8787166.258 7  -6689809.185 6  20687066.842 0  20687067.246 0
 -12500335.999 8  -9639810.131 7  21571148.485 0  21571149.343 0
 88  3  2  5 55 59.0800000  0  4  6  8 11  9
  -6192093.596 8  -4825006.875 7  20568618.795 0  20568618.779 0
   2935082.183 8   2287078.210 7  20898504.227 0  20898502.612 0
  -8812802.122 7  -6709785.183 6  20682187.471 0  20682189.893 0
 -12580237.727 7  -9702071.207 7  21555944.903 0  21555945.118 0
 88  3  2  5 56 29.0800000  0  4  6  8 11  9
  -6202168.504 8  -4832857.479 7  20566701.620 0  20566702.920 0
   3000662.760 8   2338179.947 7  20910983.018 0  20910984.437 0
  -8837900.816 7  -6729342.586 6  20677412.736 0  20677413.423 0
 -12659910.929 8  -9764154.230 6  21540783.412 0  21540783.907 0
 88  3  2  5 56 59.0800000  0  4  6  8 11  9
  -6211765.487 7  -4840335.659 7  20564875.352 0  20564875.264 0
   3066702.614 7   2389639.580 7  20923550.105 0  20923550.981 0
  -8862461.282 7  -6748480.593 6  20672739.758 0  20672739.873 0
 -12739351.543 8  -9826055.984 7  21525667.289 0  21525666.487 0
 88  3  2  5 57 29.0800000  0  4  6  8 11  9
  -6220883.566 7  -4847440.652 7  20563139.188 0  20563140.360 0
   3133198.049 8   2441454.231 7  20936204.861 0  20936204.209 0
  -8886484.866 8  -6767200.253 7  20668169.119 0  20668167.903 0
 -12818557.778 8  -9887775.122 7  21510593.707 0  21510593.921 0
 88  3  2  5 57 59.0800000  0  4  6  8 11  9
  -6229521.810 7  -4854171.743 7  20561495.763 0  20561497.063 0
   3200145.163 7   2493620.810 7  20948942.815 0  20948943.822 0
  -8909972.491 7  -6785502.288 6  20663698.154 0  20663698.948 0
 -12897527.657 7  -9949310.066 7  21495566.758 0  21495565.885 0
 88  3  2  5 58 29.0800000  0  4  6  8 11  9
  -6237676.301 7  -4860525.881 7  20559945.047 0  20559944.773 0
   3267542.677 7   2546138.341 7  20961769.137 0  20961769.028 0
  -8932922.841 8  -6803385.663 6  20659331.950 0  20659332.018 0
 -12976256.725 8 -10010657.388 7  21480584.547 0  21480584.618 0
 88  3  2  5 58 59.0800000  0  4  6  8 11  9
  -6245345.696 8  -4866502.064 7  20558485.666 0  20558485.264 0
   3335386.915 8   2599003.980 7  20974679.827 0  20974680.052 0
  -8955336.460 7  -6820850.808 6  20655065.711 0  20655067.485 0
 -13054742.356 7 -10071815.010 7  21465649.750 0  21465648.840 0
 88  3  2  5 59 29.0800000  0  4  6  8 11  9
  -6252528.709 7  -4872099.229 7  20557117.005 0  20557118.534 0
   3403674.435 7   2652215.032 7  20987674.530 0  20987674.747 0
  -8977214.060 8  -6837898.276 6  20650902.626 0  20650902.819 0
 -13132982.610 8 -10132781.434 7  21450761.363 0  21450760.448 0
 88  3  2  5 59 59.0800000  0  4  6  8 11  9
  -6259223.479 7  -4877315.909 7  20555844.817 0  20555845.102 0
   3472402.134 8   2705769.100 7  21000753.686 0  21000752.100 0
  -8998555.268 7  -6854527.791 7  20646841.136 0  20646842.245 0
 -13210973.685 7 -10193553.693 7  21435918.832 0  21435919.927 0
 88  3  2  6  0 29.0800000  0  4  6  8 11  9
  -6265428.359 8  -4882150.867 7  20554664.552 0  20554664.564 0
   3541566.627 8   2759663.509 7  21013913.660 0  21013914.739 0
  -9019361.108 7  -6870740.108 7  20642883.052 0  20642882.891 0
 -13288714.187 8 -10254130.687 7  21421125.967 0  21421126.175 0
 88  3  2  6  0 59.0800000  0  4  6  8 11  9
  -6271141.818 7  -4886602.921 7  20553577.468 0  20553577.209 0
   3611165.096 7   2813896.083 7  21027158.072 0  21027157.842 0
  -9039631.895 7  -6886535.526 7  20639023.490 0  20639024.989 0
 -13366200.611 8 -10314509.709 7  21406380.151 0  21406380.373 0
 88  3  2  6  1 29.0800000  0  4  6  8 11  9
  -6276361.906 7  -4890670.537 8  20552582.478 0  20552582.919 0
   3681194.422 8   2868464.369 7  21040483.775 0  21040483.760 0
  -9059367.977 7  -6901914.281 7  20635268.436 0  20635270.107 0
 -13443429.988 7 -10374688.440 7  21391684.754 0  21391685.055 0
 88  3  2  6  1 59.0800000  0  4  6  8 11  9
  -6281087.246 7  -4894352.628 7  20551682.858 0  20551684.073 0
   3751651.039 7   2923365.643 7  21053891.502 0  21053891.308 0
  -9078570.012 7  -6916876.883 7  20631615.442 0  20631616.261 0
 -13520400.332 7 -10434665.326 6  21377036.240 0  21377037.328 0
 88  3  2  6  2 29.0800000  0  4  6  8 11  9
  -6285315.550 7  -4897647.416 7  20550877.930 0  20550879.552 0
   3822532.542 8   2978597.971 7  21067379.801 0  21067380.737 0
  -9097237.764 7  -6931423.170 7  20628062.483 0  20628064.090 0
 -13597107.786 7 -10494437.355 7  21362440.185 0  21362440.863 0
 88  3  2  6  2 59.0800000  0  4  6  8 11  9
  -6289045.311 7  -4900553.721 7  20550169.066 0  20550169.937 0
   3893835.408 7   3034158.646 7  21080949.093 0  21080948.870 0
  -9115371.777 7  -6945553.567 7  20624610.594 0  20624611.664 0
 -13673549.662 7 -10554002.445 7  21347893.309 0  21347893.731 0
 88  3  2  6  3 29.0800000  0  4  6  8 11  9
  -6292275.300 7  -4903070.616 8  20549553.531 0  20549556.062 0
   3965556.126 8   3090044.941 7  21094597.572 0  21094597.592 0
  -9132973.105 7  -6959268.871 6  20621262.958 0  20621262.897 0
 -13749723.835 8 -10613358.928 7  21333398.612 0  21333399.270 0
 88  3  2  6  3 59.0800000  0  4  6  8 11  9
  -6295003.568 7  -4905196.536 7  20549035.856 0  20549036.254 0
   4037691.972 7   3146254.680 7  21108322.491 0  21108323.370 0
  -9150041.753 8  -6972569.100 7  20618013.855 0  20618014.975 0
 -13825626.916 8 -10672504.178 6  21318955.800 0  21318955.342 0
 88  3  2  6  4 29.0800000  0  4  6  8 11  9
  -6297228.495 7  -4906930.250 7  20548611.920 0  20548612.216 0
   4110239.553 8   3202785.253 7  21122128.027 0  21122129.851 0
  -9166578.468 7  -6985454.852 7  20614865.943 0  20614868.379 0
 -13901256.287 8 -10731436.158 7  21304562.821 0  21304563.450 0
 88  3  2  6  4 59.0800000  0  4  6  8 11  9
  -6298948.337 7  -4908270.393 7  20548284.887 0  20548285.540 0
   4183195.941 7   3259634.383 7  21136012.179 0  21136012.400 0
  -9182583.713 7  -6997926.449 6  20611821.075 0  20611821.094 0
 -13976608.846 7 -10790152.418 7  21290224.044 0  21290224.359 0
 88  3  2  6  5 29.0800000  0  4  6  8 11  9
  -6300161.597 7  -4909215.806 8  20548052.645 0  20548053.695 0
   4256557.820 8   3316799.484 7  21149971.683 0  21149972.648 0
  -9198058.346 7  -7009984.589 7  20608876.937 0  20608876.927 0
 -14051681.731 8 -10848650.756 7  21275937.711 0  21275937.352 0
 88  3  2  6  5 59.0800000  0  4  6  8 11  9
  -6300866.238 7  -4909764.873 6  20547919.161 0  20547920.179 0
   4330322.349 8   3374278.338 7  21164009.487 0  21164009.836 0
  -9213002.029 7  -7021629.019 7  20606033.403 0  20606033.814 0
 -14126471.531 7 -10906928.519 7  21261706.281 0  21261705.259 0
 88  3  2  6  6 29.0800000  0  4  6  8 11  9
  -6301061.960 7  -4909917.393 7  20547883.402 0  20547882.932 0
   4404484.757 8   3432067.230 7  21178122.385 0  21178121.747 0
  -9227416.657 7  -7032861.178 6  20603289.490 0  20603291.139 0
 -14200977.131 8 -10964984.811 7  21247527.953 0  21247527.288 0
 88  3  2  6  6 59.0800000  0  4  6  8 11  9
  -6300745.428 7  -4909670.753 7  20547942.377 0  20547943.054 0
   4479043.494 7   3490164.931 7  21192309.633 0  21192311.028 0
  -9241301.939 7  -7043680.869 6  20600648.595 0  20600649.954 0
 -14275193.874 8 -11022816.025 7  21233405.589 0  21233405.588 0
 88  3  2  6  7 29.0800000  0  4  6  8 11  9
  -6299916.605 7  -4909024.918 7  20548100.375 0  20548100.337 0
   4553994.784 7   3548568.524 7  21206572.664 0  21206573.471 0
  -9254658.900 7  -7054088.880 7  20598106.649 0  20598108.216 0
 -14349119.625 7 -11080420.511 7  21219338.093 0  21219337.556 0
 88  3  2  6  7 59.0800000  0  4  6  8 11  9
  -6298574.359 7  -4907979.019 7  20548354.774 0  20548356.257 0
   4629334.671 7   3607274.934 7  21220910.160 0  21220909.050 0
  -9267488.971 7  -7064086.336 6  20595664.549 0  20595665.089 0
 -14422752.392 8 -11137796.673 7  21205326.138 0  21205325.945 0
 88  3  2  6  8 29.0800000  0  4  6  8 11  9
  -6296716.518 7  -4906531.359 7  20548710.199 0  20548708.788 0
   4705060.628 7   3666282.183 7  21235320.088 0  21235318.691 0
  -9279791.889 7  -7073673.009 7  20593325.063 0  20593324.166 0
 -14496088.285 8 -11194941.524 7  21191370.196 0  21191370.611 0
 88  3  2  6  8 59.0800000  0  4  6  8 11  9
  -6294341.147 7  -4904680.429 7  20549160.523 0  20549162.085 0
   4781170.001 8   3725588.187 7  21249803.194 0  21249804.058 0
  -9291567.951 7  -7082849.140 7  20591083.681 0  20591083.750 0
 -14569124.365 7 -11251852.716 7  21177471.921 0  21177471.649 0
 88  3  2  6  9 29.0800000  0  4  6  8 11  9
  -6291447.236 7  -4902425.441 7  20549712.256 0  20549713.592 0
   4857659.224 8   3785190.180 7  21264358.303 0  21264358.925 0
  -9302818.489 7  -7091615.788 7  20588941.956 0  20588943.119 0
 -14641858.191 7 -11308528.415 7  21163631.326 0  21163630.396 0
 88  3  2  6  9 59.0800000  0  4  6  8 11  9
  -6288033.594 7  -4899765.457 7  20550362.867 0  20550362.417 0
   4934524.679 8   3845085.335 7  21278985.188 0  21278985.509 0
  -9313544.635 7  -7099973.819 6  20586899.747 0  20586901.633 0
 -14714287.142 8 -11364966.558 7  21149848.283 0  21149849.242 0
 88  3  2  6 10 29.0800000  0  4  6  8 11  9
  -6284098.181 7  -4896698.914 7  20551110.725 0  20551112.544 0
   5011763.927 8   3905271.757 7  21293683.390 0  21293683.566 0
  -9323746.302 7  -7107923.157 7  20584958.656 0  20584960.412 0
 -14786407.169 8 -11421163.955 7  21136124.909 0  21136124.229 0
 88  3  2  6 10 59.0800000  0  4  6  8 11  9
  -6279639.271 7  -4893224.431 7  20551959.557 0  20551960.002 0
   5089374.104 7   3965747.225 7  21308452.507 0  21308452.327 0
  -9333424.221 7  -7115464.382 7  20583117.852 0  20583118.178 0
 -14858215.434 7 -11477118.447 7  21122460.316 0  21122460.581 0
 88  3  2  6 11 29.0800000  0  4  6  8 11  9
  -6274656.723 8  -4889341.942 7  20552907.794 0  20552907.832 0
   5167350.655 8   4026508.179 7  21323290.252 0  21323290.444 0
  -9342580.122 8  -7122598.823 7  20581375.071 0  20581377.164 0
 -14929710.359 8 -11532828.777 7  21108854.936 0  21108853.919 0
 88  3  2  6 11 59.0800000  0  4  6  8 11  9
  -6269148.953 7  -4885050.173 7  20553956.432 0  20553955.708 0
   5245690.371 8   4087552.122 7  21338198.312 0  21338199.606 0
  -9351214.975 7  -7129327.292 7  20579731.191 0  20579732.211 0
 -15000888.649 7 -11588292.369 7  21095310.255 0  21095310.498 0
 88  3  2  6 12 29.0800000  0  4  6  8 11  9
  -6263114.457 7  -4880347.973 7  20555102.813 0  20555103.666 0
   5324390.689 8   4148877.046 7  21353173.110 0  21353175.191 0
  -9359329.240 7  -7135650.097 7  20578188.213 0  20578188.906 0
 -15071747.343 7 -11643506.922 7  21081825.114 0  21081825.622 0
 88  3  2  6 12 59.0800000  0  4  6  8 11  9
  -6256551.697 7  -4875234.138 7  20556352.816 0  20556352.925 0
   5403448.451 7   4210480.496 7  21368217.767 0  21368219.016 0
  -9366923.625 7  -7141567.776 6  20576742.426 0  20576743.992 0
 -15142283.115 8 -11698469.850 7  21068402.548 0  21068402.576 0
 88  3  2  6 13 29.0800000  0  4  6  8 11  9
  -6249459.382 7  -4869707.675 7  20557701.854 0  20557703.401 0
   5482860.635 8   4272360.114 7  21383330.161 0  21383331.827 0
  -9373998.760 7  -7147080.852 7  20575396.023 0  20575397.028 0
 -15212493.296 7 -11753179.079 7  21055041.805 0  21055043.221 0
 88  3  2  6 13 59.0800000  0  4  6  8 11  9
  -6241836.354 7  -4863767.665 7  20559153.164 0  20559152.815 0
   5562623.726 7   4334513.175 7  21398508.551 0  21398508.629 0
  -9380555.913 7  -7152190.323 7  20574147.825 0  20574149.291 0
 -15282375.003 7 -11807632.352 7  21041743.828 0  21041745.645 0
 88  3  2  6 14 29.0800000  0  4  6  8 11  9
  -6233682.369 6  -4857413.915 7  20560704.698 0  20560703.999 0
   5642733.262 8   4396936.189 7  21413752.476 0  21413752.239 0
  -9386596.892 7  -7156897.569 7  20572997.315 0  20572999.791 0
 -15351926.326 8 -11861828.191 7  21028509.635 0  21028509.757 0
 88  3  2  6 14 59.0800000  0  4  6  8 11  9
  -6224994.679 7  -4850644.303 6  20562357.280 0  20562357.489 0
   5723187.702 7   4459627.967 7  21429062.260 0  21429062.924 0
  -9392121.394 7  -7161202.367 6  20571948.472 0  20571948.043 0
 -15421142.830 8 -11915763.150 7  21015338.367 0  21015337.365 0
 88  3  2  6 15 29.0800000  0  4  6  8 11  9
  -6215771.549 7  -4843457.467 7  20564113.419 0  20564113.441 0
   5803984.617 7   4522586.599 8  21444437.959 0  21444438.444 0
  -9397129.515 7  -7165104.790 6  20570993.068 0  20570996.423 0
 -15490021.047 8 -11969434.481 7  21002230.703 0  21002230.946 0
 88  3  2  6 15 59.0800000  0  4  6  8 11  9
  -6206013.309 7  -4835853.647 7  20565970.332 0  20565970.724 0
   5885118.980 7   4585808.175 7  21459876.618 0  21459878.506 0
  -9401624.352 7  -7168607.262 7  20570138.229 0  20570141.191 0
 -15558559.970 7 -12022841.407 7  20989188.976 0  20989188.890 0
 88  3  2  6 16 29.0800000  0  4  6  8 11  9
  -6195718.381 7  -4827831.624 7  20567929.264 0  20567929.928 0
   5966588.236 8   4649290.709 7  21475379.626 0  21475381.006 0
  -9405605.910 7  -7171709.770 6  20569381.333 0  20569382.150 0
 -15626755.642 7 -12075980.897 7  20976211.969 0  20976211.110 0
 88  3  2  6 16 59.0800000  0  4  6  8 11  9
  -6184885.591 7  -4819390.490 7  20569989.651 0  20569989.696 0
   6048388.829 7   4713031.422 7  21490946.689 0  21490946.946 0
  -9409075.371 7  -7174413.225 7  20568720.896 0  20568721.525 0
 -15694605.446 8 -12128850.861 6  20963299.826 0  20963300.269 0
 88  3  2  6 17 29.0800000  0  4  6  8 11  9
  -6173513.235 7  -4810528.921 7  20572153.140 0  20572154.547 0
   6130518.331 8   4777028.442 7  21506576.097 0  21506576.453 0
  -9412033.350 7  -7176718.127 7  20568157.992 0  20568158.941 0
 -15762106.015 8 -12181448.694 7  20950455.065 0  20950454.879 0
 88  3  2  6 17 59.0800000  0  4  6  8 11  9
  -6161600.802 7  -4801246.518 7  20574420.485 0  20574421.809 0
   6212973.087 8   4841278.892 7  21522266.512 0  21522267.449 0
  -9414481.586 6  -7178625.825 7  20567692.207 0  20567693.727 0
 -15829254.847 7 -12233772.452 6  20937676.927 0  20937676.283 0
 88  3  2  6 18 29.0800000  0  4  6  8 11  9
  -6149147.441 7  -4791542.620 7  20576791.194 0  20576790.897 0
   6295749.904 8   4905780.307 7  21538017.577 0  21538018.556 0
  -9416421.424 7  -7180137.385 7  20567323.401 0  20567325.340 0
 -15896049.515 7 -12285820.244 7  20924966.329 0  20924967.002 0
 88  3  2  6 18 59.0800000  0  4  6  8 11  9
  -6136151.447 7  -4781415.884 7  20579264.849 0  20579264.812 0
   6378845.551 7   4970530.164 7  21553830.143 0  21553830.893 0
  -9417853.302 7  -7181253.137 7  20567051.175 0  20567053.114 0
 -15962486.370 7 -12337589.206 7  20912323.199 0  20912323.743 0
 88  3  2  6 19 29.0800000  0  4  6  8 11  9
  -6122611.888 7  -4770865.593 7  20581840.979 0  20581840.340 0
   6462256.788 8   5035525.925 7  21569702.306 0  21569703.278 0
  -9418778.347 7  -7181973.928 7  20566874.718 0  20566876.525 0
 -16028562.618 8 -12389077.182 7  20899749.811 0  20899749.253 0
 88  3  2  6 19 59.0800000  0  4  6  8 11  9
  -6108528.806 8  -4759891.759 7  20584520.855 0  20584520.144 0
   6545979.693 7   5100764.547 7  21585634.525 0  21585634.968 0
  -9419198.672 7  -7182301.445 7  20566794.514 0  20566795.977 0
 -16094276.092 8 -12440282.504 6  20887246.152 0  20887245.108 0
 88  3  2  6 20 29.0800000  0  4  6  8 11  9
  -6093899.631 7  -4748492.406 7  20587304.127 0  20587304.258 0
   6630012.551 8   5166244.701 7  21601626.478 0  21601625.582 0
  -9419114.154 7  -7182235.566 7  20566811.363 0  20566811.180 0
 -16159622.814 7 -12491202.025 7  20874810.104 0  20874809.447 0
 88  3  2  6 20 59.0800000  0  4  6  8 11  9
  -6078723.538 7  -4736666.895 7  20590193.693 0  20590192.611 0
   6714351.829 8   5231963.614 7  21617675.560 0  21617674.235 0
  -9418525.936 7  -7181777.222 7  20566922.477 0  20566924.050 0
 -16224599.893 7 -12541833.493 7  20862445.660 0  20862444.844 0
 88  3  2  6 21 29.0800000  0  4  6  8 11  9
  -6063001.710 7  -4724416.138 7  20593185.190 0  20593184.651 0
   6798992.380 8   5297917.308 7  21633782.137 0  21633782.894 0
  -9417437.182 7  -7180928.850 6  20567130.306 0  20567130.807 0
 -16289206.097 8 -12592175.976 7  20850150.372 0  20850150.157 0
 88  3  2  6 21 59.0800000  0  4  6  8 11  9
  -6046731.877 7  -4711738.354 7  20596280.586 0  20596280.520 0
   6883932.513 8   5364104.426 7  21649944.606 0  21649945.541 0
  -9415848.298 6  -7179690.734 6  20567433.704 0  20567434.068 0
 -16353437.626 7 -12642226.512 7  20837928.647 0  20837927.473 0
 88  3  2  6 22 29.0800000  0  4  6  8 11  9
  -6029912.600 7  -4698632.423 7  20599481.194 0  20599480.785 0
   6969169.483 7   5430522.848 7  21666165.284 0  21666164.889 0
  -9413759.441 7  -7178063.052 6  20567828.626 0  20567830.954 0
 -16417290.906 8 -12691982.321 6  20825778.154 0  20825776.822 0
 88  3  2  6 22 59.0800000  0  4  6  8 11  9
  -6012542.407 7  -4685097.211 6  20602785.837 0  20602787.438 0
   7054700.609 8   5497170.482 7  21682440.701 0  21682440.449 0
  -9411171.700 7  -7176046.627 6  20568322.736 0  20568322.904 0
 -16480762.724 7 -12741440.909 7  20813700.251 0  20813699.263 0
 88  3  2  6 23 29.0800000  0  4  6  8 11  9
  -5994621.365 7  -4671132.776 6  20606196.240 0  20606198.158 0
   7140521.625 8   5564043.992 7  21698772.705 0  21698772.439 0
  -9408087.175 7  -7173643.080 7  20568910.143 0  20568909.728 0
 -16543851.165 8 -12790600.711 7  20801693.836 0  20801694.079 0
 88  3  2  6 23 59.0800000  0  4  6  8 11  9
  -5976149.010 7  -4656738.756 6  20609711.943 0  20609711.623 0
   7226629.127 8   5631140.736 7  21715158.104 0  21715158.639 0
  -9404507.449 7  -7170853.687 7  20569589.132 0  20569590.390 0
 -16606553.219 7 -12839459.452 7  20789761.958 0  20789760.356 0
 88  3  2  6 24 29.0800000  0  4  6  8 11  9
  -5957124.467 7  -4641914.450 7  20613333.241 0  20613332.030 0
   7313020.223 8   5698458.471 7  21731598.114 0  21731597.904 0
  -9400433.942 7  -7167679.510 7  20570366.152 0  20570367.436 0
 -16668866.177 7 -12888015.000 7  20777903.959 0  20777904.675 0
 88  3  2  6 24 59.0800000  0  4  6  8 11  9
  -5937546.106 7  -4626658.579 7  20617058.346 0  20617058.093 0
   7399692.234 8   5765995.117 7  21748090.731 0  21748091.158 0
  -9395867.286 7  -7164121.074 7  20571233.403 0  20571235.607 0
 -16730786.289 7 -12936264.425 7  20766121.412 0  20766121.427 0
 88  3  2  6 25 29.0800000  0  4  6  8 11  9
  -5917413.436 7  -4610970.780 7  20620888.661 0  20620889.246 0
   7486641.703 8   5833747.948 7  21764637.136 0  21764638.057 0
  -9390809.087 7  -7160179.602 7  20572196.662 0  20572197.592 0
 -16792311.119 7 -12984205.865 7  20754413.588 0  20754413.359 0
 88  3  2  6 25 59.0800000  0  4  6  8 11  9
  -5896726.593 7  -4594851.179 6  20624825.489 0  20624825.862 0
   7573864.615 8   5901713.856 7  21781235.505 0  21781235.547 0
  -9385261.166 7  -7155856.514 7  20573254.493 0  20573254.074 0
 -16853438.597 7 -13031837.674 7  20742781.344 0  20742781.359 0
 88  3  2  6 26 29.0800000  0  4  6  8 11  9
  -5875483.635 7  -4578298.239 7  20628868.596 0  20628868.255 0
   7661359.386 8   5969891.599 7  21797886.146 0  21797885.100 0
  -9379223.737 7  -7151152.037 6  20574401.854 0  20574402.340 0
 -16914164.258 7 -13079156.359 7  20731225.098 0  20731225.884 0
 88  3  2  6 26 59.0800000  0  4  6  8 11  9
  -5853683.576 7  -4561311.193 7  20633016.255 0  20633015.963 0
   7749123.077 8   6038278.884 7  21814585.989 0  21814585.795 0
  -9372698.047 7  -7146067.074 7  20575644.098 0  20575644.216 0
 -16974485.784 7 -13126160.136 7  20719747.351 0  20719746.392 0
 88  3  2  6 27 29.0800000  0  4  6  8 11  9
  -5831327.148 8  -4543890.599 7  20637270.918 0  20637270.103 0
   7837150.902 8   6106871.977 7  21831336.916 0  21831337.244 0
  -9365687.086 7  -7140603.980 6  20576976.792 0  20576978.871 0
 -17034401.136 7 -13172847.434 7  20708345.743 0  20708345.056 0
 88  3  2  6 27 59.0800000  0  4  6  8 11  9
  -5808413.873 7  -4526036.118 7  20641631.099 0  20641630.003 0
   7925439.506 8   6175668.281 7  21848137.503 0  21848138.124 0
  -9358192.629 7  -7134764.129 7  20578403.597 0  20578404.984 0
 -17093907.716 8 -13219216.188 7  20697021.262 0  20697020.675 0
 88  3  2  6 28 29.0800000  0  4  6  8 11  9
  -5784941.629 8  -4507746.070 7  20646097.642 0  20646097.937 0
   8013987.350 8   6244666.598 7  21864987.864 0  21864988.021 0
  -9350214.623 7  -7128547.496 7  20579921.408 0  20579921.805 0
 -17153001.204 7 -13265263.051 7  20685776.325 0  20685775.796 0
 88  3  2  6 28 59.0800000  0  4  6  8 11  9
  -5760910.533 7  -4489020.546 7  20650669.979 0  20650670.367 0
   8102790.662 8   6313863.996 7  21881887.235 0  21881886.983 0
  -9341754.819 7  -7121955.428 7  20581532.866 0  20581532.358 0
 -17211679.449 7 -13310986.370 7  20674610.076 0  20674610.849 0
 88  3  2  6 29 29.0800000  0  4  6  8 11  9
  -5736321.032 7  -4469859.913 7  20655348.276 0  20655348.589 0
   8191845.559 8   6383257.427 7  21898832.652 0  21898832.836 0
  -9332815.788 7  -7114989.947 6  20583231.331 0  20583234.633 0
 -17269940.747 7 -13356384.769 7  20663523.657 0  20663522.798 0
 88  3  2  6 29 59.0800000  0  4  6  8 11  9
  -5711171.530 7  -4450262.908 7  20660134.543 0  20660135.413 0
   8281149.230 8   6452844.692 7  21915827.215 0  21915827.656 0
  -9323398.290 7  -7107651.634 7  20585025.016 0  20585025.542 0
 -17327781.093 7 -13401455.178 7  20652516.667 0  20652516.453 0
 88  3  2  6 30 29.0800000  0  4  6  8 11  9
  -5685460.046 7  -4430228.001 7  20665028.979 0  20665028.491 0
   8370700.320 8   6522624.756 7  21932867.244 0  21932868.037 0
  -9313502.492 7  -7099940.601 7  20586908.306 0  20586908.320 0
 -17385196.307 7 -13446194.308 7  20641591.098 0  20641591.384 0
 88  3  2  6 30 59.0800000  0  4  6  8 11  9
  -5659187.464 8  -4409755.875 7  20670028.521 0  20670027.383 0
   8460494.661 7   6592594.345 7  21949954.193 0  21949955.294 0
  -9303131.377 7  -7091859.195 6  20588881.565 0  20588882.802 0
 -17442184.710 7 -13490600.835 7  20630746.290 0  20630746.361 0
 88  3  2  6 31 29.0800000  0  4  6  8 11  9
  -5632355.197 7  -4388847.630 6  20675132.723 0  20675132.461 0
   8550526.855 8   6662749.298 7  21967087.806 0  21967087.747 0
  -9292288.132 7  -7083409.918 7  20590944.058 0  20590946.037 0
 -17498745.706 7 -13534674.344 7  20619983.444 0  20619983.387 0
 88  3  2  6 31 59.0800000  0  4  6  8 11  9
  -5604960.986 7  -4367501.501 7  20680345.573 0  20680346.705 0
   8640795.827 8   6733088.762 7  21984265.375 0  21984264.322 0
  -9280972.440 7  -7074592.488 7  20593097.012 0  20593099.191 0
 -17554874.354 7 -13578410.948 7  20609301.918 0  20609303.120 0
 88  3  2  6 32 29.0800000  0  4  6  8 11  9
  -5577003.317 7  -4345716.317 6  20685666.771 0  20685666.133 0
   8731299.681 7   6803611.251 7  22001487.168 0  22001487.896 0
  -9269184.882 7  -7065407.368 7  20595341.162 0  20595342.052 0
 -17610567.015 7 -13621807.815 7  20598703.099 0  20598703.872 0
 88  3  2  6 32 59.0800000  0  4  6  8 11  9
  -5548483.445 7  -4323493.057 7  20691094.473 0  20691093.566 0
   8822033.258 8   6874312.737 7  22018753.783 0  22018754.469 0
  -9256928.838 7  -7055857.185 7  20597673.753 0  20597674.435 0
 -17665822.572 7 -13664864.078 7  20588189.176 0  20588189.277 0
 88  3  2  6 33 29.0800000  0  4  6  8 11  9
  -5519400.186 8  -4300830.786 7  20696629.146 0  20696627.828 0
   8912994.366 7   6945191.519 7  22036063.205 0  22036062.624 0
  -9244205.123 7  -7045942.593 7  20600094.638 0  20600096.870 0
 -17720637.078 8 -13707576.680 7  20577758.033 0  20577758.619 0
 88  3  2  6 33 59.0800000  0  4  6  8 11  9
  -5489752.321 7  -4277728.540 6  20702269.124 0  20702270.918 0
   9004180.627 7   7016245.741 7  22053415.261 0  22053415.381 0
  -9231014.711 6  -7035664.353 7  20602604.835 0  20602607.049 0
 -17775007.516 7 -13749943.256 6  20567413.874 0  20567411.469 0
 88  3  2  6 34 29.0800000  0  4  6  8 11  9
  -5459541.011 8  -4254187.263 7  20708019.276 0  20708018.913 0
   9095587.873 7   7087472.150 7  22070809.057 0  22070809.385 0
  -9217360.404 7  -7025024.619 7  20605204.700 0  20605203.656 0
 -17828932.106 7 -13791962.418 6  20557151.135 0  20557150.318 0
 88  3  2  6 34 59.0800000  0  4  6  8 11  9
  -5428766.066 7  -4230206.805 7  20713875.369 0  20713874.205 0
   9187213.025 7   7158868.358 7  22088245.437 0  22088246.137 0
  -9203244.226 7  -7014024.979 6  20607890.399 0  20607889.612 0
 -17882408.397 7 -13833632.254 6  20546975.696 0  20546974.652 0
 88  3  2  6 35 29.0800000  0  4  6  8 11  9
  -5397426.120 7  -4205786.099 6  20719838.464 0  20719839.628 0
   9279053.742 7   7230432.547 7  22105720.731 0  22105722.961 0
  -9188666.544 7  -7002665.743 7  20610662.530 0  20610663.756 0
 -17935432.313 7 -13874949.590 7  20536884.166 0  20536884.496 0
 88  3  2  6 35 59.0800000  0  4  6  8 11  9
  -5365520.697 7  -4180924.736 6  20725910.455 0  20725911.261 0
   9371107.307 8   7302162.589 7  22123239.203 0  22123238.936 0
  -9173628.963 7  -6990948.133 7  20613524.811 0  20613526.066 0
 -17988001.000 7 -13915912.188 7  20526880.852 0  20526881.597 0
 88  3  2  6 36 29.0800000  0  4  6  8 11  9
  -5333050.443 7  -4155623.246 7  20732089.807 0  20732090.442 0
   9463369.814 8   7374055.451 7  22140796.087 0  22140795.578 0
  -9158133.970 7  -6978874.123 7  20616472.725 0  20616474.110 0
 -18040112.626 7 -13956518.654 7  20516964.267 0  20516964.926 0
 88  3  2  6 36 59.0800000  0  4  6  8 11  9
  -5300015.630 8  -4129881.809 7  20738374.214 0  20738376.036 0
   9555837.993 7   7446108.579 6  22158392.309 0  22158391.521 0
  -9142184.180 7  -6966445.715 7  20619508.460 0  20619509.923 0
 -18091765.083 7 -13996767.326 6  20507135.454 0  20507135.312 0
 88  3  2  6 37 29.0800000  0  4  6  8 11  9
  -5266415.569 7  -4103699.938 6  20744769.797 0  20744768.961 0
   9648508.978 7   7518319.739 7  22176025.704 0  22176026.655 0
  -9125780.755 7  -6953663.824 7  20622630.636 0  20622630.646 0
 -18142955.361 7 -14036655.864 7  20497394.000 0  20497395.444 0
 88  3  2  6 37 59.0800000  0  4  6  8 11  9
  -5232249.456 7  -4077077.024 6  20751270.769 0  20751271.387 0
   9741380.733 8   7590687.324 7  22193699.009 0  22193700.425 0
  -9108924.272 7  -6940528.891 7  20625836.971 0  20625838.660 0
 -18193679.606 7 -14076181.224 7  20487742.077 0  20487742.806 0
 88  3  2  6 38 29.0800000  0  4  6  8 11  9
  -5197517.538 8  -4050013.219 7  20757879.823 0  20757879.797 0
   9834449.561 7   7663208.483 7  22211410.777 0  22211410.604 0
  -9091617.053 7  -6927042.738 6  20629130.024 0  20629131.723 0
 -18243935.724 7 -14115341.854 6  20478179.143 0  20478178.427 0
 88  3  2  6 38 59.0800000  0  4  6  8 11  9
  -5162219.897 7  -4022508.565 7  20764597.505 0  20764597.948 0
   9927712.198 8   7735880.664 7  22229157.495 0  22229158.216 0
  -9073861.079 7  -6913206.905 7  20632510.735 0  20632510.845 0
 -18293721.068 7 -14154135.611 6  20468703.366 0  20468704.225 0
 88  3  2  6 39 29.0800000  0  4  6  8 11  9
  -5126355.847 7  -3994562.548 7  20771422.002 0  20771423.202 0
  10021166.258 7   7808701.994 7  22246940.422 0  22246942.131 0
  -9055657.854 7  -6899022.579 7  20635972.771 0  20635975.390 0
 -18343032.478 7 -14192560.096 7  20459320.399 0  20459320.571 0
 88  3  2  6 39 59.0800000  0  4  6  8 11  9
  -5089925.583 7  -3966175.327 7  20778355.872 0  20778355.011 0
  10114808.618 7   7881670.045 7  22264760.818 0  22264761.990 0
  -9037009.042 6  -6884491.040 6  20639522.681 0  20639524.427 0
 -18391867.583 7 -14230613.418 6  20450027.494 0  20450026.636 0
 88  3  2  6 40 29.0800000  0  4  6  8 11  9
  -5052929.230 7  -3937347.028 7  20785396.172 0  20785393.959 0
  10208636.334 8   7954782.552 8  22282615.964 0  22282616.985 0
  -9017916.793 7  -6869613.958 7  20643156.944 0  20643156.676 0
 -18440223.834 7 -14268293.627 7  20440825.996 0  20440825.252 0
 88  3  2  6 40 59.0800000  0  4  6  8 11  9
  -5015367.346 7  -3908078.031 7  20792542.350 0  20792542.245 0
  10302645.625 7   8028036.548 7  22300506.203 0  22300504.120 0
  -8998383.513 7  -6854393.224 7  20646872.400 0  20646873.320 0
 -18488098.996 7 -14305598.950 7  20431714.518 0  20431715.705 0
 88  3  2  6 41 29.0800000  0  4  6  8 11  9
  -4977239.303 7  -3878367.885 7  20799797.361 0  20799798.035 0
  10396834.110 7   8101430.158 8  22318428.416 0  22318429.416 0
  -8978410.398 7  -6838829.759 7  20650674.889 0  20650674.459 0
 -18535489.804 7 -14342526.841 7  20422698.638 0  20422698.309 0
 88  3  2  6 41 59.0800000  0  4  6  8 11  9
  -4938544.561 7  -3848216.142 6  20807163.232 0  20807161.796 0
  10491199.454 7   8174961.583 7  22336385.815 0  22336385.842 0
  -8957998.681 7  -6822924.517 6  20654558.828 0  20654559.312 0
 -18582393.172 7 -14379074.925 7  20413771.161 0  20413772.521 0
 88  3  2  6 42 29.0800000  0  4  6  8 11  9
  -4899283.254 8  -3817622.928 6  20814634.396 0  20814634.252 0
  10585738.769 8   8248628.589 7  22354376.061 0  22354375.552 0
  -8937150.578 7  -6806679.254 7  20658524.667 0  20658526.388 0
 -18628806.285 7 -14415240.987 7  20404939.900 0  20404940.401 0
 88  3  2  6 42 59.0800000  0  4  6  8 11  9
  -4859457.356 8  -3786589.762 7  20822211.360 0  20822211.351 0
  10680447.343 8   8322427.480 7  22372398.403 0  22372398.166 0
  -8915869.648 7  -6790096.723 7  20662574.419 0  20662575.159 0
 -18674729.008 7 -14451024.936 7  20396200.718 0  20396200.231 0
 88  3  2  6 43 29.0800000  0  4  6  8 11  9
  -4819065.687 7  -3755115.748 6  20829897.531 0  20829896.714 0
  10775323.669 8   8396357.098 7  22390452.160 0  22390452.287 0
  -8894156.321 7  -6773177.241 7  20666705.894 0  20666708.412 0
 -18720156.804 7 -14486423.211 7  20387556.233 0  20387556.076 0
 88  3  2  6 43 59.0800000  0  4  6  8 11  9
  -4778108.029 7  -3723200.709 7  20837691.322 0  20837690.205 0
  10870364.872 7   8470415.186 7  22408538.456 0  22408537.675 0
  -8872012.346 7  -6755922.179 6  20670921.070 0  20670922.197 0
 -18765087.008 7 -14521433.767 7  20379006.119 0  20379006.190 0
 88  3  2  6 44 29.0800000  0  4  6  8 11  9
  -4736584.409 7  -3690844.667 7  20845593.261 0  20845594.233 0
  10965568.323 8   8544599.684 8  22426655.239 0  22426655.029 0
  -8849439.368 7  -6738332.829 7  20675216.145 0  20675217.877 0
 -18809516.986 7 -14556054.550 6  20370551.862 0  20370551.804 0
 88  3  2  6 44 59.0800000  0  4  6  8 11  9
  -4694495.037 7  -3658047.777 7  20853604.115 0  20853603.388 0
  11060930.896 7   8618908.185 7  22444801.841 0  22444801.826 0
  -8826439.102 7  -6720410.533 8  20679592.661 0  20679593.620 0
 -18853443.959 7 -14590283.359 7  20362191.443 0  20362193.662 0
 88  3  2  6 45 29.0800000  0  4  6  8 11  9
  -4651840.782 8  -3624810.701 7  20861719.588 0  20861719.993 0
  11156449.327 8   8693338.124 7  22462978.743 0  22462977.526 0
  -8803014.340 7  -6702157.473 7  20684050.103 0  20684050.887 0
 -18896866.433 7 -14624119.026 6  20353929.100 0  20353929.644 0
 88  3  2  6 45 59.0800000  0  4  6  8 11  9
  -4608621.629 7  -3591133.447 7  20869943.376 0  20869944.205 0
  11252120.983 7   8767887.470 8  22481184.000 0  22481184.485 0
  -8779167.169 7  -6683575.256 7  20688589.186 0  20688589.730 0
 -18939781.072 7 -14657559.016 7  20345763.731 0  20345763.244 0
 88  3  2  6 46 29.0800000  0  4  6  8 11  9
  -4564837.177 8  -3557015.709 6  20878275.679 0  20878276.443 0
  11347943.663 8   8842554.478 7  22499418.597 0  22499417.730 0
  -8754898.488 7  -6664664.584 7  20693206.783 0  20693207.981 0
 -18982185.061 7 -14690601.103 7  20337692.774 0  20337694.605 0
 88  3  2  6 46 59.0800000  0  4  6  8 11  9
  -4520488.441 8  -3522458.255 7  20886715.484 0  20886714.734 0
  11443913.735 8   8917336.357 7  22517680.753 0  22517680.744 0
  -8730210.914 7  -6645427.525 6  20697903.597 0  20697905.789 0
 -19024076.442 7 -14723243.724 7  20329722.782 0  20329722.610 0
 88  3  2  6 47 29.0800000  0  4  6  8 11  9
  -4475575.483 8  -3487461.172 6  20895262.121 0  20895261.285 0
  11540028.172 7   8992230.714 7  22535970.419 0  22535970.460 0
  -8705106.163 7  -6625865.373 7  20702682.726 0  20702682.200 0
 -19065452.701 7 -14755484.972 7  20321848.991 0  20321848.948 0
 88  3  2  6 47 59.0800000  0  4  6  8 11  9
  -4430099.580 7  -3452025.413 7  20903916.215 0  20903916.775 0
  11636283.692 7   9067235.004 7  22554287.494 0  22554288.566 0
  -8679587.436 7  -6605980.638 7  20707538.196 0  20707538.819 0
 -19106312.149 6 -14787323.485 7  20314073.519 0  20314074.048 0
 88  3  2  6 48 29.0800000  0  4  6  8 11  9
  -4384060.428 8  -3416150.760 7  20912676.299 0  20912677.081 0
  11732678.136 7   9142347.562 7  22572630.519 0  22572631.855 0
  -8653655.981 7  -6585774.294 7  20712471.948 0  20712473.561 0
 -19146651.459 7 -14818756.706 6  20306397.467 0  20306397.338 0
 88  3  2  6 48 59.0800000  0  4  6  8 11  9
  -4337457.279 8  -3379836.626 7  20921546.370 0  20921545.667 0
  11829209.695 7   9217566.947 7  22590998.650 0  22591001.353 0
  -8627312.601 7  -6565246.988 7  20717484.593 0  20717487.273 0
 -19186467.026 7 -14849781.849 6  20298819.861 0  20298819.848 0
 88  3  2  6 49 29.0800000  0  4  6  8 11  9
  -4290291.585 8  -3343084.149 7  20930520.819 0  20930519.916 0
  11925875.101 7   9292890.620 7  22609394.833 0  22609396.255 0
  -8600560.287 8  -6544401.025 7  20722576.319 0  20722578.108 0
 -19225757.776 7 -14880398.018 6  20291343.523 0  20291345.411 0
 88  3  2  6 49 59.0800000  0  4  6  8 11  9
  -4242564.986 8  -3305894.604 7  20939602.076 0  20939602.557 0
  12022669.775 7   9368315.044 7  22627813.561 0  22627815.012 0
  -8573401.982 7  -6523238.718 7  20727745.057 0  20727746.474 0
 -19264522.326 7 -14910604.147 6  20283967.220 0  20283966.733 0
 88  3  2  6 50 29.0800000  0  4  6  8 11  9
  -4194276.634 7  -3268267.326 7  20948792.169 0  20948792.199 0
  12119592.089 7   9443838.928 7  22646258.195 0  22646258.616 0
  -8545838.954 8  -6501761.010 7  20732989.968 0  20732989.393 0
 -19302757.208 7 -14940397.550 6  20276692.369 0  20276691.625 0
 88  3  2  6 50 59.0800000  0  4  6  8 11  9
  -4145426.745 7  -3230202.498 7  20958086.729 0  20958087.403 0
  12216639.863 8   9519460.575 7  22664725.524 0  22664726.424 0
  -8517872.651 7  -6479969.068 7  20738311.206 0  20738311.504 0
 -19340459.294 7 -14969775.808 7  20269517.467 0  20269517.081 0
 88  3  2  6 51 29.0800000  0  4  6  8 11  9
  -4096015.190 8  -3191699.997 7  20967489.001 0  20967490.076 0
  12313811.191 7   9595178.482 7  22683216.435 0  22683216.791 0
  -8489504.397 7  -6457863.928 7  20743709.574 0  20743710.186 0
 -19377625.768 7 -14998736.701 7  20262444.390 0  20262444.447 0
 88  3  2  6 51 59.0800000  0  4  6  8 11  9
  -4046042.681 8  -3152760.383 6  20976998.246 0  20976999.210 0
  12411102.655 7   9670990.017 8  22701730.819 0  22701730.968 0
  -8460736.596 8  -6435447.461 7  20749183.001 0  20749184.381 0
 -19414254.282 7 -15027278.405 6  20255472.865 0  20255473.810 0
 88  3  2  6 52 29.0800000  0  4  6  8 11  9
  -3995511.531 8  -3113385.475 8  20986615.378 0  20986615.047 0
  12508509.961 7   9746891.812 8  22720265.859 0  22720267.703 0
  -8431573.052 7  -6412722.609 7  20754735.132 0  20754733.829 0
 -19450344.502 7 -15055400.664 6  20248605.984 0  20248605.826 0
 88  3  2  6 52 59.0800000  0  4  6  8 11  9
  -3944421.415 8  -3073575.009 8  20996338.385 0  20996337.267 0
  12606031.179 7   9822882.375 7  22738824.201 0  22738824.257 0
  -8402014.732 7  -6389690.151 7  20760359.366 0  20760360.135 0
 -19485893.397 6 -15083101.100 6  20241841.527 0  20241842.128 0
 88  3  2  6 53 29.0800000  0  4  6  8 11  9
  -3892772.773 8  -3033329.335 7  21006165.987 0  21006166.583 0
  12703663.906 8   9898959.815 7  22757402.198 0  22757403.133 0
  -8372064.144 7  -6366352.036 7  20766057.808 0  20766059.243 0
 -19520897.874 7 -15110377.322 7  20235181.399 0  20235180.855 0
 88  3  2  6 53 59.0800000  0  4  6  8 11  9
  -3840566.143 7  -2992648.858 6  21016099.264 0  21016100.868 0
  12801405.670 7   9975122.230 7  22776003.067 0  22776003.301 0
  -8341722.708 8  -6342709.351 7  20771831.388 0  20771833.101 0
 -19555355.839 7 -15137227.678 6  20228623.324 0  20228623.524 0
 88  3  2  6 54 29.0800000  0  4  6  8 11  9
  -3787803.022 8  -2951534.740 7  21026140.373 0  21026140.787 0
  12899252.802 7  10051366.746 7  22794621.973 0  22794622.823 0
  -8310993.516 8  -6318764.520 7  20777678.939 0  20777680.810 0
 -19589265.734 7 -15163650.972 7  20222170.850 0  20222170.020 0
 88  3  2  6 54 59.0800000  0  4  6  8 11  9
  -3734483.306 8  -2909986.919 7  21036287.530 0  21036286.680 0
  12997203.218 8  10127691.738 7  22813261.635 0  22813262.807 0
  -8279877.881 7  -6294518.572 7  20783599.217 0  20783600.784 0
 -19622624.944 7 -15189645.152 6  20215822.347 0  20215822.119 0
 88  3  2  6 55 29.0800000  0  4  6  8 11  9
  -3680606.807 7  -2868005.261 7  21046539.825 0  21046538.829 0
  13095255.595 8  10204096.199 7  22831921.579 0  22831921.113 0
  -8248376.596 7  -6269972.093 7  20789594.536 0  20789596.077 0
 -19655429.879 7 -15215207.439 7  20209579.375 0  20209580.134 0
 88  3  2  6 55 59.0800000  0  4  6  8 11  9
  -3626175.554 7  -2825591.315 6  21056896.764 0  21056897.399 0
  13193405.563 7  10280576.678 7  22850599.275 0  22850598.666 0
  -8216493.613 7  -6245128.209 7  20795661.754 0  20795662.431 0
 -19687679.733 7 -15240337.204 6  20203444.992 0  20203444.334 0
 88  3  2  6 56 29.0800000  0  4  6  8 11  9
  -3571189.554 7  -2782745.100 7  21067360.647 0  21067361.739 0
  13291651.365 8  10357131.858 7  22869294.170 0  22869293.897 0
  -8184230.045 7  -6219987.756 7  20801801.882 0  20801802.329 0
 -19719371.343 7 -15265031.972 7  20197413.331 0  20197412.079 0
 88  3  2  6 56 59.0800000  0  4  6  8 11  9
  -3515649.813 7  -2739467.382 7  21077928.514 0  21077929.507 0
  13389990.393 8  10433759.685 7  22888006.515 0  22888007.695 0
  -8151588.495 8  -6194552.764 7  20808013.502 0  20808012.254 0
 -19750503.221 7 -15289290.593 6  20191487.865 0  20191488.684 0
 88  3  2  6 57 29.0800000  0  4  6  8 11  9
  -3459557.813 7  -2695759.323 7  21088602.971 0  21088604.507 0
  13488419.240 7  10510457.492 7  22906736.182 0  22906738.062 0
  -8118571.430 7  -6168825.178 7  20814295.308 0  20814295.752 0
 -19781073.249 7 -15313111.382 6  20185671.010 0  20185671.879 0
 88  3  2  6 57 59.0800000  0  4  6  8 11  9
  -3402913.724 8  -2651621.100 7  21099382.656 0  21099383.649 0
  13586935.788 7  10587223.609 8  22925484.443 0  22925485.922 0
  -8085180.500 7  -6142806.288 6  20820648.929 0  20820650.189 0
 -19811078.842 7 -15336492.357 6  20179961.319 0  20179960.972 0
 88  3  2  6 58 29.0800000  0  4  6  8 11  9
  -3345717.852 7  -2607052.902 7  21110266.528 0  21110265.875 0
  13685537.734 7  10664056.275 8  22944247.085 0  22944248.071 0
  -8051417.351 7  -6116497.323 6  20827074.064 0  20827074.650 0
 -19840517.522 7 -15359431.612 6  20174359.350 0  20174359.485 0
 88  3  2  6 58 59.0800000  0  4  6  8 11  9
  -3287972.396 8  -2562056.459 7  21121255.029 0  21121255.277 0
  13784221.682 7  10740952.868 8  22963027.256 0  22963027.763 0
  -8017285.393 7  -6089900.967 7  20833569.592 0  20833569.446 0
 -19869388.348 7 -15381928.358 7  20168865.885 0  20168866.082 0
 88  3  2  6 59 29.0800000  0  4  6  8 11  9
  -3229678.572 8  -2516632.721 6  21132349.588 0  21132348.764 0
  13882984.658 8  10817911.036 7  22981820.634 0  22981820.504 0
  -7982787.072 7  -6063019.154 7  20840134.911 0  20840135.816 0
 -19897689.632 7 -15403981.311 6  20163478.774 0  20163480.251 0
 88  3  2  6 59 59.0800000  0  4  6  8 11  9
  -3170835.327 7  -2470780.833 7  21143545.758 0  21143545.707 0
  13981826.084 7  10894930.316 7  23000629.910 0  23000630.724 0
  -7947922.415 8  -6035851.881 7  20846769.049 0  20846770.126 0
 -19925417.074 7 -15425587.108 6  20158202.437 0  20158203.260 0
 88  3  2  7  0 29.0800000  0  4  6 13 11  9
  -3111444.216 7  -2424502.061 7  21154847.738 0  21154847.633 0
         -.180 8         -.184 7  21368551.375 0          .000 0
  -7912694.269 8  -6008401.378 6  20853471.959 0  20853474.083 0
 -19952569.389 7 -15446744.755 6  20153035.077 0  20153037.195 0
 88  3  2  7  0 59.0800000  0  4  6 13 11  9
  -3051507.754 7  -2377798.344 7  21166253.452 0  21166254.462 0
    -54522.583 8  55529156.055 7  21358205.944 0  21358206.953 0
  -7877106.491 7  -5980670.650 6  20860244.692 0  20860246.626 0
 -19979145.920 7 -15467453.746 7  20147978.988 0  20147978.691 0
 88  3  2  7  1 29.0800000  0  4  6 13 11  9
  -2991025.996 7  -2330669.714 7  21177762.191 0  21177763.574 0
   -108600.205 8  55487017.669 7  21347915.667 0  21347917.821 0
  -7841160.176 7  -5952660.536 7  20867085.988 0  20867085.626 0
 -20005144.078 7 -15487712.063 7  20143031.469 0  20143033.731 0
 88  3  2  7  1 59.0800000  0  4  6 13 11  9
  -2929998.724 7  -2283116.024 7  21189375.917 0  21189375.083 0
   -162231.066 7  55445227.399 6  21337709.435 0  21337711.760 0
  -7804856.509 7  -5924371.947 7  20873994.115 0  20873993.467 0
 -20030560.316 7 -15507516.928 6  20138195.509 0  20138195.900 0
 88  3  2  7  2 29.0800000  0  4  6 13 11  9
  -2868427.979 7  -2235138.828 7  21201092.498 0  21201091.477 0
   -215416.214 8  55403784.458 7  21327588.643 0  21327589.266 0
  -7768198.899 7  -5895807.569 7  20880968.669 0  20880970.425 0
 -20055393.819 7 -15526867.693 7  20133468.796 0  20133469.247 0
 88  3  2  7  2 59.0800000  0  4  6 13 11  9
  -2806316.259 8  -2186740.101 7  21212911.318 0  21212911.698 0
   -268157.337 8  55362687.502 7  21317553.649 0  21317554.529 0
  -7731190.633 7  -5866969.960 6  20888012.558 0  20888012.632 0
 -20079643.730 6 -15545763.736 6  20128854.249 0  20128853.824 0
 88  3  2  7  3 29.0800000  0  4  6 13 11  9
  -2743662.007 8  -2137918.621 7  21224834.423 0  21224834.117 0
   -320451.072 8  55321939.169 7  21307601.985 0  21307602.250 0
  -7693831.007 8  -5837858.575 7  20895121.225 0  20895121.868 0
 -20103305.875 7 -15564201.779 7  20124352.501 0  20124352.641 0
 88  3  2  7  3 59.0800000  0  4  6 13 11  9
  -2680467.233 8  -2088675.952 7  21236860.025 0  21236859.247 0
   -372298.641 8  55281538.485 7  21297735.117 0  21297736.161 0
  -7656123.073 7  -5808475.792 7  20902295.932 0  20902298.564 0
 -20126378.951 7 -15582180.808 7  20119959.722 0  20119962.102 0
 88  3  2  7  4 29.0800000  0  4  6 13 11  9
  -2616734.986 8  -2039014.471 7  21248987.723 0  21248987.689 0
   -423701.241 7  55241484.541 7  21287953.802 0  21287954.669 0
  -7618071.207 7  -5778824.991 7  20909537.174 0  20909539.812 0
 -20148863.156 6 -15599700.968 7  20115682.650 0  20115683.381 0
 88  3  2  7  4 59.0800000  0  4  6 13 11  9
  -2552465.215 7  -1988934.152 7  21261217.975 0  21261218.785 0
   -474657.427 8  55201778.441 6  21278257.164 0  21278256.420 0
  -7579676.524 8  -5748907.057 7  20916842.603 0  20916845.056 0
 -20170755.277 7 -15616759.747 7  20111516.149 0  20111516.568 0
 88  3  2  7  5 29.0800000  0  4  6 13 11  9
  -2487657.721 7  -1938434.812 7  21273550.180 0  21273550.418 0
   -525165.911 8  55162421.200 6  21268645.858 0  21268646.201 0
  -7540939.530 7  -5718722.374 7  20924215.353 0  20924216.153 0
 -20192052.065 7 -15633354.670 6  20107463.725 0  20107464.977 0
 88  3  2  7  5 59.0800000  0  4  6 13 11  9
  -2422314.773 7  -1887518.227 7  21285983.895 0  21285984.648 0
   -575228.007 7  55123411.792 7  21259118.354 0  21259119.999 0
  -7501863.815 7  -5688273.743 7  20931650.431 0  20931652.565 0
 -20212752.763 6 -15649485.084 6  20103524.321 0  20103524.954 0
 88  3  2  7  6 29.0800000  0  4  6 13 11  9
  -2356438.413 7  -1836186.023 6  21298520.234 0  21298520.758 0
   -624844.455 8  55084749.616 7  21249675.196 0  21249679.351 0
  -7462452.112 8  -5657563.329 7  20939149.717 0  20939151.569 0
 -20232856.507 6 -15665150.346 7  20099697.549 0  20099700.128 0
 88  3  2  7  6 59.0800000  0  4  6 13 11  9
  -2290029.387 8  -1784438.751 7  21311158.756 0  21311158.522 0
   -674014.614 7  55046435.239 7  21240319.766 0  21240322.077 0
  -7422706.486 7  -5626592.710 7  20946714.195 0  20946715.740 0
 -20252361.060 7 -15680348.694 7  20095986.005 0  20095987.447 0
 88  3  2  7  7 29.0800000  0  4  6 13 11  9
  -2223087.343 7  -1732276.120 7  21323896.742 0  21323896.393 0
   -722736.609 8  55008470.084 7  21231049.992 0  21231049.606 0
  -7382626.845 7  -5595361.822 7  20954340.898 0  20954342.407 0
 -20271262.618 6 -15695077.176 7  20092391.428 0  20092390.967 0
 88  3  2  7  7 59.0800000  0  4  6 13 11  9
  -2155614.425 7  -1679699.830 7  21336736.193 0  21336736.860 0
   -771012.090 8  54970852.866 7  21221863.855 0  21221864.291 0
  -7342217.027 7  -5563873.665 7  20962031.373 0  20962032.013 0
 -20289560.957 6 -15709335.642 7  20088907.797 0  20088908.753 0
 88  3  2  7  8 29.0800000  0  4  6 13 11  9
  -2087614.067 7  -1626712.563 7  21349675.051 0  21349677.092 0
   -818842.356 8  54933582.546 7  21212760.154 0  21212761.392 0
  -7301481.050 8  -5532131.328 7  20969782.766 0  20969783.412 0
 -20307255.855 6 -15723123.886 6  20085542.761 0  20085542.222 0
 88  3  2  7  8 59.0800000  0  4  6 13 11  9
  -2019085.948 8  -1573314.052 7  21362716.419 0  21362717.545 0
   -866226.008 7  54896660.240 7  21203742.908 0  21203744.983 0
  -7260419.538 7  -5500135.351 7  20977595.717 0  20977597.712 0
 -20324344.080 6 -15736439.380 6  20082289.373 0  20082289.727 0
 88  3  2  7  9 29.0800000  0  4  6 13 11  9
  -1950030.742 8  -1519504.808 7  21375857.566 0  21375858.276 0
   -913162.931 7  54860086.042 7  21194811.911 0  21194812.441 0
  -7219033.957 8  -5467886.840 7  20985472.201 0  20985472.855 0
 -20340823.720 7 -15749280.682 7  20079155.079 0  20079155.398 0
 88  3  2  7  9 59.0800000  0  4  6 13 11  9
  -1880451.181 7  -1465286.967 7  21389098.333 0  21389098.056 0
   -959653.972 7  54823859.286 7  21185964.401 0  21185966.154 0
  -7177327.802 7  -5435388.531 7  20993409.524 0  20993409.337 0
 -20356693.906 6 -15761647.066 7  20076133.933 0  20076134.770 0
 88  3  2  7 10 29.0800000  0  4  6 13 11  9
  -1810347.947 8  -1410661.087 7  21402438.020 0  21402438.258 0
  -1005698.397 7  54787980.550 7  21177202.103 0  21177203.326 0
  -7135302.817 8  -5402641.778 7  21001405.035 0  21001405.710 0
 -20371952.360 6 -15773536.764 7  20073229.509 0  20073229.342 0
 88  3  2  7 10 59.0800000  0  4  6 13 11  9
  -1739722.203 8  -1355628.053 7  21415877.685 0  21415877.537 0
  -1051296.728 7  54752449.410 7  21168524.751 0  21168527.540 0
  -7092961.469 7  -5369648.511 7  21009461.922 0  21009463.999 0
 -20386597.955 6 -15784948.900 6  20070443.745 0  20070442.976 0
 88  3  2  7 11 29.0800000  0  4  6 13 11  9
  -1668575.668 7  -1300189.204 7  21429417.043 0  21429415.949 0
  -1096448.658 7  54717266.120 7  21159933.475 0  21159934.791 0
  -7050305.216 8  -5336409.881 7  21017580.385 0  21017581.357 0
 -20400628.334 7 -15795881.692 7  20067774.142 0  20067772.640 0
 88  3  2  7 11 59.0800000  0  4  6 13 11  9
  -1596909.568 8  -1244345.510 7  21443053.973 0  21443054.040 0
  -1141154.442 7  54682430.467 7  21151424.578 0  21151427.547 0
  -7007336.469 8  -5302927.728 7  21025757.394 0  21025757.425 0
 -20414042.450 7 -15806334.271 6  20065220.810 0  20065220.410 0
 88  3  2  7 12 29.0800000  0  4  6 13 11  9
  -1524726.512 7  -1188098.992 7  21456790.468 0  21456790.806 0
  -1185415.048 7  54647941.699 7  21143002.609 0  21143005.156 0
  -6964058.197 8  -5269204.385 7  21033992.416 0  21033993.188 0
 -20426839.554 6 -15816306.023 6  20062784.326 0  20062787.202 0
 88  3  2  7 12 59.0800000  0  4  6 13 11  9
  -1452027.445 7  -1131450.380 7  21470624.466 0  21470624.733 0
  -1229230.450 7  54613799.863 7  21134665.944 0  21134667.425 0
  -6920472.619 8  -5235241.595 7  21042285.705 0  21042288.308 0
 -20439017.689 7 -15825795.457 6  20060469.141 0  20060468.451 0
 88  3  2  7 13 29.0800000  0  4  6 13 11  9
  -1378813.692 7  -1074400.707 6  21484554.521 0  21484557.793 0
  -1272600.544 7  54580005.027 7  21126412.467 0  21126413.998 0
  -6876581.715 8  -5201040.901 7  21050638.298 0  21050639.585 0
 -20450575.220 6 -15834801.350 6  20058270.744 0  20058268.977 0
 88  3  2  7 13 59.0800000  0  4  6 13 11  9
  -1305087.670 7  -1016951.848 7  21498585.628 0  21498585.752 0
  -1315526.395 7  54546556.343 7  21118243.040 0  21118245.630 0
  -6832388.369 8  -5166604.524 7  21059047.668 0  21059048.389 0
 -20461511.327 6 -15843323.006 6  20056188.444 0  20056186.256 0
 88  3  2  7 14 29.0800000  0  4  6 13 11  9
  -1230849.946 8   -959104.311 7  21512714.567 0  21512712.816 0
  -1358006.809 7  54513454.736 7  21110159.813 0  21110162.081 0
  -6787893.809 8  -5131933.441 7  21067514.312 0  21067516.415 0
 -20471823.831 7 -15851358.752 7  20054225.323 0  20054226.403 0
 88  3  2  7 14 59.0800000  0  4  6 13 11  9
  -1156101.608 8   -900858.869 8  21526937.632 0  21526937.411 0
  -1400042.240 7  54480699.886 7  21102161.304 0  21102163.235 0
  -6743100.269 8  -5097029.380 7  21076038.623 0  21076039.720 0
 -20481510.826 6 -15858907.076 7  20052381.486 0  20052382.599 0
 88  3  2  7 15 29.0800000  0  4  6 13 11  9
  -1080844.913 7   -842217.307 7  21541257.455 0  21541259.224 0
  -1441633.031 7  54448291.514 7  21094246.946 0  21094249.157 0
  -6698010.273 7  -5061894.324 7  21084619.380 0  21084620.425 0
 -20490571.583 6 -15865967.390 6  20050657.808 0  20050659.125 0
 88  3  2  7 15 59.0800000  0  4  6 13 11  9
  -1005081.943 7   -783181.231 7  21555674.681 0  21555675.821 0
  -1482779.977 8  54416228.983 7  21086416.132 0  21086417.892 0
  -6652626.477 8  -5026530.315 6  21093256.119 0  21093256.290 0
 -20499005.047 6 -15872538.904 6  20049053.968 0  20049053.761 0
 88  3  2  7 16 29.0800000  0  4  6 13 11  9
   -928814.463 7   -723752.033 7  21570188.251 0  21570189.519 0
  -1523484.008 7  54384511.575 7  21078671.604 0  21078672.799 0
  -6606951.170 8  -4990939.170 7  21101948.169 0  21101947.317 0
 -20506810.056 7 -15878620.753 6  20047567.003 0  20047567.247 0
 88  3  2  7 16 59.0800000  0  4  6 13 11  9
   -852043.497 8   -663930.500 7  21584797.578 0  21584797.372 0
  -1563744.313 7  54353139.922 7  21071009.317 0  21071011.171 0
  -6560986.124 7  -4955122.251 7  21110695.375 0  21110694.552 0
 -20513984.723 7 -15884211.417 6  20046202.921 0  20046202.342 0
 88  3  2  7 17 29.0800000  0  4  6 13 11  9
   -774771.555 8   -603718.631 7  21599501.260 0  21599502.414 0
  -1603562.207 7  54322113.018 8  21063432.407 0  21063434.424 0
  -6514734.418 8  -4919081.941 7  21119496.286 0  21119496.879 0
 -20520528.689 6 -15889310.641 6  20044958.106 0  20044957.260 0
 88  3  2  7 17 59.0800000  0  4  6 13 11  9
   -696999.811 8   -543117.285 7  21614301.386 0  21614302.668 0
  -1642937.510 8  54291430.997 7  21055939.068 0  21055939.992 0
  -6468197.503 7  -4882819.428 7  21128351.784 0  21128352.770 0
 -20526439.824 7 -15893916.722 6  20043830.624 0  20043832.445 0
 88  3  2  7 18 29.0800000  0  4  6 13 11  9
   -618729.517 7   -482127.461 6  21629195.150 0  21629196.276 0
  -1681870.362 7  54261093.738 7  21048531.092 0  21048531.900 0
  -6421377.221 8  -4846336.100 7  21137260.125 0  21137262.091 0
 -20531716.710 6 -15898028.587 7  20042827.263 0  20042827.732 0
 88  3  2  7 18 59.0800000  0  4  6 13 11  9
   -539963.325 8   -420751.202 7  21644183.586 0  21644185.869 0
  -1720361.709 7  54231100.495 7  21041206.331 0  21041208.241 0
  -6374276.685 7  -4809634.385 7  21146223.592 0  21146224.417 0
 -20536358.931 7 -15901645.914 6  20041945.645 0  20041944.607 0
 88  3  2  7 19 29.0800000  0  4  6 13 11  9
   -460702.568 8   -358989.574 7  21659267.262 0  21659267.787 0
  -1758412.119 8  54201450.847 8  21033965.513 0  21033967.990 0
  -6326897.373 8  -4772715.445 7  21155239.685 0  21155241.527 0
 -20540364.970 7 -15904767.503 6  20041182.878 0  20041181.748 0
 88  3  2  7 19 59.0800000  0  4  6 13 11  9
   -380948.497 8   -296843.554 7  21674444.149 0  21674444.237 0
  -1796020.628 7  54172145.550 7  21026809.687 0  21026809.880 0
  -6279241.346 8  -4735580.862 7  21164308.740 0  21164310.366 0
 -20543733.117 7 -15907392.063 6  20040542.523 0  20040539.339 0
 88  3  2  7 20 29.0800000  0  4  6 13 11  9
   -300704.206 8   -234315.556 7  21689715.312 0  21689713.911 0
  -1833189.128 7  54143183.111 7  21019735.665 0  21019736.789 0
  -6231312.176 8  -4698233.461 8  21173429.662 0  21173430.377 0
 -20546463.591 7 -15909519.694 6  20040022.959 0  20040023.196 0
 88  3  2  7 20 59.0800000  0  4  6 13 11  9
   -219972.014 8   -171407.380 7  21705077.324 0  21705077.540 0
  -1869918.591 7  54114562.761 7  21012746.111 0  21012748.551 0
  -6183112.527 7  -4660675.295 6  21182601.235 0  21182601.874 0
 -20548555.692 7 -15911149.910 7  20039624.959 0  20039624.598 0
 88  3  2  7 21 29.0800000  0  4  6 13 11  9
   -138752.583 8   -108119.536 7  21720532.174 0  21720533.678 0
  -1906208.478 7  54086284.943 7  21005841.797 0  21005841.932 0
  -6134643.488 7  -4622907.213 6  21191824.228 0  21191826.098 0
 -20550007.455 6 -15912281.169 7  20039349.163 0  20039347.736 0
 88  3  2  7 21 59.0800000  0  4  6 13 11  9
    -57047.528 8    -44453.258 7  21736079.669 0  21736080.880 0
  -1942058.802 8  54058349.647 7  20999019.402 0  20999019.996 0
  -6085906.999 7  -4584930.747 7  21201098.241 0  21201100.701 0
 -20550817.274 6 -15912912.186 6  20039192.705 0  20039193.583 0
 88  3  2  7 22 29.0800000  0  4  6 13 11  9
     25142.100 7     19590.595 6  21751721.347 0  21751721.613 0
  -1977469.205 8  54030757.132 7  20992280.445 0  20992281.625 0
  -6036904.411 7  -4546746.906 7  21210422.729 0  21210425.050 0
 -20550983.354 7 -15913041.639 6  20039162.906 0  20039163.431 0
 88  3  2  7 22 59.0800000  0  4  6 13 11  9
    107813.057 8     84009.516 7  21767453.044 0  21767453.575 0
  -2012441.744 7  54003505.824 6  20985626.169 0  20985627.335 0
  -5987639.163 7  -4508358.389 7  21219798.551 0  21219799.524 0
 -20550506.084 7 -15912669.729 7  20039253.930 0  20039253.350 0
 88  3  2  7 23 29.0800000  0  4  6 13 11  9
    190962.707 8    148801.436 7  21783275.834 0  21783275.492 0
  -2046977.723 7  53976594.693 8  20979053.412 0  20979055.008 0
  -5938114.275 8  -4469767.566 6  21229222.102 0  21229223.926 0
 -20549385.321 7 -15911796.412 7  20039465.240 0  20039464.944 0
 88  3  2  7 23 59.0800000  0  4  6 13 11  9
    274590.353 7    213965.813 7  21799188.828 0  21799189.187 0
  -2081076.389 7  53950024.334 8  20972565.553 0  20972566.133 0
  -5888330.638 8  -4430975.116 7  21238696.436 0  21238697.201 0
 -20547618.894 6 -15910419.985 7  20039803.216 0  20039802.247 0
 88  3  2  7 24 29.0800000  0  4  6 13 11  9
    358692.901 8    279500.251 7  21815193.480 0  21815193.882 0
  -2114738.587 7  53923794.070 7  20966158.926 0  20966160.422 0
  -5838290.920 8  -4391983.142 7  21248218.059 0  21248219.456 0
 -20545206.264 6 -15908539.999 6  20040261.145 0  20040260.730 0
 88  3  2  7 24 59.0800000  0  4  6 13 11  9
    443269.831 7    345404.342 8  21831287.937 0  21831287.130 0
  -2147965.422 7  53897903.048 7  20959834.936 0  20959837.819 0
  -5787997.543 7  -4352793.493 7  21257788.593 0  21257790.889 0
 -20542146.890 6 -15906156.086 6  20040841.836 0  20040842.777 0
 88  3  2  7 25 29.0800000  0  4  6 13 11  9
    528317.714 7    411675.395 7  21847471.504 0  21847471.563 0
  -2180757.306 7  53872350.943 7  20953596.085 0  20953596.894 0
  -5737453.181 7  -4313408.285 7  21267407.018 0  21267408.290 0
 -20538439.961 7 -15903267.580 6  20041548.920 0  20041549.737 0
 88  3  2  7 25 59.0800000  0  4  6 13 11  9
    613834.612 8    478311.927 7  21863745.877 0  21863745.063 0
  -2213115.250 8  53847136.996 6  20947438.896 0  20947439.533 0
  -5686660.315 7  -4273829.429 7  21277071.653 0  21277072.415 0
 -20534085.241 7 -15899874.291 6  20042379.193 0  20042377.122 0
 88  3  2  7 26 29.0800000  0  4  6 13 11  9
    699819.307 8    545312.980 7  21880107.551 0  21880107.152 0
  -2245039.151 7  53822261.264 7  20941363.756 0  20941364.193 0
  -5635619.940 8  -4234057.700 7  21286785.176 0  21286786.044 0
 -20529080.870 6 -15895974.806 6  20043329.873 0  20043330.803 0
 88  3  2  7 26 59.0800000  0  4  6 13 11  9
    786269.490 8    612676.740 8  21896558.614 0  21896559.145 0
  -2276529.542 8  53797723.312 7  20935370.995 0  20935370.930 0
  -5584334.522 7  -4194095.028 6  21296544.463 0  21296545.632 0
 -20523426.346 6 -15891568.684 6  20044405.070 0  20044406.129 0
 88  3  2  7 27 29.0800000  0  4  6 13 11  9
    873183.730 8    680402.109 7  21913097.650 0  21913097.508 0
  -2307586.541 7  53773523.085 7  20929460.754 0  20929461.462 0
  -5532805.506 8  -4153942.533 7  21306350.871 0  21306352.479 0
 -20517120.353 7 -15886654.940 6  20045606.483 0  20045606.161 0
 88  3  2  7 27 59.0800000  0  4  6 13 11  9
    960558.916 8    748486.650 7  21929724.401 0  21929724.932 0
  -2338212.279 7  53749658.914 7  20923631.547 0  20923635.131 0
  -5481036.636 8  -4113603.166 8  21316201.337 0  21316203.382 0
 -20510163.368 7 -15881233.913 6  20046929.223 0  20046929.925 0
 88  3  2  7 28 29.0800000  0  4  6 13 11  9
   1048392.101 8    816928.075 8  21946438.739 0  21946439.356 0
  -2368407.528 7  53726130.168 7  20917886.377 0  20917889.389 0
  -5429030.628 7  -4073079.001 7  21326097.689 0  21326099.178 0
 -20502555.521 6 -15875305.718 6  20048378.765 0  20048378.254 0
 88  3  2  7 28 59.0800000  0  4  6 13 11  9
   1136682.558 8    885725.830 7  21963240.392 0  21963240.980 0
  -2398172.314 7  53702936.863 7  20912223.628 0  20912224.064 0
  -5376788.310 8  -4032370.703 7  21336039.353 0  21336041.070 0
 -20494294.498 7 -15868868.567 6  20049950.355 0  20049949.063 0
 88  3  2  7 29 29.0800000  0  4  6 13 11  9
   1225428.087 7    954878.170 8  21980128.229 0  21980128.367 0
  -2427507.028 7  53680078.692 6  20906640.695 0  20906641.076 0
  -5324311.944 8  -3991480.037 7  21346025.234 0  21346027.537 0
 -20485380.210 7 -15861922.385 7  20051646.322 0  20051645.632 0
 88  3  2  7 29 59.0800000  0  4  6 13 11  9
   1314625.315 8   1024382.484 8  21997101.027 0  21997102.023 0
  -2456413.842 7  53657553.925 7  20901139.054 0  20901140.707 0
  -5271604.719 8  -3950409.479 7  21356055.870 0  21356057.786 0
 -20475813.036 6 -15854467.451 7  20053465.542 0  20053466.069 0
 88  3  2  7 30 29.0800000  0  4  6 13 11  9
   1404273.202 7   1094237.972 8  22014159.773 0  22014161.127 0
  -2484892.401 8  53635362.861 6  20895721.608 0  20895720.871 0
  -5218667.927 8  -3909160.029 7  21366128.901 0  21366130.836 0
 -20465591.569 7 -15846502.680 7  20055412.318 0  20055411.770 0
 88  3  2  7 30 59.0800000  0  4  6 13 11  9
   1494369.860 7   1164443.164 7  22031305.483 0  22031305.885 0
  -2512943.062 7  53613505.249 7  20890382.819 0  20890383.170 0
  -5165503.441 8  -3867733.161 7  21376245.428 0  21376247.570 0
 -20454714.727 7 -15838027.239 6  20057482.375 0  20057481.144 0
 88  3  2  7 31 29.0800000  0  4  6 13 11  9
   1584911.467 7   1234995.060 7  22048535.567 0  22048535.111 0
  -2540568.460 7  53591978.980 7  20885125.421 0  20885127.460 0
  -5112114.889 7  -3826131.698 7  21386405.269 0  21386406.231 0
 -20443183.929 7 -15829042.217 7  20059676.717 0  20059675.400 0
 88  3  2  7 31 59.0800000  0  4  6 13 11  9
   1675897.406 8   1305893.193 7  22065849.761 0  22065848.776 0
  -2567767.496 7  53570784.944 7  20879949.715 0  20879951.339 0
  -5058503.027 7  -3784356.227 7  21396607.529 0  21396607.897 0
 -20430996.895 7 -15819545.832 6  20061994.326 0  20061994.476 0
 88  3  2  7 32 29.0800000  0  4  6 13 11  9
   1767325.288 8   1377135.671 7  22083247.413 0  22083247.672 0
  -2594540.954 7  53549922.548 7  20874856.071 0  20874856.063 0
  -5004670.039 7  -3742408.442 7  21406851.355 0  21406852.942 0
 -20418153.457 7 -15809537.955 7  20064438.721 0  20064438.647 0
 88  3  2  7 32 59.0800000  0  4  6 13 11  9
   1859191.551 8   1448719.745 7  22100728.251 0  22100729.269 0
  -2620891.159 7  53529389.945 8  20869841.314 0  20869840.492 0
  -4950619.350 7  -3700291.032 7  21417137.561 0  21417138.386 0
 -20404654.583 7 -15799019.371 6  20067008.069 0  20067007.085 0
 88  3  2  7 33 29.0800000  0  4  6 13 11  9
   1951495.283 8   1520644.742 7  22118293.013 0  22118295.075 0
  -2646817.554 7  53509187.577 7  20864905.616 0  20864908.656 0
  -4896351.802 8  -3658004.636 6  21427463.925 0  21427463.991 0
 -20390498.413 7 -15787988.612 6  20069700.854 0  20069700.851 0
 88  3  2  7 33 59.0800000  0  4  6 13 11  9
   2044233.163 8   1592908.014 7  22135941.019 0  22135941.372 0
  -2672322.628 7  53489313.517 7  20860051.866 0  20860054.491 0
  -4841870.808 8  -3615551.915 7  21437830.927 0  21437830.801 0
 -20375685.786 7 -15776446.308 6  20072521.324 0  20072520.125 0
 88  3  2  7 34 29.0800000  0  4  6 13 11  9
   2137402.735 8   1665507.688 8  22153670.544 0  22153671.426 0
  -2697407.163 7  53469767.143 7  20855279.764 0  20855281.688 0
  -4787178.481 8  -3572934.524 7  21448239.312 0  21448238.756 0
 -20360216.599 7 -15764392.405 6  20075463.004 0  20075464.539 0
 88  3  2  7 34 59.0800000  0  4  6 13 11  9
   2231003.398 8   1738443.250 7  22171483.077 0  22171483.737 0
  -2722070.052 7  53450549.344 7  20850587.851 0  20850588.674 0
  -4732275.322 7  -3530152.839 8  21458686.041 0  21458687.919 0
 -20344088.929 7 -15751825.387 6  20078532.786 0  20078531.624 0
 88  3  2  7 35 29.0800000  0  4  6 13 11  9
   2325031.469 8   1811711.854 7  22189376.463 0  22189375.614 0
  -2746313.635 7  53431658.254 7  20845973.651 0  20845974.731 0
  -4677164.827 8  -3487209.614 7  21469173.252 0  21469174.156 0
 -20327303.781 7 -15738746.061 6  20081727.009 0  20081727.166 0
 88  3  2  7 35 59.0800000  0  4  6 13 11  9
   2419483.342 8   1885310.696 8  22207347.922 0  22207348.202 0
  -2770140.132 7  53413092.184 6  20841439.196 0  20841440.662 0
  -4621850.464 8  -3444107.518 7  21479699.308 0  21479700.680 0
 -20309862.384 6 -15725155.388 6  20085047.170 0  20085044.913 0
 88  3  2  7 36 29.0800000  0  4  6 13 11  9
   2514358.687 8   1959239.554 7  22225403.088 0  22225402.939 0
  -2793548.228 7  53394852.138 7  20836985.446 0  20836986.984 0
  -4566332.249 7  -3400846.576 7  21490264.031 0  21490264.796 0
 -20291762.418 6 -15711051.525 6  20088490.723 0  20088490.118 0
 88  3  2  7 36 59.0800000  0  4  6 13 11  9
   2609655.313 8   2033496.640 8  22243537.606 0  22243538.338 0
  -2816539.012 8  53376937.250 7  20832610.953 0  20832610.946 0
  -4510612.193 7  -3357428.370 7  21500866.820 0  21500867.724 0
 -20273003.603 7 -15696434.283 6  20092058.973 0  20092060.565 0
 88  3  2  7 37 29.0800000  0  4  6 13 11  9
   2705369.484 8   2108079.135 7  22261750.897 0  22261751.742 0
  -2839114.301 8  53359346.113 7  20828313.616 0  20828316.185 0
  -4454693.493 8  -3313855.361 8  21511507.089 0  21511509.464 0
 -20253586.926 7 -15681304.413 6  20095755.390 0  20095754.003 0
 88  3  2  7 37 59.0800000  0  4  6 13 11  9
   2801499.424 7   2182985.566 7  22280043.767 0  22280045.708 0
  -2861274.590 7  53342078.365 7  20824095.824 0  20824098.321 0
  -4398577.857 8  -3270128.893 7  21522186.733 0  21522187.790 0
 -20233512.043 6 -15665661.654 6  20099575.151 0  20099573.831 0
 88  3  2  7 38 29.0800000  0  4  6 13 11  9
   2898042.515 8   2258213.944 8  22298417.220 0  22298415.870 0
  -2883021.864 7  53325132.460 7  20819957.805 0  20819960.303 0
  -4342267.415 8  -3226250.618 7  21532903.123 0  21532903.723 0
 -20212778.925 7 -15649506.009 6  20103519.897 0  20103520.759 0
 88  3  2  7 38 59.0800000  0  4  6 13 11  9
   2994996.473 8   2333762.470 8  22316865.940 0  22316865.963 0
  -2904356.632 7  53308507.983 7  20815898.287 0  20815900.613 0
  -4285764.306 8  -3182222.217 7  21543654.699 0  21543655.642 0
 -20191387.570 7 -15632837.402 7  20107592.120 0  20107591.195 0
 88  3  2  7 39 29.0800000  0  4  6 13 11  9
   3092357.712 7   2409628.367 8  22335393.331 0  22335392.482 0
  -2925280.350 7  53292203.813 7  20811917.298 0  20811918.049 0
  -4229071.870 7  -3138046.283 7  21554443.186 0  21554443.611 0
 -20169338.845 7 -15615656.584 6  20111787.429 0  20111786.706 0
 88  3  2  7 39 59.0800000  0  4  6 13 11  9
   3190125.136 8   2485810.764 7  22353997.764 0  22353997.365 0
  -2945793.573 7  53276219.503 7  20808014.322 0  20808015.331 0
  -4172190.394 8  -3093723.069 8  21565266.766 0  21565268.257 0
 -20146631.843 6 -15597962.823 6  20116109.122 0  20116107.156 0
 88  3  2  7 40 29.0800000  0  4  6 13 11  9
   3288296.231 8   2562307.717 7  22372678.256 0  22372680.096 0
  -2965897.170 7  53260554.364 7  20804187.185 0  20804189.396 0
  -4115122.383 7  -3049254.490 7  21576127.550 0  21576127.899 0
 -20123266.459 7 -15579756.056 6  20120553.399 0  20120555.070 0
 88  3  2  7 40 59.0800000  0  4  6 13 11  9
   3386867.484 8   2639116.493 7  22391436.462 0  22391436.772 0
  -2985592.596 7  53245207.290 7  20800440.351 0  20800441.018 0
  -4057870.918 8  -3004642.949 7  21587021.371 0  21587022.052 0
 -20099243.853 7 -15561037.152 6  20125125.561 0  20125124.782 0
 88  3  2  7 41 29.0800000  0  4  6 13 11  9
   3485836.897 8   2716235.524 7  22410269.183 0  22410269.492 0
  -3004880.353 7  53230177.895 7  20796769.800 0  20796770.767 0
  -4000437.285 8  -2959889.459 7  21597951.525 0  21597951.045 0
 -20074563.636 7 -15541805.818 6  20129822.231 0  20129821.644 0
 88  3  2  7 41 59.0800000  0  4  6 13 11  9
   3585202.132 7   2793662.957 8  22429176.684 0  22429178.660 0
  -3023762.187 8  53215464.823 7  20793177.320 0  20793177.870 0
  -3942823.481 8  -2914995.569 7  21608913.619 0  21608915.159 0
 -20049225.788 7 -15522062.059 6  20134643.566 0  20134642.573 0
 88  3  2  7 42 29.0800000  0  4  6 13 11  9
   3684960.589 8   2871396.817 8  22448160.717 0  22448162.135 0
  -3042239.153 8  53201067.198 7  20789660.721 0  20789661.558 0
  -3885031.724 8  -2869963.026 7  21619911.567 0  21619912.421 0
 -20023230.766 7 -15501806.188 6  20139590.879 0  20139590.174 0
 88  3  2  7 42 59.0800000  0  4  6 13 11  9
   3785109.440 7   2949434.863 8  22467218.879 0  22467219.797 0
  -3060312.267 7  53186984.255 7  20786220.475 0  20786222.343 0
  -3827064.464 8  -2824793.721 7  21630942.405 0  21630943.362 0
 -19996578.954 7 -15481038.556 7  20144661.981 0  20144661.409 0
 88  3  2  7 43 29.0800000  0  4  6 13 11  9
   3885646.387 7   3027775.325 8  22486351.736 0  22486352.668 0
  -3077982.447 7  53173215.280 7  20782858.116 0  20782859.969 0
  -3768923.366 8  -2779488.967 7  21642006.780 0  21642007.019 0
 -19969270.216 7 -15459759.033 6  20149858.596 0  20149858.739 0
 88  3  2  7 43 59.0800000  0  4  6 13 11  9
   3986569.091 8   3106416.378 7  22505556.202 0  22505556.705 0
  -3095250.601 8  53159759.585 7  20779572.095 0  20779574.463 0
  -3710610.323 8  -2734050.230 7  21653102.456 0  21653104.362 0
 -19941304.885 6 -15437967.873 6  20155179.505 0  20155179.931 0
 88  3  2  7 44 29.0800000  0  4  6 13 11  9
   4087874.135 7   3185355.380 7  22524833.860 0  22524833.869 0
  -3112118.834 8  53146615.540 7  20776363.659 0  20776362.851 0
  -3652128.025 7  -2688479.607 7  21664231.234 0  21664232.695 0
 -19912683.941 7 -15415665.867 6  20160626.108 0  20160627.214 0
 88  3  2  7 44 59.0800000  0  4  6 13 11  9
   4189559.563 7   3264590.774 8  22544182.735 0  22544183.367 0
  -3128588.226 7  53133782.275 7  20773229.331 0  20773229.681 0
  -3593478.037 8  -2642778.313 7  21675392.908 0  21675393.783 0
 -19883407.316 7 -15392852.908 6  20166198.661 0  20166198.826 0
 88  3  2  7 45 29.0800000  0  4  6 13 11  9
   4291622.849 7   3344120.574 7  22563604.867 0  22563605.376 0
  -3144658.994 7  53121259.615 7  20770170.339 0  20770172.207 0
  -3534662.288 8  -2596947.846 7  21686583.787 0  21686584.652 0
 -19853475.394 7 -15369529.338 6  20171893.748 0  20171894.692 0
 88  3  2  7 45 59.0800000  0  4  6 13 11  9
   4394060.656 7   3423942.218 8  22583097.684 0  22583099.067 0
  -3160333.188 7  53109045.974 7  20767187.974 0  20767189.112 0
  -3475683.592 7  -2550990.429 6  21697807.431 0  21697807.226 0
 -19822888.968 7 -15345695.764 6  20177713.428 0  20177713.432 0
 88  3  2  7 46 29.0800000  0  4  6 13 11  9
   4496871.153 8   3504054.306 7  22602662.635 0  22602662.552 0
  -3175611.575 7  53097140.749 7  20764281.061 0  20764281.684 0
  -3416543.125 7  -2504906.946 7  21709060.655 0  21709063.230 0
 -19791648.013 7 -15321352.185 6  20183658.239 0  20183658.265 0
 88  3  2  7 46 59.0800000  0  4  6 13 11  9
   4600051.454 8   3584454.533 8  22622297.072 0  22622297.696 0
  -3190495.455 7  53085542.927 7  20761447.598 0  20761449.494 0
  -3357243.127 8  -2458699.173 7  21720345.159 0  21720347.462 0
 -19759752.886 7 -15296498.848 6  20189729.209 0  20189728.423 0
 88  3  2  7 47 29.0800000  0  4  6 13 11  9
   4703599.702 8   3665141.454 8  22642001.616 0  22642002.806 0
  -3204985.214 7  53074252.201 7  20758690.917 0  20758692.283 0
  -3297784.768 7  -2412367.987 7  21731660.943 0  21731662.152 0
 -19727203.494 7 -15271135.707 6  20195922.814 0  20195923.204 0
 88  3  2  7 47 59.0800000  0  4  6 13 11  9
   4807512.467 8   3746112.415 7  22661775.825 0  22661776.993 0
  -3219082.913 8  53063267.011 7  20756009.160 0  20756010.311 0
  -3238171.196 8  -2365915.828 7  21743005.271 0  21743006.311 0
 -19694001.422 6 -15245263.971 7  20202241.714 0  20202240.697 0
 88  3  2  7 48 29.0800000  0  4  3 13 11  9
         -.148 8         -.085 7  24071439.572 0          .000 0
  -3232790.696 7  53052585.634 7  20753400.348 0  20753401.296 0
  -3178404.560 8  -2319344.419 7  21754377.666 0  21754379.326 0
 -19660147.889 6 -15218884.591 6  20208682.867 0  20208682.987 0
 88  3  2  7 48 59.0800000  0  4  3 13 11  9
    -77382.841 7  84570480.761 7  24056740.169 0  24056740.799 0
  -3246108.591 7  53042208.060 6  20750865.918 0  20750866.995 0
  -3118485.597 7  -2272654.310 7  21765780.060 0  21765780.107 0
 -19625642.264 7 -15191997.106 5  20215248.289 0  20215246.741 0
 88  3  2  7 49 29.0800000  0  4  3 13 11  9
   -154540.544 8  84510357.888 8  24042057.421 0  24042058.158 0
  -3259039.208 7  53032132.263 7  20748404.694 0  20748404.784 0
  -3058417.952 7  -2225848.344 7  21777209.967 0  21777211.416 0
 -19590486.856 6 -15164603.309 6  20221938.132 0  20221939.201 0
 88  3  2  7 49 59.0800000  0  4  3 13 11  9
   -231472.005 7  84450411.335 7  24027418.287 0  24027420.190 0
  -3271583.089 7  53022357.824 7  20746018.536 0  20746018.239 0
  -2998203.215 7  -2178927.796 7  21788669.076 0  21788670.861 0
 -19554681.625 7 -15136703.130 7  20228751.611 0  20228752.131 0
 88  3  2  7 50 29.0800000  0  4  3 13 11  9
   -308175.478 8  84390642.419 7  24012821.258 0  24012822.531 0
  -3283740.535 7  53012884.522 7  20743703.937 0  20743705.358 0
  -2937842.098 8  -2131893.162 8  21800155.490 0  21800156.964 0
 -19518225.829 7 -15108296.036 7  20235688.066 0  20235691.033 0
 88  3  2  7 50 59.0800000  0  4  3 13 11  9
   -384650.480 8  84331051.518 8  23998268.638 0  23998270.505 0
  -3295512.846 7  53003711.296 6  20741462.588 0  20741466.169 0
  -2877335.816 8  -2084745.413 7  21811669.682 0  21811670.036 0
 -19481120.298 6 -15079382.635 7  20242751.072 0  20242750.208 0
 88  3  2  7 51 29.0800000  0  4  3 13 11  9
   -460899.482 7  84271636.734 7  23983759.059 0  23983762.099 0
  -3306903.162 7  52994835.744 7  20739295.675 0  20739298.011 0
  -2816689.167 7  -2037488.274 8  21823210.503 0  21823211.612 0
 -19443367.629 6 -15049965.000 6  20249934.476 0  20249932.978 0
 88  3  2  7 51 59.0800000  0  4  3 13 11  9
   -536921.692 8  84212398.682 7  23969292.909 0  23969293.976 0
  -3317912.777 8  52986256.849 7  20737202.168 0  20737202.487 0
  -2755903.707 7  -1990122.992 7  21834777.396 0  21834778.154 0
 -19404968.638 6 -15020043.719 6  20257241.550 0  20257242.109 0
 88  3  2  7 52 29.0800000  0  4  3 13 11  9
   -612714.658 8  84153339.241 8  23954869.723 0  23954870.374 0
  -3328541.691 8  52977974.588 7  20735179.493 0  20735179.824 0
  -2694979.594 8  -1942649.655 7  21846371.265 0  21846371.147 0
 -19365922.556 6 -14989618.222 7  20264671.747 0  20264672.976 0
 88  3  2  7 52 59.0800000  0  4  3 13 11  9
   -688278.273 8  84094458.525 8  23940490.000 0  23940492.283 0
  -3338790.556 8  52969988.476 7  20733228.333 0  20733229.482 0
  -2633918.892 8  -1895069.887 7  21857990.160 0  21857991.309 0
 -19326230.135 7 -14958689.069 7  20272224.786 0  20272225.095 0
 88  3  2  7 53 29.0800000  0  4  3 13 11  9
   -763613.537 7  84035755.761 7  23926153.656 0  23926156.175 0
  -3348661.896 7  52962296.529 7  20731350.738 0  20731350.426 0
  -2572724.542 8  -1847385.979 7  21869634.781 0  21869635.542 0
 -19285893.375 7 -14927257.845 6  20279901.023 0  20279901.311 0
 88  3  2  7 53 59.0800000  0  4  3 13 11  9
   -838720.219 8  83977231.060 7  23911863.123 0  23911863.609 0
  -3358157.993 8  52954896.977 7  20729543.343 0  20729543.204 0
  -2511398.975 8  -1799599.825 7  21881304.889 0  21881305.526 0
 -19244913.759 7 -14895325.689 6  20287699.013 0  20287698.575 0
 88  3  2  7 54 29.0800000  0  4  3 13 11  9
   -913597.662 7  83918885.026 8  23897613.936 0  23897614.594 0
  -3367279.290 7  52947789.479 7  20727807.123 0  20727807.298 0
  -2449943.214 8  -1751712.224 7  21892999.924 0  21893000.643 0
 -19203291.539 7 -14862892.815 7  20295619.905 0  20295620.190 0
 88  3  2  7 54 59.0800000  0  4  3 13 11  9
   -988245.054 8  83860718.240 7  23883408.750 0  23883410.209 0
  -3376027.453 7  52940972.738 7  20726141.704 0  20726143.768 0
  -2388359.272 7  -1703724.737 7  21904718.984 0  21904720.554 0
 -19161027.359 7 -14829959.703 6  20303660.805 0  20303661.933 0
 88  3  2  7 55 29.0800000  0  4  3 13 11  9
  -1062662.176 7  83802730.890 7  23869245.819 0  23869249.282 0
  -3384403.261 7  52934446.150 7  20724549.419 0  20724549.781 0
  -2326648.618 8  -1655638.504 7  21916461.872 0  21916462.421 0
 -19118122.168 7 -14796527.099 7  20311826.384 0  20311827.230 0
 88  3  2  7 55 59.0800000  0  4  3 13 11  9
  -1136848.736 6  83744923.189 7  23855129.486 0  23855131.553 0
  -3392407.959 8  52928208.740 7  20723025.362 0  20723026.510 0
  -2264813.069 8  -1607454.963 8  21928229.198 0  21928229.716 0
 -19074577.076 7 -14762595.871 7  20320113.631 0  20320113.364 0
 88  3  2  7 56 29.0800000  0  4  3 13 11  9
  -1210805.069 6  83687294.893 8  23841056.832 0  23841058.241 0
  -3400043.405 8  52922259.054 7  20721572.106 0  20721573.840 0
  -2202854.994 8  -1559175.948 7  21940019.106 0  21940020.530 0
 -19030393.250 7 -14728166.926 7  20328521.686 0  20328520.586 0
 88  3  2  7 56 59.0800000  0  4  3 13 11  9
  -1284530.410 6  83629846.614 7  23827028.807 0  23827029.752 0
  -3407311.203 7  52916595.855 7  20720189.694 0  20720191.658 0
  -2140775.923 8  -1510802.638 7  21951832.611 0  21951832.443 0
 -18985572.068 7 -14693241.369 7  20337049.195 0  20337050.228 0
 88  3  2  7 57 29.0800000  0  4  3 13 11  9
  -1358025.008 6  83572578.106 7  23813039.111 0  23813041.865 0
  -3414212.913 7  52911217.898 7  20718876.339 0  20718877.272 0
  -2078577.998 7  -1462336.728 7  21963669.163 0  21963668.877 0
 -18940114.536 7 -14657819.925 6  20345700.056 0  20345701.267 0
 88  3  2  7 57 59.0800000  0  4  3 13 11  9
  -1431288.393 6  83515489.814 8  23799100.340 0  23799101.142 0
  -3420749.306 7  52906124.624 6  20717632.255 0  20717634.061 0
  -2016263.280 8  -1413779.810 7  21975526.762 0  21975527.105 0
 -18894021.713 6 -14621903.460 6  20354472.228 0  20354472.125 0
 88  3  2  7 58 29.0800000  0  4  3 13 11  9
  -1504319.792 6  83458582.288 7  23785200.949 0  23785204.447 0
  -3426921.864 8  52901314.849 7  20716457.498 0  20716458.875 0
  -1953832.923 8  -1365132.779 7  21987406.879 0  21987407.330 0
 -18847294.497 7 -14585492.657 7  20363363.054 0  20363365.252 0
 88  3  2  7 58 59.0800000  0  4  3 13 11  9
  -1577120.190 6  83401854.713 7  23771350.015 0  23771350.330 0
  -3432733.081 8  52896786.656 7  20715352.885 0  20715352.230 0
  -1891290.088 7  -1316398.134 7  21999307.344 0  21999308.635 0
 -18799935.445 7 -14548589.517 7  20372375.623 0  20372376.451 0
 88  3  2  7 59 29.0800000  0  4  3 13 11  9
  -1649688.374 7  83345308.122 7  23757542.224 0  23757540.329 0
  -3438183.097 7  52892539.898 7  20714315.211 0  20714315.672 0
  -1828634.889 8  -1267575.907 7  22011230.682 0  22011231.194 0
 -18751944.133 6 -14511193.701 7  20381507.340 0  20381507.726 0
 88  3  2  7 59 59.0800000  0  4  3 13 11  9
  -1722024.790 7  83288942.064 6  23743773.877 0  23743776.187 0
  -3443274.467 7  52888572.607 7  20713346.049 0  20713346.053 0
  -1765869.944 8  -1218668.147 6  22023174.930 0  22023175.301 0
 -18703322.503 7 -14473306.730 7  20390760.486 0  20390761.171 0
 88  3  2  8  0 29.0800000  0  4  3 13 11  9
  -1794127.939 7  83232757.859 6  23730052.727 0  23730055.510 0
  -3448007.365 7  52884884.664 7  20712445.671 0  20712445.918 0
  -1702995.715 7  -1169675.248 7  22035137.546 0  22035139.790 0
 -18654071.082 7 -14434929.016 7  20400131.991 0  20400133.417 0
 88  3  2  8  0 59.0800000  0  4  3 13 11  9
  -1865999.361 7  83176754.101 6  23716377.947 0  23716377.876 0
  -3452384.951 7  52881473.565 7  20711612.432 0  20711613.237 0
  -1640016.197 8  -1120600.300 7  22047122.561 0  22047124.089 0
 -18604192.593 7 -14396062.670 6  20409625.044 0  20409624.277 0
 88  3  2  8  1 29.0800000  0  4  3 13 11  9
  -1937639.554 7  83120930.615 6  23702746.038 0  23702745.459 0
  -3456409.533 7  52878337.516 7  20710845.845 0  20710846.464 0
  -1576933.846 8  -1071445.235 7  22059127.201 0  22059128.474 0
 -18553689.309 7 -14356709.460 7  20419234.203 0  20419235.607 0
 88  3  2  8  1 59.0800000  0  4  3 13 11  9
  -2009046.009 7  83065289.226 6  23689154.844 0  23689156.626 0
  -3460079.901 7  52875477.513 7  20710148.544 0  20710149.062 0
  -1513747.360 8  -1022209.014 7  22071152.070 0  22071153.862 0
 -18502559.743 7 -14316868.263 6  20428964.210 0  20428964.738 0
 88  3  2  8  2 29.0800000  0  4  3 13 11  9
  -2080218.345 7  83009830.279 6  23675612.417 0  23675614.013 0
  -3463397.717 8  52872892.224 7  20709517.465 0  20709517.139 0
  -1450458.753 8   -972893.221 7  22083196.074 0  22083197.622 0
 -18450805.353 7 -14276540.171 7  20438812.121 0  20438812.703 0
 88  3  2  8  2 59.0800000  0  4  3 13 11  9
  -2151157.929 7  82954552.676 7  23662113.004 0  23662115.171 0
  -3466365.945 7  52870579.339 7  20708951.923 0  20708952.184 0
  -1387071.236 8   -923500.356 7  22095258.097 0  22095259.291 0
 -18398429.139 7 -14235727.556 7  20448779.885 0  20448779.461 0
 88  3  2  8  3 29.0800000  0  4  3 13 11  9
  -2221865.959 8  82899455.533 7  23648658.242 0  23648660.431 0
  -3468986.296 7  52868537.501 6  20708451.444 0  20708452.793 0
  -1323587.103 8   -874032.206 7  22107339.115 0  22107338.932 0
 -18345433.322 7 -14194432.140 7  20458863.776 0  20458866.139 0
 88  3  2  8  3 59.0800000  0  4  3 13 11  9
  -2292340.833 8  82844540.037 7  23635247.037 0  23635247.859 0
  -3471259.955 7  52866765.821 7  20708018.991 0  20708021.313 0
  -1260007.474 8   -824489.652 7  22119436.156 0  22119437.390 0
 -18291818.511 7 -14152654.381 7  20469068.753 0  20469068.679 0
 88  3  2  8  4 29.0800000  0  4  3 13 11  9
  -2362581.199 7  82789807.316 7  23621881.622 0  23621882.637 0
  -3473187.354 7  52865263.969 7  20707651.989 0  20707654.453 0
  -1196332.884 7   -774873.092 7  22131552.489 0  22131554.851 0
 -18237585.104 7 -14110394.593 7  20479387.840 0  20479388.052 0
 88  3  2  8  4 59.0800000  0  4  3 13 11  9
  -2432588.342 8  82735256.278 6  23608558.375 0  23608558.969 0
  -3474770.754 7  52864030.140 7  20707351.639 0  20707353.015 0
  -1132566.011 8   -725184.621 7  22143687.940 0  22143689.481 0
 -18182735.893 7 -14067654.947 6  20489823.973 0  20489825.359 0
 88  3  2  8  5 29.0800000  0  4  3 13 11  9
  -2502362.741 7  82680886.639 7  23595281.727 0  23595282.249 0
  -3476012.504 7  52863062.549 7  20707116.868 0  20707117.915 0
  -1068709.161 8   -675426.050 7  22155839.653 0  22155840.844 0
 -18127272.616 7 -14024436.819 6  20500379.066 0  20500379.601 0
 88  3  2  8  5 59.0800000  0  4  3 13 11  9
  -2571903.688 7  82626698.897 7  23582048.665 0  23582048.493 0
  -3476913.644 7  52862360.392 7  20706946.044 0  20706946.376 0
  -1004763.379 7   -625598.166 7  22168007.789 0  22168008.626 0
 -18071196.317 7 -13980741.000 6  20511050.739 0  20511050.183 0
 88  3  2  8  6 29.0800000  0  4  3 13 11  9
  -2641211.264 7  82572693.014 7  23568859.846 0  23568860.597 0
  -3477476.353 7  52861921.921 7  20706838.052 0  20706838.657 0
   -940730.682 8   -575702.564 7  22180193.801 0  22180195.350 0
 -18014509.319 7 -13936569.341 6  20521838.030 0  20521838.404 0
 88  3  2  8  6 59.0800000  0  4  3 13 11  9
  -2710284.909 7  82518869.373 8  23555713.762 0  23555716.395 0
  -3477700.749 7  52861747.068 7  20706794.408 0  20706796.129 0
   -876611.899 8   -525739.883 7  22192394.284 0  22192395.893 0
 -17957212.053 7 -13891922.119 6  20532741.824 0  20532741.715 0
 88  3  2  8  7 29.0800000  0  4  3 13 11  9
  -2779123.787 7  82465228.721 7  23542615.857 0  23542615.672 0
  -3477587.559 7  52861835.278 7  20706815.285 0  20706817.507 0
   -812407.898 7   -475710.809 8  22204612.577 0  22204613.407 0
 -17899305.453 7 -13846800.119 6  20543759.884 0  20543761.008 0
 88  3  2  8  7 59.0800000  0  4  3 13 11  9
  -2847729.212 7  82411769.946 7  23529560.172 0  23529562.540 0
  -3477140.648 7  52862183.532 7  20706901.799 0  20706903.161 0
   -748122.095 8   -425617.975 7  22216845.913 0  22216847.097 0
 -17840792.982 7 -13801205.973 6  20554894.906 0  20554895.695 0
 88  3  2  8  8 29.0800000  0  4  3 13 11  9
  -2916102.404 6  82358492.169 7  23516548.801 0  23516550.197 0
  -3476362.375 7  52862789.976 7  20707049.269 0  20707050.459 0
   -683757.143 8   -375463.481 7  22229093.136 0  22229095.451 0
 -17781678.052 7 -13755142.413 7  20566143.863 0  20566145.113 0
 88  3  2  8  8 59.0800000  0  4  3 13 11  9
  -2984241.720 7  82305396.615 8  23503583.707 0  23503584.265 0
  -3475252.497 8  52863654.822 7  20707260.415 0  20707261.892 0
   -619313.276 8   -325247.500 7  22241356.232 0  22241358.736 0
 -17721960.008 7 -13708608.867 7  20577508.609 0  20577506.890 0
 88  3  2  8  9 29.0800000  0  4  3 13 11  9
  -3052146.167 7  82252484.080 8  23490661.140 0  23490662.227 0
  -3473812.174 8  52864777.173 7  20707535.208 0  20707536.113 0
   -554790.957 8   -274970.376 7  22253635.003 0  22253637.186 0
 -17661640.062 7 -13661606.318 7  20588986.394 0  20588985.866 0
 88  3  2  8  9 59.0800000  0  4  3 13 11  9
  -3119816.980 6  82199753.590 7  23477782.624 0  23477784.304 0
  -3472044.135 8  52866154.876 7  20707871.545 0  20707873.123 0
   -490193.073 8   -224634.373 7  22265927.748 0  22265929.558 0
 -17600720.961 7 -13614136.903 7  20600578.617 0  20600578.845 0
 88  3  2  8 10 29.0800000  0  4  3 13 11  9
  -3187254.747 7  82147204.671 7  23464949.939 0  23464951.041 0
  -3469949.852 7  52867786.791 6  20708270.585 0  20708270.460 0
   -425521.497 7   -174240.935 7  22278234.672 0  22278236.124 0
 -17539205.152 7 -13566202.505 6  20612285.081 0  20612285.226 0
 88  3  2  8 10 59.0800000  0  4  3 13 11  9
  -3254459.305 6  82094837.504 7  23452161.335 0  23452162.537 0
  -3467531.353 7  52869671.335 7  20708731.098 0  20708731.559 0
   -360777.560 8   -123791.115 7  22290555.309 0  22290555.563 0
 -17477094.274 7 -13517804.439 7  20624104.938 0  20624104.285 0
 88  3  2  8 11 29.0800000  0  4  3 13 11  9
  -3321430.141 7  82042652.457 7  23439416.710 0  23439418.820 0
  -3464789.552 7  52871807.812 7  20709252.267 0  20709252.357 0
   -295962.324 8    -73285.754 7  22302887.886 0  22302891.060 0
 -17414389.466 8 -13468943.556 6  20636037.122 0  20636037.300 0
 88  3  2  8 11 59.0800000  0  4  3 13 11  9
  -3388167.626 7  81990649.239 7  23426716.778 0  23426719.154 0
  -3461726.431 7  52874194.655 7  20709834.822 0  20709835.799 0
   -231077.551 7    -22726.191 6  22315236.487 0  22315238.387 0
 -17351092.891 7 -13419621.570 6  20648081.627 0  20648082.684 0
 88  3  2  8 12 29.0800000  0  4  3 13 11  9
  -3454671.340 7  81938828.176 7  23414063.160 0  23414065.199 0
  -3458343.016 7  52876831.069 7  20710478.850 0  20710480.485 0
   -166124.734 8     27886.393 7  22327595.776 0  22327596.667 0
 -17287206.434 7 -13369839.922 6  20660238.487 0  20660239.383 0
 88  3  2  8 12 59.0800000  0  4  3 13 11  9
  -3520941.705 7  81887188.947 7  23401452.554 0  23401453.384 0
  -3454641.292 8  52879715.528 7  20711182.834 0  20711183.639 0
   -101105.516 7     78550.724 7  22339968.090 0  22339969.299 0
 -17222732.160 7 -13319600.237 7  20672507.149 0  20672508.041 0
 88  3  2  8 13 29.0800000  0  4  3 13 11  9
  -3586978.226 7  81835731.943 7  23388886.637 0  23388886.193 0
  -3450622.250 8  52882847.256 6  20711948.532 0  20711947.835 0
    -36021.274 8    129265.710 6  22352353.905 0  22352354.481 0
 -17157671.931 7 -13268903.955 7  20684889.396 0  20684888.500 0
 88  3  2  8 13 59.0800000  0  4  3 13 11  9
  -3652781.880 7  81784456.369 7  23376362.888 0  23376365.234 0
  -3446288.978 7  52886223.837 7  20712772.341 0  20712772.015 0
     29126.014 8    180029.832 7  22364751.214 0  22364751.178 0
 -17092028.177 7 -13217753.001 7  20697379.442 0  20697380.013 0
 88  3  2  8 14 29.0800000  0  4  3 13 11  9
  -3718352.672 7  81733362.253 7  23363885.272 0  23363886.174 0
  -3441642.378 7  52889844.572 6  20713656.677 0  20713656.953 0
     94334.742 8    230841.834 7  22377159.816 0  22377160.482 0
 -17025803.032 7 -13166149.023 6  20709982.237 0  20709982.715 0
 88  3  2  8 14 59.0800000  0  4  3 13 11  9
  -3783690.145 7  81682449.959 7  23351452.751 0  23351454.591 0
  -3436683.644 8  52893708.517 6  20714599.768 0  20714600.557 0
    159604.009 7    281700.998 7  22389579.043 0  22389580.960 0
 -16958997.883 7 -13114093.069 6  20722694.412 0  20722695.491 0
 88  3  2  8 15 29.0800000  0  4  3 13 11  9
  -3848794.130 8  81631719.581 7  23339063.567 0  23339065.448 0
  -3431414.984 7  52897813.957 7  20715602.684 0  20715603.146 0
    224931.997 7    332605.904 7  22402010.547 0  22402013.263 0
 -16891615.074 6 -13061587.000 7  20735515.606 0  20735518.441 0
 88  3  2  8 15 59.0800000  0  4  3 13 11  9
  -3913666.199 7  81581169.967 7  23326719.034 0  23326719.863 0
  -3425838.832 8  52902159.009 7  20716663.267 0  20716664.887 0
    290316.782 7    383555.085 7  22414454.758 0  22414455.584 0
 -16823657.739 7 -13008633.253 7  20748448.922 0  20748449.038 0
 88  3  2  8 16 29.0800000  0  4  3 13 11  9
  -3978305.871 7  81530801.390 7  23314416.770 0  23314419.553 0
  -3419956.219 7  52906742.866 7  20717782.503 0  20717783.780 0
    355756.907 8    434547.386 7  22426907.629 0  22426907.711 0
 -16755127.206 7 -12955232.842 7  20761489.998 0  20761490.886 0
 88  3  2  8 16 59.0800000  0  4  3 13 11  9
  -4042712.292 7  81480614.584 6  23302160.975 0  23302162.342 0
  -3413767.779 7  52911565.015 6  20718960.421 0  20718962.141 0
    421252.104 8    485582.602 7  22439370.223 0  22439372.423 0
 -16686024.893 7 -12901386.898 6  20774639.550 0  20774640.629 0
 88  3  2  8 17 29.0800000  0  4  3 13 11  9
  -4106886.022 7  81430609.118 7  23289949.338 0  23289951.327 0
  -3407275.974 8  52916623.557 7  20720194.989 0  20720197.855 0
    486800.100 8    536658.962 7  22451842.892 0  22451845.403 0
 -16616353.015 7 -12847097.140 7  20787897.181 0  20787899.626 0
 88  3  2  8 17 59.0800000  0  4  3 13 11  9
  -4170827.144 7  81380784.877 7  23277783.234 0  23277783.763 0
  -3400482.356 7  52921917.304 6  20721488.726 0  20721489.831 0
    552399.682 7    587775.499 7  22464326.664 0  22464327.641 0
 -16546114.453 7 -12792365.800 7  20801263.171 0  20801264.378 0
 88  3  2  8 18 29.0800000  0  4  3 13 11  9
  -4234536.669 7  81331141.093 7  23265659.256 0  23265660.621 0
  -3393389.272 7  52927444.386 7  20722839.198 0  20722839.588 0
    618048.676 7    638930.547 7  22476819.512 0  22476821.214 0
 -16475311.823 7 -12737194.941 7  20814736.624 0  20814737.237 0
 88  3  2  8 18 59.0800000  0  4  3 13 11  9
  -4298014.867 8  81281677.590 7  23253580.472 0  23253580.737 0
  -3385998.072 8  52933203.766 7  20724246.292 0  20724245.467 0
    683745.958 7    690123.235 7  22489321.671 0  22489323.352 0
 -16403947.095 7 -12681586.078 7  20828318.189 0  20828317.519 0
 88  3  2  8 19 29.0800000  0  4  3 13 11  9
  -4361261.467 7  81232394.541 7  23241543.522 0  23241545.468 0
  -3378309.783 8  52939194.643 7  20725707.690 0  20725707.922 0
    749490.548 7    741352.785 7  22501831.793 0  22501832.791 0
 -16332021.680 7 -12625540.319 7  20842004.655 0  20842005.609 0
 88  3  2  8 19 59.0800000  0  4  3 13 11  9
  -4424276.249 7  81183292.121 7  23229552.519 0  23229553.706 0
  -3370326.501 7  52945415.384 7  20727226.725 0  20727227.988 0
    815280.824 7    792617.925 7  22514350.881 0  22514353.077 0
 -16259539.067 7 -12569060.369 7  20855797.643 0  20855798.439 0
 88  3  2  8 20 29.0800000  0  4  3 13 11  9
  -4487058.835 7  81134370.652 7  23217605.316 0  23217606.732 0
  -3362049.412 7  52951865.054 8  20728800.936 0  20728803.830 0
    881116.108 7    843918.138 7  22526879.075 0  22526880.081 0
 -16186500.042 7 -12512146.848 7  20869695.868 0  20869696.335 0
 88  3  2  8 20 59.0800000  0  4  3 13 11  9
  -4549609.457 7  81085629.916 7  23205702.329 0  23205703.037 0
  -3353479.587 7  52958542.846 7  20730432.227 0  20730435.078 0
    946995.330 7    895252.582 7  22539414.990 0  22539416.164 0
 -16112907.048 7 -12454801.661 6  20883699.726 0  20883701.083 0
 88  3  2  8 21 29.0800000  0  4  3 13 11  9
  -4611929.950 7  81037068.530 7  23193844.108 0  23193844.480 0
  -3344620.596 7  52965445.962 7  20732119.294 0  20732120.328 0
   1012915.337 7    946618.814 7  22551959.466 0  22551961.612 0
 -16038763.994 8 -12397027.863 6  20897809.312 0  20897810.273 0
 88  3  2  8 21 59.0800000  0  4  3 13 11  9
  -4674020.825 8  80988686.053 7  23182027.470 0  23182028.128 0
  -3335474.504 7  52972572.805 7  20733860.022 0  20733860.469 0
   1078874.366 7    998015.456 8  22564511.035 0  22564513.009 0
 -15964073.460 7 -12338827.466 7  20912022.328 0  20912023.518 0
 88  3  2  8 22 29.0800000  0  4  3 13 11  9
  -4735881.880 7  80940482.637 7  23170254.932 0  23170258.774 0
  -3326042.440 7  52979922.481 7  20735654.694 0  20735654.756 0
   1144871.901 8   1049442.103 8  22577070.684 0  22577072.348 0
 -15888837.375 7 -12280201.947 7  20926340.334 0  20926340.747 0
 88  3  2  8 22 59.0800000  0  4  3 13 11  9
  -4797511.863 7  80892459.265 7  23158527.640 0  23158530.495 0
  -3316324.817 7  52987494.650 7  20737503.356 0  20737505.277 0
   1210907.769 8   1100898.627 7  22589635.880 0  22589636.924 0
 -15813056.798 8 -12221152.161 6  20940760.858 0  20940759.834 0
 88  3  2  8 23 29.0800000  0  4  3 13 11  9
  -4858912.589 7  80844614.562 7  23146844.163 0  23146844.027 0
  -3306324.510 7  52995287.101 7  20739406.450 0  20739406.797 0
   1276979.198 8   1152382.857 7  22602209.216 0  22602210.318 0
 -15736735.571 7 -12161681.096 7  20955284.971 0  20955283.810 0
 88  3  2  8 23 59.0800000  0  4  3 13 11  9
  -4920084.234 8  80796948.368 7  23135204.172 0  23135203.743 0
  -3296042.985 8  53003298.685 7  20741363.303 0  20741362.977 0
   1343085.031 7   1203893.895 8  22614789.482 0  22614790.564 0
 -15659876.213 7 -12101790.690 7  20969909.344 0  20969909.614 0
 88  3  2  8 24 29.0800000  0  4  3 13 11  9
  -4981024.919 7  80749462.125 7  23123606.363 0  23123608.109 0
  -3285480.296 8  53011529.347 7  20743372.528 0  20743373.304 0
   1409225.959 8   1255432.285 7  22627375.819 0  22627377.669 0
 -15582479.317 7 -12041481.429 7  20984637.315 0  20984638.083 0
 88  3  2  8 24 59.0800000  0  4  3 13 11  9
  -5041736.369 7  80702154.504 7  23112054.245 0  23112055.096 0
  -3274639.668 8  53019976.603 7  20745436.342 0  20745436.546 0
   1475399.337 7   1306995.960 7  22639968.946 0  22639969.901 0
 -15504548.215 7 -11980755.908 7  20999467.970 0  20999469.259 0
 88  3  2  8 25 29.0800000  0  4  3 13 11  9
  -5102219.732 7  80655024.639 7  23100544.073 0  23100545.333 0
  -3263523.237 8  53028638.771 7  20747551.441 0  20747551.359 0
   1541602.846 7   1358583.108 7  22652566.036 0  22652566.551 0
 -15426086.357 7 -11919616.817 7  21014398.663 0  21014398.229 0
 88  3  2  8 25 59.0800000  0  4  3 13 11  9
  -5162474.682 7  80608072.732 7  23089076.236 0  23089079.470 0
  -3252132.283 8  53037514.838 7  20749718.625 0  20749719.173 0
   1607836.225 8   1410193.531 7  22665170.342 0  22665170.381 0
 -15347095.986 7 -11858065.891 7  21029429.371 0  21029429.770 0
 88  3  2  8 26 29.0800000  0  4  3 13 11  9
  -5222501.991 7  80561298.195 7  23077655.132 0  23077656.506 0
  -3240469.155 8  53046602.980 7  20751938.080 0  20751939.415 0
   1674097.330 7   1461825.579 7  22677779.802 0  22677779.627 0
 -15267580.076 7 -11796105.450 7  21044561.362 0  21044562.233 0
 88  3  2  8 26 59.0800000  0  4  3 13 11  9
  -5282301.150 7  80514701.465 8  23066275.840 0  23066276.570 0
  -3228534.347 8  53055902.826 7  20754208.180 0  20754210.083 0
   1740386.023 7   1513479.112 7  22690393.273 0  22690394.464 0
 -15187540.183 7 -11733736.709 7  21059793.261 0  21059792.991 0
 88  3  2  8 27 29.0800000  0  4  3 13 11  9
  -5341871.769 7  80468282.814 7  23054941.521 0  23054940.176 0
  -3216329.071 7  53065413.442 7  20756531.538 0  20756532.447 0
   1806701.613 7   1565153.590 8  22703012.485 0  22703014.155 0
 -15106978.479 8 -11670961.375 6  21075123.099 0  21075123.200 0
 88  3  2  8 27 59.0800000  0  4  3 13 11  9
  -5401215.870 7  80422040.688 7  23043647.319 0  23043648.578 0
  -3203856.615 7  53075132.232 7  20758904.975 0  20758906.685 0
   1873041.611 7   1616847.074 7  22715636.329 0  22715637.170 0
 -15025898.978 7 -11607782.535 6  21090551.985 0  21090551.857 0
 88  3  2  8 28 29.0800000  0  4  3 13 11  9
  -5460333.907 7  80375974.668 7  23032396.194 0  23032399.821 0
  -3191119.030 8  53085057.629 7  20761329.596 0  20761330.981 0
   1939404.204 7   1668558.192 7  22728265.383 0  22728265.698 0
 -14944304.631 8 -11544202.554 6  21106078.932 0  21106078.647 0
 88  3  2  8 28 59.0800000  0  4  3 13 11  9
  -5519225.083 7  80330085.456 7  23021190.837 0  23021191.631 0
  -3178116.680 8  53095189.337 7  20763803.272 0  20763803.845 0
   2005789.433 7   1720286.956 7  22740897.423 0  22740898.915 0
 -14862196.864 7 -11480222.489 7  21121702.909 0  21121703.598 0
 88  3  2  8 29 29.0800000  0  4  3 13 11  9
  -5577888.056 7  80284374.068 7  23010027.378 0  23010028.264 0
  -3164849.269 8  53105527.597 7  20766328.290 0  20766328.652 0
   2072197.924 7   1772033.818 7  22753533.953 0  22753535.778 0
 -14779576.295 8 -11415842.834 7  21137425.391 0  21137426.080 0
 88  3  2  8 29 59.0800000  0  4  3 13 11  9
  -5636326.702 7  80238837.496 7  22998906.967 0  22998907.990 0
  -3151322.806 7  53116067.695 7  20768901.418 0  20768902.317 0
   2138624.661 7   1823794.922 7  22766174.390 0  22766175.667 0
 -14696449.704 7 -11351068.869 7  21153244.174 0  21153244.519 0
 88  3  2  8 30 29.0800000  0  4  3 13 11  9
  -5694540.795 8  80193475.861 7  22987828.769 0  22987830.757 0
  -3137538.132 7  53126809.013 7  20771525.625 0  20771526.458 0
   2205069.365 7   1875570.009 7  22778819.773 0  22778820.303 0
 -14612818.899 7 -11285902.002 7  21169159.014 0  21169159.345 0
 88  3  2  8 30 59.0800000  0  4  3 13 11  9
  -5752529.179 8  80148290.108 7  22976794.657 0  22976795.122 0
  -3123495.112 7  53137751.631 7  20774197.755 0  20774199.218 0
   2271532.471 7   1927359.434 8  22791466.259 0  22791468.612 0
 -14528684.991 7 -11220343.096 7  21185168.438 0  21185168.240 0
 88  3  2  8 31 29.0800000  0  4  3 13 11  9
  -5810292.787 7  80103279.509 7  22965802.200 0  22965804.003 0
  -3109195.959 7  53148893.841 7  20776917.796 0  20776919.549 0
   2338012.264 8   1979161.864 7  22804117.946 0  22804119.444 0
 -14444050.985 7 -11154394.519 6  21201273.906 0  21201274.408 0
 88  3  2  8 31 59.0800000  0  4  3 13 11  9
  -5867832.159 7  80058443.619 7  22954853.156 0  22954855.338 0
  -3094642.601 8  53160234.129 7  20779687.748 0  20779689.965 0
   2404507.233 7   2030976.123 8  22816771.740 0  22816772.126 0
 -14358920.507 7 -11088059.093 7  21217473.814 0  21217472.929 0
 88  3  2  8 32 29.0800000  0  4  3 13 11  9
  -5925147.252 7  80013782.507 7  22943945.530 0  22943948.328 0
  -3079836.360 7  53171771.455 7  20782504.948 0  20782506.122 0
   2471016.359 8   2082801.420 8  22829427.133 0  22829428.492 0
 -14273295.742 7 -11021338.527 7  21233767.390 0  21233767.235 0
 88  3  2  8 32 59.0800000  0  4  3 13 11  9
  -5982239.037 7  79969295.418 7  22933082.893 0  22933083.580 0
  -3064778.925 8  53183504.542 7  20785370.160 0  20785371.419 0
   2537538.969 7   2134637.224 7  22842086.514 0  22842087.906 0
 -14187179.550 7 -10954235.033 7  21250154.735 0  21250153.978 0
 88  3  2  8 33 29.0800000  0  4  3 13 11  9
  -6039107.969 8  79924981.994 7  22922260.829 0  22922261.380 0
  -3049472.548 8  53195431.593 7  20788283.776 0  20788284.491 0
   2604073.520 7   2186482.336 7  22854748.103 0  22854749.427 0
 -14100575.016 8 -10886750.999 7  21266635.446 0  21266636.708 0
 88  3  2  8 33 59.0800000  0  4  3 13 11  9
  -6095753.365 7  79880842.751 8  22911480.520 0  22911482.179 0
  -3033918.797 7  53207551.397 7  20791244.119 0  20791243.617 0
   2670619.353 7   2238336.216 7  22867409.767 0  22867411.459 0
 -14013484.467 7 -10818888.247 7  21283208.109 0  21283208.927 0
 88  3  2  8 34 29.0800000  0  4  3 13 11  9
  -6152177.668 8  79836875.774 7  22900744.361 0  22900745.541 0
  -3018119.949 8  53219862.197 6  20794250.529 0  20794250.036 0
   2737173.997 7   2290196.980 8  22880076.182 0  22880077.023 0
 -13925911.865 7 -10750649.860 7  21299872.236 0  21299872.782 0
 88  3  2  8 34 59.0800000  0  4  3 13 11  9
  -6208380.160 7  79793081.642 7  22890049.534 0  22890049.727 0
  -3002076.704 8  53232363.441 6  20797303.632 0  20797303.349 0
   2803737.591 7   2342064.722 7  22892741.838 0  22892743.798 0
 -13837858.813 8 -10682037.074 7  21316628.729 0  21316629.131 0
 88  3  2  8 35 29.0800000  0  4  3 13 11  9
  -6264360.897 8  79749460.294 8  22879396.856 0  22879397.035 0
  -2985790.648 8  53245053.865 7  20800401.829 0  20800402.534 0
   2870309.159 7   2393938.684 7  22905410.575 0  22905411.029 0
 -13749328.373 7 -10613052.309 7  21333475.012 0  21333476.201 0
 88  3  2  8 35 59.0800000  0  4  3 13 11  9
  -6320120.250 7  79706011.455 7  22868785.323 0  22868786.754 0
  -2969263.507 8  53257932.174 7  20803546.163 0  20803549.261 0
   2936888.030 8   2445818.323 7  22918079.880 0  22918081.171 0
 -13660322.958 7 -10543697.441 7  21350411.486 0  21350413.619 0
 88  3  2  8 36 29.0800000  0  4  3 13 11  9
  -6375658.789 8  79662734.671 7  22858217.534 0  22858217.169 0
  -2952497.295 8  53270996.759 7  20806737.800 0  20806738.625 0
   3003472.503 7   2497702.325 8  22930749.947 0  22930751.006 0
 -13570846.048 7 -10473975.182 7  21367438.608 0  21367438.925 0
 88  3  2  8 36 59.0800000  0  4  3 13 11  9
  -6430978.741 8  79619628.220 7  22847688.701 0  22847691.020 0
  -2935494.775 7  53284245.471 7  20809972.206 0  20809974.492 0
   3070060.292 7   2549588.923 7  22943421.023 0  22943423.158 0
 -13480901.633 7 -10403888.629 7  21384555.693 0  21384555.866 0
 88  3  2  8 37 29.0800000  0  4  3 13 11  9
  -6486079.158 8  79576692.847 7  22837204.943 0  22837205.415 0
  -2918257.052 7  53297677.504 7  20813252.718 0  20813254.953 0
   3136651.491 7   2601478.169 7  22956094.069 0  22956095.715 0
 -13390491.905 8 -10333439.518 7  21401760.908 0  21401759.236 0
 88  3  2  8 37 59.0800000  0  4  3 13 11  9
  -6540960.154 8  79533928.434 7  22826760.720 0  22826761.565 0
  -2900785.228 7  53311291.928 7  20816577.669 0  20816578.194 0
   3203245.747 8   2653369.809 7  22968765.721 0  22968766.973 0
 -13299619.035 8 -10262629.494 7  21419052.393 0  21419053.582 0
 88  3  2  8 38 29.0800000  0  4  3 13 11  9
  -6595621.832 7  79491334.935 8  22816360.098 0  22816359.183 0
  -2883080.355 7  53325087.946 7  20819945.791 0  20819947.139 0
   3269842.596 8   2705263.468 7  22981439.562 0  22981440.135 0
 -13208285.485 7 -10191460.473 7  21436431.135 0  21436434.041 0
 88  3  2  8 38 59.0800000  0  4  3 13 11  9
  -6650065.677 8  79448911.157 8  22805999.363 0  22806000.264 0
  -2865144.913 7  53339063.619 6  20823358.494 0  20823361.384 0
   3336439.897 8   2757157.474 7  22994112.284 0  22994113.089 0
 -13116495.198 7 -10119935.577 6  21453898.394 0  21453899.955 0
 88  3  2  8 39 29.0800000  0  4  3 13 11  9
  -6704292.206 7  79406656.702 7  22795679.315 0  22795681.097 0
  -2846981.000 7  53353217.325 6  20826815.573 0  20826816.614 0
   3403035.978 7   2809050.522 8  23006784.980 0  23006785.435 0
 -13024251.895 7 -10048057.687 7  21471453.025 0  21471452.784 0
 88  3  2  8 39 59.0800000  0  4  3 13 11  9
  -6758302.592 8  79364570.704 7  22785400.937 0  22785402.654 0
  -2828590.624 7  53367547.494 7  20830315.887 0  20830316.148 0
   3469629.588 7   2860941.623 7  23019457.118 0  23019457.981 0
 -12931558.869 7  -9975829.367 7  21489091.808 0  21489092.210 0
 88  3  2  8 40 29.0800000  0  4  3 13 11  9
  -6812096.623 7  79322653.295 7  22775164.613 0  22775166.293 0
  -2809974.835 8  53382053.311 6  20833858.428 0  20833860.227 0
   3536221.172 8   2912831.168 7  23032129.951 0  23032130.545 0
 -12838417.785 7  -9903251.900 6  21506816.604 0  21506816.892 0
 88  3  2  8 40 59.0800000  0  4  3 13 11  9
  -6865672.907 7  79280905.556 7  22764971.009 0  22764971.302 0
  -2791133.446 7  53396734.911 7  20837443.288 0  20837445.434 0
   3602811.644 7   2964719.847 7  23044801.113 0  23044801.957 0
 -12744830.150 7  -9830326.502 7  21524625.381 0  21524626.857 0
 88  3  2  8 41 29.0800000  0  4  3 13 11  9
  -6919034.054 7  79239325.442 7  22754816.261 0  22754817.849 0
  -2772070.226 7  53411589.385 7  20841071.813 0  20841072.442 0
   3669397.492 7   3016604.914 7  23057472.635 0  23057471.705 0
 -12650800.913 8  -9757056.949 7  21542516.851 0  21542518.755 0
 88  3  2  8 41 59.0800000  0  4  3 13 11  9
  -6972180.943 7  79197912.280 7  22744701.430 0  22744703.268 0
  -2752787.290 7  53426615.052 7  20844740.457 0  20844741.677 0
   3735977.398 7   3068485.345 7  23070141.919 0  23070143.039 0
 -12556334.265 8  -9683446.581 7  21560494.132 0  21560494.248 0
 88  3  2  8 42 29.0800000  0  4  3 13 11  9
  -7025114.124 7  79156665.648 7  22734628.451 0  22734629.725 0
  -2733285.361 7  53441811.362 7  20848451.499 0  20848452.744 0
   3802550.940 7   3120360.843 7  23082810.044 0  23082811.539 0
 -12461432.144 7  -9609496.876 7  21578553.505 0  21578554.280 0
 88  3  2  8 42 59.0800000  0  4  3 13 11  9
  -7077832.454 7  79115586.442 7  22724598.130 0  22724598.352 0
  -2713565.080 7  53457177.821 7  20852204.914 0  20852205.248 0
   3869118.479 7   3172231.645 7  23095478.322 0  23095477.989 0
 -12366096.465 8  -9535209.337 6  21596696.001 0  21596696.275 0
 88  3  2  8 43 29.0800000  0  4  3 13 11  9
  -7130336.745 7  79074674.009 7  22714606.651 0  22714607.631 0
  -2693628.637 8  53472712.723 8  20855998.629 0  20855999.419 0
   3935678.549 7   3224096.614 7  23108142.752 0  23108144.365 0
 -12270330.505 7  -9460586.514 7  21614919.415 0  21614919.832 0
 88  3  2  8 43 59.0800000  0  4  3 13 11  9
  -7182627.854 7  79033927.703 7  22704656.446 0  22704657.841 0
  -2673478.372 8  53488414.225 7  20859832.390 0  20859833.481 0
   4002230.061 7   3275954.931 7  23120808.154 0  23120808.425 0
 -12174138.519 8  -9385631.719 7  21633224.764 0  21633224.751 0
 88  3  2  8 44 29.0800000  0  4  3 13 11  9
  -7234707.847 7  78993345.878 7  22694744.218 0  22694747.215 0
  -2653116.952 7  53504280.283 7  20863706.318 0  20863707.924 0
   4068771.208 7   3327805.150 7  23133470.072 0  23133470.161 0
 -12077523.792 7  -9310347.534 7  21651609.314 0  21651610.432 0
 88  3  2  8 44 59.0800000  0  4  3 13 11  9
  -7286576.808 7  78952928.535 7  22684876.055 0  22684875.418 0
  -2632545.158 7  53520310.264 7  20867622.282 0  20867622.249 0
   4135301.472 8   3379646.900 7  23146130.444 0  23146130.788 0
 -11980489.439 7  -9234736.343 7  21670073.795 0  21670074.040 0
 88  3  2  8 45 29.0800000  0  4  3 13 11  9
  -7338233.872 7  78912676.271 7  22675044.710 0  22675045.024 0
  -2611763.189 8  53536504.013 7  20871576.709 0  20871576.280 0
   4201821.691 7   3431480.854 7  23158789.851 0  23158789.798 0
 -11883036.962 8  -9158799.338 7  21688618.951 0  21688618.752 0
 88  3  2  8 45 59.0800000  0  4  3 13 11  9
  -7389679.537 8  78872588.745 7  22665255.697 0  22665255.827 0
  -2590773.092 7  53552859.940 6  20875570.147 0  20875572.286 0
   4268330.483 8   3483305.878 8  23171445.384 0  23171445.638 0
 -11785169.666 8  -9082539.125 7  21707241.620 0  21707241.851 0
 88  3  2  8 46 29.0800000  0  4  3 13 11  9
  -7440915.533 8  78832664.602 7  22655505.686 0  22655506.115 0
  -2569576.827 7  53569376.522 7  20879604.781 0  20879605.435 0
   4334826.080 7   3535120.609 7  23184100.519 0  23184099.364 0
 -11686891.719 8  -9005958.923 7  21725943.605 0  21725942.877 0
 88  3  2  8 46 59.0800000  0  4  3 13 11  9
  -7491941.785 7  78792903.910 7  22645794.867 0  22645796.426 0
  -2548176.321 7  53586052.237 7  20883676.611 0  20883677.305 0
   4401308.376 7   3586924.981 8  23196750.883 0  23196750.435 0
 -11588205.989 7  -8929060.956 7  21744724.390 0  21744723.805 0
 88  3  2  8 47 29.0800000  0  4  3 13 11  9
  -7542760.648 7  78753304.801 7  22636124.028 0  22636125.945 0
  -2526574.840 7  53602884.557 7  20887787.019 0  20887788.111 0
   4467774.972 7   3638717.130 7  23209398.091 0  23209398.133 0
 -11489116.926 7  -8851848.719 7  21763578.955 0  21763580.573 0
 88  3  2  8 47 59.0800000  0  4  3 13 11  9
  -7593371.877 7  78713867.493 7  22626493.083 0  22626495.358 0
  -2504772.928 8  53619873.061 7  20891935.737 0  20891937.711 0
   4534225.640 7   3690496.848 7  23222043.610 0  23222043.621 0
 -11389627.317 7  -8774324.370 7  21782511.332 0  21782512.264 0
 88  3  2  8 48 29.0800000  0  4  3 13 11  9
  -7643774.486 8  78674592.752 8  22616901.910 0  22616904.099 0
  -2482769.874 7  53637018.316 7  20896123.719 0  20896123.544 0
   4600661.748 7   3742265.268 7  23234685.965 0  23234686.164 0
 -11289738.095 7  -8696488.634 7  21801519.176 0  21801520.823 0
 88  3  2  8 48 59.0800000  0  4  3 13 11  9
  -7693969.030 7  78635480.137 7  22607350.967 0  22607353.185 0
  -2460567.576 8  53654318.817 6  20900348.232 0  20900348.092 0
   4667082.459 7   3794021.679 7  23247324.103 0  23247325.492 0
 -11189452.748 8  -8618344.216 7  21820602.558 0  21820603.848 0
 88  3  2  8 49 29.0800000  0  4  3 13 11  9
  -7743957.399 7  78596528.154 7  22597837.637 0  22597839.990 0
  -2438169.894 8  53671771.562 7  20904610.754 0  20904611.334 0
   4733485.290 7   3845764.135 7  23259961.088 0  23259962.787 0
 -11088776.245 7  -8539895.011 7  21839761.951 0  21839762.311 0
 88  3  2  8 49 59.0800000  0  4  3 13 11  9
  -7793740.570 8  78557736.098 7  22588366.511 0  22588365.946 0
  -2415577.518 8  53689376.013 7  20908908.910 0  20908910.395 0
   4799869.283 8   3897491.940 7  23272593.772 0  23272594.259 0
 -10987711.472 8  -8461143.261 7  21858994.907 0  21858993.922 0
 88  3  2  8 50 29.0800000  0  4  3 13 11  9
  -7843319.912 7  78519102.849 7  22578929.685 0  22578930.665 0
  -2392793.302 7  53707129.954 7  20913244.559 0  20913246.341 0
   4866233.631 8   3949204.401 7  23285221.863 0  23285223.845 0
 -10886262.144 7  -8382091.869 7  21878298.408 0  21878298.996 0
 88  3  2  8 50 59.0800000  0  4  3 13 11  9
  -7892694.796 7  78480628.939 7  22569535.170 0  22569535.549 0
  -2369817.979 8  53725032.799 7  20917617.323 0  20917617.892 0
   4932578.564 7   4000901.750 8  23297848.391 0  23297848.330 0
 -10784430.596 7  -8302742.623 7  21897677.618 0  21897677.276 0
 88  3  2  8 51 29.0800000  0  4  3 13 11  9
  -7941865.517 7  78442314.077 7  22560177.216 0  22560178.396 0
  -2346652.758 7  53743083.622 7  20922025.549 0  20922026.275 0
   4998903.088 8   4052583.209 7  23310467.610 0  23310469.381 0
 -10682219.542 8  -8223097.673 7  21917126.886 0  21917127.532 0
 88  3  2  8 51 59.0800000  0  4  3 13 11  9
  -7990832.902 8  78404157.681 7  22550859.878 0  22550860.715 0
  -2323298.792 8  53761281.520 7  20926470.201 0  20926469.798 0
   5065206.754 8   4104248.383 7  23323085.632 0  23323087.792 0
 -10579632.894 8  -8143160.033 7  21936647.858 0  21936648.304 0
 88  3  2  8 52 29.0800000  0  4  3 13 11  9
  -8039596.159 7  78366160.346 7  22541579.973 0  22541581.011 0
  -2299756.743 8  53779625.978 7  20930950.106 0  20930951.111 0
   5131489.763 7   4155897.476 7  23335698.655 0  23335700.405 0
 -10476672.830 7  -8062931.439 7  21956241.892 0  21956241.136 0
 88  3  2  8 52 59.0800000  0  4  3 13 11  9
  -8088157.536 7  78328320.317 7  22532338.052 0  22532340.657 0
  -2276029.061 7  53798115.103 7  20935465.471 0  20935465.464 0
   5197750.487 7   4207529.231 7  23348307.811 0  23348307.765 0
 -10373343.806 7  -7982415.316 7  21975904.725 0  21975904.112 0
 88  3  2  8 53 29.0800000  0  4  3 13 11  9
  -8136518.814 7  78290636.214 7  22523135.897 0  22523136.440 0
  -2252118.620 7  53816746.601 7  20940015.869 0  20940015.933 0
   5263987.481 7   4259142.456 7  23360912.092 0  23360913.641 0
 -10269649.635 7  -7901614.698 7  21995637.730 0  21995637.060 0
 88  3  2  8 53 59.0800000  0  4  3 13 11  9
  -8184679.524 7  78253108.383 7  22513972.132 0  22513971.932 0
  -2228026.536 8  53835519.655 7  20944599.346 0  20944599.697 0
   5330200.540 7   4310737.051 7  23373512.044 0  23373514.480 0
 -10165592.801 7  -7820531.478 7  22015438.075 0  22015437.691 0
 88  3  2  8 54 29.0800000  0  4  3 13 11  9
  -8232639.113 8  78215737.287 7  22504845.500 0  22504846.044 0
  -2203752.718 8  53854434.336 7  20949218.643 0  20949218.801 0
   5396390.478 6   4362313.621 7  23386107.006 0  23386108.154 0
 -10061175.774 7  -7739167.585 7  22035307.261 0  22035307.320 0
 88  3  2  8 54 59.0800000  0  4  3 13 11  9
  -8280400.269 7  78178520.809 7  22495756.459 0  22495758.018 0
  -2179301.025 8  53873487.598 7  20953871.989 0  20953872.518 0
   5462554.247 6   4413869.776 7  23398698.280 0  23398699.918 0
  -9956403.791 7  -7657527.105 7  22055244.286 0  22055246.406 0
 88  3  2  8 55 29.0800000  0  4  3 13 11  9
  -8327963.285 7  78141458.720 7  22486704.964 0  22486706.180 0
  -2154671.623 8  53892679.327 7  20958558.478 0  20958558.718 0
   5528692.127 7   4465405.788 7  23411284.848 0  23411284.806 0
  -9851279.357 7  -7575611.974 7  22075249.424 0  22075250.542 0
 88  3  2  8 55 59.0800000  0  4  3 13 11  9
  -8375326.930 7  78104551.973 7  22477692.369 0  22477693.599 0
  -2129864.755 7  53912009.369 7  20963278.870 0  20963279.717 0
   5594805.169 7   4516922.425 7  23423863.366 0  23423865.244 0
  -9745804.019 7  -7493423.412 8  22095322.402 0  22095322.017 0
 88  3  2  8 56 29.0800000  0  4  3 13 11  9
  -8422493.772 7  78067798.587 7  22468715.826 0  22468717.958 0
  -2104883.996 7  53931474.917 7  20968032.190 0  20968033.299 0
   5660890.717 8   4568417.646 8  23436440.334 0  23436441.192 0
  -9639983.467 7  -7410965.866 7  22115458.182 0  22115458.198 0
 88  3  2  8 56 59.0800000  0  4  3 13 11  9
  -8469464.623 7  78031197.918 6  22459778.720 0  22459779.342 0
  -2079730.939 8  53951074.693 7  20972819.058 0  20972820.370 0
   5726948.378 7   4619891.154 7  23449011.456 0  23449010.930 0
  -9533820.479 7  -7328241.486 7  22135659.885 0  22135661.518 0
 88  3  2  8 57 29.0800000  0  4  3 13 11  9
  -8516239.630 7  77994749.893 7  22450878.352 0  22450877.844 0
  -2054406.783 7  53970807.809 7  20977637.782 0  20977639.531 0
   5792978.222 6   4671342.947 7  23461574.390 0  23461576.183 0
  -9427317.851 7  -7245252.453 7  22155926.737 0  22155927.884 0
 88  3  2  8 57 59.0800000  0  4  3 13 11  9
  -8562819.178 7  77958454.145 7  22442013.650 0  22442014.429 0
  -2028911.967 8  53990673.898 7  20982490.787 0  20982489.099 0
   5858979.981 6   4722772.883 7  23474134.899 0  23474136.001 0
  -9320478.653 7  -7162001.150 7  22176257.022 0  22176258.241 0
 88  3  2  8 58 29.0800000  0  4  3 13 11  9
  -8609203.650 7  77922310.399 7  22433186.738 0  22433188.399 0
  -2003247.462 8  54010672.204 7  20987373.981 0  20987372.676 0
   5924953.172 7   4774180.547 8  23486689.674 0  23486690.296 0
  -9213306.122 8  -7078490.118 7  22196652.043 0  22196652.274 0
 88  3  2  8 58 59.0800000  0  4  3 13 11  9
  -8655394.725 8  77886317.356 7  22424397.102 0  22424398.662 0
  -1977416.957 8  54030799.874 7  20992288.652 0  20992289.836 0
   5990896.395 6   4825564.870 7  23499236.364 0  23499239.933 0
  -9105804.530 8  -6994722.662 7  22217109.322 0  22217109.295 0
 88  3  2  8 59 29.0800000  0  4  3 13 11  9
  -8701392.152 7  77850475.214 7  22415644.885 0  22415644.491 0
  -1951420.136 8  54051057.145 7  20997236.570 0  20997236.406 0
   6056810.149 7   4876926.239 7  23511781.382 0  23511781.250 0
  -8997976.274 8  -6910700.663 7  22237628.045 0  22237628.419 0
 88  3  2  8 59 59.0800000  0  4  3 13 11  9
  -8747196.973 8  77814783.155 7  22406928.290 0  22406928.518 0
  -1925259.757 7  54071441.840 7  21002214.166 0  21002214.853 0
   6122692.808 7   4928263.384 7  23524318.463 0  23524318.467 0
  -8889825.428 7  -6826427.289 7  22258207.954 0  22258208.671 0
 88  3  2  9  0 29.0800000  0  4  3 13 11  9
  -8792810.721 8  77779239.974 7  22398247.947 0  22398249.399 0
  -1898937.637 8  54091952.580 7  21007222.894 0  21007223.041 0
   6188543.426 7   4979575.553 7  23536849.835 0  23536850.851 0
  -8781356.289 7  -6741905.915 7  22278849.665 0  22278849.252 0
 88  3  2  9  0 59.0800000  0  4  3 13 11  9
  -8838233.118 8  77743845.903 7  22389604.229 0  22389605.667 0
  -1872453.887 7  54112589.290 7  21012262.817 0  21012263.490 0
   6254362.772 6   5030863.339 7  23549373.029 0  23549375.991 0
  -8672570.481 8  -6657137.770 8  22299550.659 0  22299550.474 0
 88  3  2  9  1 29.0800000  0  4  3 13 11  9
  -8883463.996 8  77708601.067 7  22380996.899 0  22380998.731 0
  -1845808.441 7  54133351.980 6  21017333.916 0  21017333.569 0
   6320151.748 7   5082127.454 7  23561893.551 0  23561895.418 0
  -8563470.272 7  -6572124.640 7  22320311.307 0  22320312.854 0
 88  3  2  9  1 59.0800000  0  4  3 13 11  9
  -8928505.639 7  77673503.694 7  22372426.916 0  22372427.596 0
  -1819005.495 8  54154237.389 7  21022433.579 0  21022433.708 0
   6385907.806 7   5133365.926 7  23574405.048 0  23574407.004 0
  -8454061.100 8  -6486870.765 7  22341132.269 0  22341132.700 0
 88  3  2  9  2 29.0800000  0  4  3 13 11  9
  -8973359.364 7  77638552.738 7  22363890.353 0  22363892.105 0
  -1792046.500 8  54175244.400 7  21027564.709 0  21027564.734 0
   6451629.849 7   5184577.903 7  23586912.232 0  23586914.640 0
  -8344347.296 8  -6401379.496 7  22362008.393 0  22362010.011 0
 88  3  2  9  2 59.0800000  0  4  3 13 11  9
  -9018025.195 7  77603748.206 7  22355390.470 0  22355391.908 0
  -1764932.147 8  54196372.481 7  21032723.659 0  21032723.967 0
   6517318.126 7   5235763.585 7  23599413.512 0  23599413.597 0
  -8234330.892 7  -6315652.439 7  22382945.173 0  22382945.933 0
 88  3  2  9  3 29.0800000  0  4  3 13 11  9
  -9062503.176 7  77569090.061 7  22346926.877 0  22346928.479 0
  -1737663.767 8  54217620.573 7  21037913.542 0  21037912.802 0
   6582972.434 7   5286922.787 7  23611906.199 0  23611908.284 0
  -8124015.328 8  -6229692.250 7  22403937.201 0  22403937.690 0
 88  3  2  9  3 59.0800000  0  4  3 13 11  9
  -9106793.639 8  77534578.029 6  22338498.233 0  22338500.593 0
  -1710242.559 8  54238987.736 7  21043130.179 0  21043132.333 0
   6648592.798 8   5338055.559 7  23624393.938 0  23624395.856 0
  -8013403.399 8  -6143501.169 6  22424987.125 0  22424986.511 0
 88  3  2  9  4 29.0800000  0  4  3 13 11  9
  -9150897.875 7  77500211.115 7  22330106.020 0  22330106.127 0
  -1682669.694 8  54260473.101 7  21048378.287 0  21048378.505 0
   6714178.850 7   5389161.588 7  23636874.970 0  23636875.453 0
  -7902498.641 7  -6057081.900 7  22446092.052 0  22446090.652 0
 88  3  2  9  4 59.0800000  0  4  3 13 11  9
  -9194817.267 7  77465988.229 7  22321748.106 0  22321749.709 0
  -1654946.920 8  54282075.257 7  21053652.873 0  21053654.119 0
   6779729.641 8   5440240.121 7  23649348.203 0  23649350.418 0
  -7791304.772 8  -5970437.326 7  22467249.967 0  22467250.971 0
 88  3  2  9  5 29.0800000  0  4  3 13 11  9
  -9238552.938 7  77431908.495 7  22313424.421 0  22313426.882 0
  -1627076.583 8  54303792.415 7  21058956.969 0  21058957.806 0
   6845244.133 7   5491290.369 7  23661814.908 0  23661816.386 0
  -7679826.013 7  -5883570.791 7  22488462.858 0  22488464.662 0
 88  3  2  9  5 59.0800000  0  4  3 13 11  9
  -9282103.749 7  77397972.805 8  22305137.868 0  22305140.149 0
  -1599058.871 8  54325624.409 7  21064287.411 0  21064288.112 0
   6910723.112 8   5542312.948 7  23674275.324 0  23674276.923 0
  -7568064.520 7  -5796483.923 7  22509731.397 0  22509731.184 0
 88  3  2  9  6 29.0800000  0  4  3 13 11  9
  -9325471.138 7  77364180.052 7  22296886.435 0  22296887.294 0
  -1570894.662 7  54347570.537 7  21069647.101 0  21069648.110 0
   6976166.183 7   5593307.557 7  23686728.439 0  23686730.539 0
  -7456023.466 7  -5709179.225 7  22531050.948 0  22531051.908 0
 88  3  2  9  6 59.0800000  0  4  3 13 11  9
  -9368656.472 8  77330529.147 7  22288668.709 0  22288668.709 0
  -1542586.329 7  54369628.981 6  21075033.321 0  21075035.210 0
   7041572.494 7   5644273.493 7  23699175.039 0  23699177.605 0
  -7343707.059 8  -5621659.961 7  22552425.525 0  22552424.547 0
 88  3  2  9  7 29.0800000  0  4  3 13 11  9
  -9411660.996 7  77297019.153 8  22280483.830 0  22280485.260 0
  -1514136.136 8  54391797.960 6  21080447.675 0  21080449.378 0
   7106940.793 8   5695209.854 6  23711615.877 0  23711616.982 0
  -7231119.655 7  -5533929.538 7  22573850.450 0  22573850.094 0
 88  3  2  9  7 59.0800000  0  4  3 13 11  9
  -9454484.651 8  77263650.110 7  22272333.456 0  22272336.025 0
  -1485544.251 8  54414077.357 7  21085888.731 0  21085890.334 0
   7172271.702 8   5746117.072 7  23724046.590 0  23724047.893 0
  -7118263.555 8  -5445989.738 7  22595326.883 0  22595326.356 0
 88  3  2  9  8 29.0800000  0  4  3 13 11  9
  -9497127.206 7  77230422.182 7  22264219.472 0  22264221.074 0
  -1456811.278 8  54436466.688 7  21091357.075 0  21091357.733 0
   7237565.767 7   5796995.573 7  23736471.838 0  23736472.883 0
  -7005141.231 8  -5357842.493 7  22616852.909 0  22616851.541 0
 88  3  2  9  8 59.0800000  0  4  3 13 11  9
  -9539590.453 8  77197333.972 7  22256140.444 0  22256141.360 0
  -1427939.576 8  54458964.124 6  21096850.617 0  21096851.376 0
   7302821.752 7   5847844.389 7  23748888.772 0  23748889.967 0
  -6891757.232 7  -5269491.333 6  22638428.914 0  22638429.227 0
 88  3  2  9  9 29.0800000  0  4  3 13 11  9
  -9581875.116 7  77164384.896 7  22248094.714 0  22248095.509 0
  -1398929.950 7  54481569.019 7  21102371.017 0  21102371.976 0
   7368039.415 7   5898663.319 6  23761300.236 0  23761301.610 0
  -6778114.274 8  -5180938.393 7  22660053.776 0  22660054.852 0
 88  3  2  9  9 59.0800000  0  4  3 13 11  9
  -9623981.469 7  77131574.758 7  22240081.338 0  22240082.819 0
  -1369783.933 8  54504280.198 7  21107915.872 0  21107918.619 0
   7433218.690 7   5949452.370 7  23773703.713 0  23773704.206 0
  -6664216.325 7  -5092186.744 7  22681727.974 0  22681728.888 0
 88  3  2  9 10 29.0800000  0  4  3 13 11  9
  -9665912.292 8  77098901.407 7  22232101.903 0  22232103.548 0
  -1340504.857 7  54527095.070 7  21113488.301 0  21113490.075 0
   7498357.159 7   6000209.623 7  23786097.941 0  23786101.661 0
  -6550068.423 7  -5003240.350 7  22703448.437 0  22703451.101 0
 88  3  2  9 10 59.0800000  0  4  3 13 11  9
  -9707667.203 8  77066365.157 7  22224156.008 0  22224156.537 0
  -1311092.022 7  54550014.159 7  21119085.083 0  21119086.400 0
   7563455.698 7   6050935.752 7  23798485.083 0  23798487.652 0
  -6435672.802 8  -4914100.919 8  22725217.290 0  22725218.973 0
 88  3  2  9 11 29.0800000  0  4  3 13 11  9
  -9749245.132 7  77033966.804 7  22216243.346 0  22216243.647 0
  -1281545.320 7  54573037.559 7  21124707.894 0  21124708.910 0
   7628515.914 7   6101632.034 8  23810866.720 0  23810868.909 0
  -6321030.846 7  -4824769.524 7  22747034.204 0  22747034.556 0
 88  3  2  9 11 59.0800000  0  4  3 13 11  9
  -9790647.345 7  77001705.368 7  22208365.313 0  22208365.921 0
  -1251866.499 8  54596163.910 7  21130355.704 0  21130357.750 0
   7693536.784 7   6152297.649 7  23823240.229 0  23823242.097 0
  -6206147.194 7  -4735249.795 7  22768895.902 0  22768895.829 0
 88  3  2  9 12 29.0800000  0  4  3 13 11  9
  -9831877.267 8  76969578.203 7  22200519.611 0  22200521.407 0
  -1222060.018 8  54619389.747 6  21136028.240 0  21136028.569 0
   7758516.137 7   6202930.882 7  23835605.908 0  23835605.747 0
  -6091027.190 7  -4645545.917 7  22790802.087 0  22790802.751 0
 88  3  2  9 12 59.0800000  0  4  3 13 11  9
  -9872933.492 7  76937586.352 7  22192706.463 0  22192708.338 0
  -1192124.806 8  54642715.900 7  21141724.873 0  21141726.003 0
   7823455.274 7   6253532.799 7  23847964.009 0  23847964.843 0
  -5975672.319 8  -4555659.021 7  22812753.278 0  22812754.879 0
 88  3  2  9 13 29.0800000  0  4  3 13 11  9
  -9913816.125 7  76905729.784 7  22184926.791 0  22184929.345 0
  -1162060.996 8  54666142.252 7  21147445.530 0  21147445.874 0
   7888354.797 7   6304103.855 7  23860313.414 0  23860314.173 0
  -5860085.478 7  -4465591.357 7  22834749.676 0  22834749.095 0
 88  3  2  9 13 59.0800000  0  4  3 13 11  9
  -9954527.539 7  76874006.643 7  22177179.880 0  22177180.116 0
  -1131871.584 8  54689666.473 6  21153189.611 0  21153191.100 0
   7953213.208 7   6354642.846 7  23872656.305 0  23872657.075 0
  -5744271.417 8  -4375346.627 6  22856787.674 0  22856788.298 0
 88  3  2  9 14 29.0800000  0  4  3 13 11  9
  -9995067.826 7  76842416.820 7  22169465.229 0  22169466.253 0
  -1101557.491 8  54713287.834 6  21158958.763 0  21158960.337 0
   8018030.003 7   6405149.456 7  23884989.756 0  23884990.622 0
  -5628233.651 7  -4284927.642 7  22878867.362 0  22878869.678 0
 88  3  2  9 14 59.0800000  0  4  3 13 11  9
 -10035437.000 8  76810960.332 7  22161783.046 0  22161784.756 0
  -1071118.767 7  54737006.318 7  21164751.052 0  21164752.068 0
   8082806.412 8   6455624.586 7  23897315.777 0  23897317.737 0
  -5511974.222 7  -4194335.856 7  22900992.732 0  22900991.858 0
 88  3  2  9 15 29.0800000  0  4  3 13 11  9
 -10075637.558 7  76779635.238 7  22154133.309 0  22154134.790 0
  -1040558.827 8  54760819.252 7  21170566.766 0  21170566.609 0
   8147540.125 7   6506066.441 7  23909634.099 0  23909635.133 0
  -5395498.627 8  -4103575.656 6  22923156.451 0  22923156.960 0
 88  3  2  9 15 59.0800000  0  4  3 13 11  9
 -10115669.710 7  76748441.380 7  22146515.517 0  22146516.733 0
  -1009878.296 8  54784726.166 7  21176405.273 0  21176404.672 0
   8212232.371 8   6556475.976 7  23921944.708 0  23921945.992 0
  -5278809.310 8  -4012648.923 7  22945363.176 0  22945361.492 0
 88  3  2  9 16 29.0800000  0  4  3 13 11  9
 -10155533.042 7  76717379.051 7  22138929.269 0  22138930.371 0
   -979076.749 7  54808727.374 6  21182267.163 0  21182267.206 0
   8276883.558 8   6606853.528 7  23934247.791 0  23934248.721 0
  -5161908.398 7  -3921557.320 7  22967607.627 0  22967607.382 0
 88  3  2  9 16 59.0800000  0  4  3 13 11  9
 -10195229.122 8  76686447.068 7  22131375.254 0  22131375.833 0
   -948155.957 7  54832821.510 7  21188150.015 0  21188152.061 0
   8341493.232 8   6657198.736 7  23946542.313 0  23946542.467 0
  -5044799.936 8  -3830303.990 6  22989893.313 0  22989892.592 0
 88  3  2  9 17 29.0800000  0  4  3 13 11  9
 -10234759.226 8  76655644.410 6  22123854.256 0  22123854.385 0
   -917118.726 7  54857006.363 6  21194056.964 0  21194056.807 0
   8406059.905 8   6707510.426 7  23958828.558 0  23958829.524 0
  -4927488.833 7  -3738892.732 7  23012215.639 0  23012216.613 0
 88  3  2  9 17 59.0800000  0  4  3 13 11  9
 -10274124.094 8  76624970.527 7  22116363.287 0  22116363.322 0
   -885965.515 8  54881281.599 7  21199984.990 0  21199984.790 0
   8470583.090 8   6757788.224 7  23971107.158 0  23971107.190 0
  -4809978.431 8  -3647326.197 7  23034577.689 0  23034578.404 0
 88  3  2  9 18 29.0800000  0  4  3 13 11  9
 -10313322.975 8  76594425.981 7  22108902.874 0  22108905.149 0
   -854696.082 8  54905647.390 6  21205935.983 0  21205936.555 0
   8535064.914 8   6808033.783 7  23983377.862 0  23983379.294 0
  -4692270.284 7  -3555605.561 7  23056977.406 0  23056978.435 0
 88  3  2  9 18 59.0800000  0  4  3 13 11  9
 -10352356.861 7  76564009.987 7  22101476.332 0  22101475.459 0
   -823312.163 8  54930102.393 6  21211907.280 0  21211907.896 0
   8599504.601 7   6858246.531 7  23995640.461 0  23995641.592 0
  -4574368.190 7  -3463733.810 8  23079411.880 0  23079414.790 0
 88  3  2  9 19 29.0800000  0  4  3 13 11  9
 -10391228.279 7  76533720.594 6  22094077.385 0  22094078.916 0
   -791815.887 8  54954644.955 7  21217900.814 0  21217902.074 0
   8663901.068 7   6908425.572 7  24007895.000 0  24007895.887 0
  -4456276.697 8  -3371714.489 7  23101886.104 0  23101886.221 0
 88  3  2  9 19 59.0800000  0  4  3 13 11  9
 -10429937.590 7  76503557.504 7  22086712.135 0  22086712.250 0
   -760208.469 7  54979274.113 7  21223916.127 0  21223916.226 0
   8728254.237 7   6958570.900 7  24020141.207 0  24020141.652 0
  -4337999.268 7  -3279550.255 7  23124392.078 0  23124393.045 0
 88  3  2  9 20 29.0800000  0  4  3 13 11  9
 -10468484.571 7  76473520.928 7  22079377.429 0  22079377.244 0
   -728489.929 7  55003989.863 6  21229950.671 0  21229951.815 0
   8792564.959 7   7008683.146 7  24032378.915 0  24032380.002 0
  -4219538.517 6  -3187243.171 7  23146933.584 0  23146935.721 0
 88  3  2  9 20 59.0800000  0  4  3 13 11  9
 -10506870.428 7  76443609.899 7  22072072.680 0  22072073.803 0
   -696661.646 8  55028791.125 7  21236008.309 0  21236009.096 0
   8856832.344 8   7058761.637 7  24044608.960 0  24044609.060 0
  -4100897.886 7  -3094795.964 6  23169511.553 0  23169511.638 0
 88  3  2  9 21 29.0800000  0  4  3 13 11  9
 -10545095.052 8  76413824.517 7  22064798.445 0  22064799.289 0
   -664724.404 8  55053677.267 6  21242085.723 0  21242086.725 0
   8921057.343 7   7108807.105 7  24056829.905 0  24056831.415 0
  -3982080.902 7  -3002211.299 7  23192121.802 0  23192122.436 0
 88  3  2  9 21 59.0800000  0  4  3 13 11  9
 -10583160.828 7  76384162.888 7  22057554.995 0  22057556.011 0
   -632680.988 8  55078646.188 7  21248184.416 0  21248184.072 0
   8985238.581 7   7158818.456 7  24069042.871 0  24069044.095 0
  -3863091.115 8  -2909491.993 8  23214765.555 0  23214766.178 0
 88  3  2  9 22 29.0800000  0  4  3 13 11  9
 -10621067.492 8  76354625.245 7  22050341.638 0  22050342.575 0
   -600530.843 8  55103698.242 6  21254301.781 0  21254300.565 0
   9049376.366 7   7208795.942 7  24081248.205 0  24081249.794 0
  -3743932.001 7  -2816640.737 7  23237440.816 0  23237440.209 0
 88  3  2  9 22 59.0800000  0  4  3 13 11  9
 -10658816.572 7  76325210.426 7  22043158.488 0  22043158.273 0
   -568276.179 8  55128831.750 6  21260439.237 0  21260440.668 0
   9113470.226 6   7258739.216 7  24093446.416 0  24093445.765 0
  -3624607.737 7  -2723660.773 7  23260147.135 0  23260146.447 0
 88  3  2  9 23 29.0800000  0  4  3 13 11  9
 -10696408.928 8  76295917.715 6  22036005.058 0  22036005.159 0
   -535917.830 8  55154046.058 7  21266596.626 0  21266596.453 0
   9177520.363 6   7308648.386 7  24105631.760 0  24105634.707 0
  -3505121.020 7  -2630554.265 8  23282883.279 0  23282884.716 0
 88  3  2  9 23 59.0800000  0  4  3 13 11  9
 -10733843.659 8  76266747.813 7  22028880.554 0  22028881.448 0
   -503455.093 8  55179341.708 7  21272774.634 0  21272775.105 0
   9241528.541 5   7358524.853 7  24117814.573 0  24117813.729 0
  -3385474.238 7  -2537323.017 7  23305650.692 0  23305652.003 0
 88  3  2  9 24 29.0800000  0  4  3 13 12  9
 -10771123.167 7  76237698.877 7  22021787.614 0  22021787.931 0
   -470890.562 7  55204716.667 7  21278970.968 0  21278971.913 0
          .426 7          .353 7  21025291.419 0          .000 0
  -3265672.267 8  -2443970.803 7  23328449.103 0  23328449.562 0
 88  3  2  9 24 59.0800000  0  4  3 13 12  9
 -10808247.443 7  76208770.880 7  22014721.717 0  22014722.678 0
   -438225.606 7  55230169.882 6  21285187.640 0  21285187.912 0
     48812.495 7 120191867.910 7  21034609.825 0  21034611.585 0
  -3145717.521 7  -2350499.536 7  23351276.392 0  23351276.658 0
 88  3  2  9 25 29.0800000  0  4  3 13 12  9
 -10845217.980 7  76179962.679 7  22007686.578 0  22007687.220 0
   -405461.119 8  55255700.651 7  21291422.512 0  21291423.085 0
     98205.964 8 120230356.308 7  21044010.116 0  21044009.211 0
  -3025614.130 7  -2256912.497 7  23374131.767 0  23374132.068 0
 88  3  2  9 25 59.0800000  0  4  3 13 12  9
 -10882035.042 7  76151274.060 7  22000680.636 0  22000681.293 0
   -372598.246 8  55281308.076 7  21297675.443 0  21297675.715 0
    148178.937 7 120269296.255 7  21053519.060 0  21053519.099 0
  -2905366.027 7  -2163212.642 6  23397013.764 0  23397014.102 0
 88  3  2  9 26 29.0800000  0  4  3 13 12  9
 -10918698.783 8  76122704.941 7  21993704.690 0  21993704.413 0
   -339636.785 7  55306992.331 6  21303948.779 0  21303948.522 0
    198730.293 8 120308686.900 7  21063138.722 0  21063139.569 0
  -2784974.579 7  -2069401.112 7  23419924.233 0  23419922.961 0
 88  3  2  9 26 59.0800000  0  4  3 13 12  9
 -10955210.394 7  76094254.361 7  21986755.627 0  21986756.323 0
   -306578.055 8  55332752.383 7  21310238.856 0  21310239.043 0
    249857.789 8 120348526.470 8  21072868.807 0  21072869.898 0
  -2664444.643 8  -1975481.685 7  23442859.947 0  23442860.614 0
 88  3  2  9 27 29.0800000  0  4  3 13 12  9
 -10991570.666 7  76065921.685 8  21979836.217 0  21979837.982 0
   -273423.593 8  55358587.045 7  21316547.765 0  21316548.223 0
    301559.299 7 120388813.346 7  21082706.827 0  21082708.483 0
  -2543779.164 7  -1881456.616 7  23465820.974 0  23465822.349 0
 88  3  2  9 27 59.0800000  0  4  3 13 12  9
 -11027780.401 8  76037706.322 7  21972946.316 0  21972946.915 0
   -240174.420 8  55384495.495 7  21322874.574 0  21322876.749 0
    353832.353 8 120429545.566 7  21092653.589 0  21092655.024 0
  -2422980.993 7  -1787328.173 7  23488807.353 0  23488809.329 0
 88  3  2  9 28 29.0800000  0  4  3 13 12  9
 -11063841.033 8  76009607.128 7  21966083.988 0  21966085.693 0
   -206832.402 7  55410476.293 7  21329218.211 0  21329219.929 0
    406674.420 8 120470721.178 7  21102708.451 0  21102710.336 0
  -2302055.632 7  -1693100.632 7  23511818.148 0  23511819.537 0
 88  3  2  9 28 59.0800000  0  4  3 13 12  9
 -11099752.450 8  75981624.240 7  21959250.505 0  21959249.966 0
   -173397.320 7  55436529.594 7  21335581.036 0  21335583.684 0
    460083.946 8 120512338.967 7  21112871.898 0  21112874.620 0
  -2181005.172 7  -1598775.575 7  23534853.965 0  23534854.732 0
 88  3  2  9 29 29.0800000  0  4  3 13 12  9
 -11135515.317 7  75953757.095 7  21952445.102 0  21952445.112 0
   -139869.263 7  55462655.351 8  21341962.292 0  21341963.609 0
    514059.189 8 120554397.581 7  21123144.151 0  21123145.936 0
  -2059831.723 7  -1504354.714 7  23557911.605 0  23557913.866 0
 88  3  2  9 29 59.0800000  0  4  3 13 12  9
 -11171131.417 7  75926004.296 7  21945666.703 0  21945667.756 0
   -106251.188 8  55488851.247 7  21348358.873 0  21348361.878 0
    568597.043 8 120596894.585 7  21133522.916 0  21133523.412 0
  -1938541.076 6  -1409842.530 7  23580994.148 0  23580993.884 0
 88  3  2  9 30 29.0800000  0  4  3 13 12  9
 -11206601.053 7  75898365.615 7  21938918.405 0  21938920.342 0
    -72543.107 8  55515117.304 7  21354774.800 0  21354775.487 0
    623695.527 7 120639828.438 6  21144006.552 0  21144008.264 0
  -1817135.822 7  -1315240.996 7  23604095.613 0  23604096.676 0
 88  3  2  9 30 59.0800000  0  4  3 13 12  9
 -11241924.029 7  75870841.221 7  21932195.925 0  21932197.630 0
    -38745.480 8  55541453.122 7  21361204.936 0  21361206.267 0
    679352.983 8 120683197.865 7  21154598.601 0  21154598.898 0
  -1695617.887 6  -1220551.730 7  23627220.426 0  23627221.629 0
 88  3  2  9 31 29.0800000  0  4  3 13 12  9
 -11277101.042 7  75843430.576 7  21925501.480 0  21925502.262 0
     -4859.321 7  55567857.924 7  21367654.046 0  21367655.305 0
    735567.746 8 120727001.537 7  21165295.316 0  21165296.693 0
  -1573990.872 7  -1125777.461 7  23650365.977 0  23650366.272 0
 88  3  2  9 31 59.0800000  0  4  3 13 12  9
 -11312133.363 7  75816132.698 7  21918835.990 0  21918835.966 0
     29114.344 7  55594330.915 7  21374118.724 0  21374119.597 0
    792336.716 8 120771237.091 7  21176099.656 0  21176100.218 0
  -1452258.673 7  -1030921.211 7  23673530.088 0  23673531.205 0
 88  3  2  9 32 29.0800000  0  4  3 13 12  9
 -11347023.621 8  75788945.478 7  21912197.376 0  21912196.959 0
     63173.059 8  55620870.176 7  21380600.173 0  21380601.232 0
    849656.298 8 120815901.689 7  21187007.152 0  21187008.165 0
  -1330426.681 7   -935987.161 7  23696716.144 0  23696715.741 0
 88  3  2  9 32 59.0800000  0  4  3 13 12  9
 -11381769.765 7  75761870.582 8  21905584.422 0  21905585.679 0
     97317.856 7  55647476.511 7  21387097.591 0  21387097.577 0
    907526.886 8 120860995.625 7  21198018.541 0  21198018.945 0
  -1208495.432 7   -840975.761 7  23719917.956 0  23719917.567 0
 88  3  2  9 33 29.0800000  0  4  3 13 12  9
 -11416374.106 8  75734906.175 7  21898999.074 0  21898999.688 0
    131546.956 7  55674148.519 7  21393610.548 0  21393611.179 0
    965944.565 8 120906515.852 7  21209134.085 0  21209136.764 0
  -1086469.566 7   -745890.693 7  23743138.655 0  23743138.646 0
 88  3  2  9 33 59.0800000  0  4  3 13 12  9
 -11450836.533 7  75708052.326 7  21892441.239 0  21892441.817 0
    165860.295 8  55700886.186 7  21400141.620 0  21400142.322 0
   1024907.676 8 120952461.116 6  21220354.995 0  21220357.624 0
   -964351.913 8   -650734.070 7  23766375.792 0  23766376.863 0
 88  3  2  9 34 29.0800000  0  4  3 13 12  9
 -11485158.232 8  75681308.160 7  21885911.035 0  21885910.397 0
    200256.600 7  55727688.508 7  21406686.403 0  21406686.546 0
   1084412.609 8 120998828.555 7  21231678.116 0  21231679.758 0
   -842146.157 7   -555508.804 7  23789632.136 0  23789631.997 0
 88  3  2  9 34 59.0800000  0  4  3 13 12  9
 -11519340.778 7  75654672.432 7  21879405.254 0  21879406.106 0
    234734.114 8  55754554.101 7  21413247.925 0  21413247.568 0
   1144457.205 8 121045616.528 7  21243103.348 0  21243105.633 0
   -719856.406 8   -460218.075 7  23812902.281 0  23812901.953 0
 88  3  2  9 35 29.0800000  0  4  3 13 12  9
 -11553383.504 8  75628145.649 7  21872926.724 0  21872927.927 0
    269293.146 8  55781483.211 7  21419822.713 0  21419824.130 0
   1205040.318 8 121092824.129 7  21254632.449 0  21254633.619 0
   -597484.856 7   -364863.601 6  23836189.532 0  23836189.641 0
 88  3  2  9 35 59.0800000  0  4  3 13 12  9
 -11587286.302 8  75601727.877 7  21866476.483 0  21866476.599 0
    303933.286 8  55808475.512 7  21426414.685 0  21426416.432 0
   1266159.581 7 121140449.505 7  21266264.384 0  21266264.709 0
   -475034.015 7   -269447.334 6  23859490.517 0  23859491.055 0
 88  3  2  9 36 29.0800000  0  4  3 13 12  9
 -11621050.732 8  75575417.939 7  21860051.190 0  21860051.461 0
    338653.096 7  55835529.908 7  21433020.810 0  21433023.815 0
   1327812.583 7 121188490.763 7  21277995.760 0  21277998.454 0
   -352508.103 7   -173972.570 7  23882805.900 0  23882807.493 0
 88  3  2  9 36 59.0800000  0  4  3 13 12  9
 -11654679.225 8  75549213.931 7  21853652.234 0  21853651.820 0
    373450.556 7  55862644.810 7  21439643.648 0  21439644.163 0
   1389994.682 8 121236944.325 7  21289828.195 0  21289831.447 0
   -229911.909 7    -78443.065 6  23906134.827 0  23906135.190 0
 88  3  2  9 37 29.0800000  0  4  3 13 12  9
 -11688173.064 7  75523114.858 7  21847277.950 0  21847277.795 0
    408324.254 7  55889819.107 7  21446279.192 0  21446281.969 0
   1452702.545 7 121285807.591 7  21301761.546 0  21301763.553 0
   -107249.330 7     17138.195 6  23929477.030 0  23929477.753 0
 88  3  2  9 37 59.0800000  0  4  3 13 12  9
 -11721529.020 7  75497123.213 7  21840929.823 0  21840930.777 0
    443277.539 7  55917055.444 7  21452930.992 0  21452931.737 0
   1515938.240 8 121335082.136 7  21313795.791 0  21313796.775 0
     15480.337 6    112771.720 7  23952831.155 0  23952832.834 0
 88  3  2  9 38 29.0800000  0  4  3 13 12  9
 -11754747.723 8  75471238.515 6  21834608.824 0  21834608.886 0
    478309.370 7  55944352.962 7  21459597.859 0  21459598.103 0
   1579698.803 7 121384765.667 7  21325927.774 0  21325929.366 0
    138273.784 7    208454.914 7  23976197.354 0  23976199.323 0
 88  3  2  9 38 59.0800000  0  4  3 13 12  9
 -11787833.339 7  75445457.525 7  21828313.341 0  21828313.761 0
    513415.301 7  55971708.242 7  21466279.307 0  21466278.807 0
   1643978.331 8 121434853.587 7  21338160.630 0  21338160.526 0
    261124.164 7    304182.503 7  23999574.582 0  23999577.052 0
 88  3  2  9 39 29.0800000  0  4  3 13 12  9
 -11820786.375 7  75419779.854 7  21822042.387 0  21822042.836 0
    548594.673 8  55999120.729 7  21472973.376 0  21472973.792 0
   1708774.532 8 121485344.106 7  21350492.213 0  21350491.795 0
    384028.330 7    399951.968 7  24022962.989 0  24022966.317 0
 88  3  2  9 39 59.0800000  0  4  3 13 12  9
 -11853605.808 7  75394206.295 7  21815797.015 0  21815798.130 0
    583848.971 8  56026591.604 7  21479680.566 0  21479683.172 0
   1774086.547 8 121536236.561 7  21362919.002 0  21362921.409 0
    506984.801 7    495762.226 7  24046361.701 0  24046363.531 0
 88  3  2  9 40 29.0800000  0  4  3 13 12  9
 -11886292.006 7  75368736.536 7  21809576.784 0  21809578.449 0
    619177.590 7  56054120.387 7  21486404.299 0  21486405.401 0
   1839911.885 8 121587529.019 7  21375444.560 0  21375446.767 0
    629990.917 7    591611.138 7  24069769.222 0  24069771.319 0
 88  3  2  9 40 59.0800000  0  4  3 13 12  9
 -11918846.402 7  75343369.478 7  21803381.362 0  21803382.658 0
    654578.902 8  56081705.816 7  21493140.236 0  21493141.167 0
   1906247.388 8 121639219.012 7  21388067.985 0  21388070.272 0
    753041.971 7    687495.086 7  24093185.574 0  24093186.888 0
 88  3  2  9 41 29.0800000  0  4  3 13 12  9
 -11951270.055 7  75318104.307 7  21797211.724 0  21797212.535 0
    690051.830 7  56109347.049 7  21499891.070 0  21499891.872 0
   1973089.904 8 121691304.070 7  21400788.513 0  21400790.864 0
    876134.877 7    783411.674 7  24116608.720 0  24116609.627 0
 88  3  2  9 41 59.0800000  0  4  3 13 12  9
 -11983564.389 7  75292939.898 7  21791066.023 0  21791067.609 0
    725595.342 7  56137043.293 7  21506655.354 0  21506656.399 0
   2040436.327 7 121743781.796 7  21413604.484 0  21413605.461 0
    999265.604 7    879357.734 7  24140039.901 0  24140040.929 0
 88  3  2  9 42 29.0800000  0  4  3 13 12  9
 -12015728.977 8  75267876.594 7  21784946.643 0  21784945.614 0
    761209.468 8  56164794.559 7  21513431.701 0  21513431.888 0
   2108284.745 8 121796650.665 8  21426515.582 0  21426516.487 0
   1122431.631 8    975331.288 8  24163476.727 0  24163478.559 0
 88  3  2  9 42 59.0800000  0  4  3 13 12  9
 -12047764.076 8  75242914.184 7  21778850.100 0  21778849.873 0
    796894.003 7  56192600.683 7  21520223.402 0  21520222.572 0
   2176632.353 8 121849908.516 7  21439520.848 0  21439522.776 0
   1245630.361 8   1071330.310 7  24186920.628 0  24186923.373 0
 88  3  2  9 43 29.0800000  0  4  3 13 12  9
 -12079670.523 8  75218052.026 7  21772778.384 0  21772779.341 0
    832647.834 7  56220460.815 6  21527026.292 0  21527026.736 0
   2245477.018 8 121903553.701 7  21452621.435 0  21452623.485 0
   1368858.186 7   1167351.980 8  24210370.832 0  24210372.537 0
 88  3  2  9 43 59.0800000  0  4  3 13 12  9
 -12111449.219 7  75193289.429 7  21766730.826 0  21766730.416 0
    868470.119 7  56248374.275 7  21533842.432 0  21533843.092 0
   2314815.691 8 121957583.818 7  21465816.671 0  21465818.699 0
   1492111.903 7   1263393.854 7  24233824.718 0  24233826.040 0
 88  3  2  9 44 29.0800000  0  4  3 13 12  9
 -12143101.517 7  75168625.304 7  21760707.762 0  21760707.291 0
    904360.219 8  56276340.585 7  21540672.110 0  21540673.155 0
   2384644.607 8 122011995.944 7  21479104.752 0  21479105.377 0
   1615387.222 7   1359452.563 6  24257283.080 0  24257284.905 0
 88  3  2  9 44 59.0800000  0  4  3 13 12  9
 -12174627.497 8  75144059.611 7  21754709.126 0  21754708.567 0
    940317.946 8  56304359.582 7  21547513.879 0  21547516.268 0
   2454962.069 8 122066788.747 7  21492485.541 0  21492487.749 0
   1738681.763 7   1455526.269 7  24280745.972 0  24280746.095 0
 88  3  2  9 45 29.0800000  0  4  3 13 12  9
 -12206027.413 8  75119592.145 7  21748733.268 0  21748734.357 0
    976342.319 8  56332430.509 7  21554368.640 0  21554370.915 0
   2525765.102 7 122121959.914 8  21505959.240 0  21505961.369 0
   1861992.327 7   1551612.441 7  24304210.107 0  24304211.929 0
 88  3  2  9 45 59.0800000  0  4  3 13 12  9
 -12237302.115 7  75095222.265 7  21742781.098 0  21742782.684 0
   1012432.873 7  56360553.016 7  21561237.166 0  21561239.728 0
   2597051.157 8 122177507.482 7  21519524.390 0  21519526.547 0
   1985315.843 6   1647708.685 7  24327676.427 0  24327678.464 0
 88  3  2  9 46 29.0800000  0  4  3 13 12  9
 -12268451.448 7  75070950.048 7  21736853.146 0  21736854.982 0
   1048590.281 7  56388727.622 7  21568117.555 0  21568119.989 0
   2668817.533 7 122233429.314 7  21533180.983 0  21533182.746 0
   2108650.093 6   1743813.294 7  24351147.874 0  24351148.934 0
 88  3  2  9 46 59.0800000  0  4  3 13 12  9
 -12299478.201 8  75046773.341 7  21730950.250 0  21730951.279 0
   1084811.811 7  56416952.180 7  21575010.994 0  21575012.669 0
   2741059.753 7 122289721.932 7  21546927.937 0  21546929.658 0
   2231989.752 5   1839922.093 6  24374617.428 0  24374618.926 0
 88  3  2  9 47 29.0800000  0  4  3 13 12  9
 -12330382.197 7  75022692.302 7  21725069.011 0  21725069.338 0
   1121096.618 7  56445226.046 7  21581916.625 0  21581917.942 0
   2813775.374 8 122346383.432 7  21560766.557 0  21560767.240 0
   2355331.869 6   1936032.811 7  24398089.558 0  24398091.645 0
 88  3  2  9 47 59.0800000  0  4  3 13 12  9
 -12361163.025 8  74998707.260 7  21719211.447 0  21719211.878 0
   1157445.793 8  56473550.062 7  21588833.416 0  21588835.005 0
   2886963.071 7 122403412.787 7  21574693.586 0  21574694.456 0
   2478674.764 6   2032144.177 7  24421561.273 0  24421562.173 0
 88  3  2  9 48 29.0800000  0  4  3 13 12  9
 -12391822.021 7  74974817.137 7  21713377.986 0  21713378.127 0
   1193857.760 8  56501923.023 7  21595761.784 0  21595763.487 0
   2960619.207 7 122460807.150 7  21588709.389 0  21588710.838 0
   2602014.435 7   2128253.055 6  24445032.394 0  24445032.435 0
 88  3  2  9 48 59.0800000  0  4  3 13 12  9
 -12422360.107 7  74951021.213 7  21707565.381 0  21707566.592 0
   1230332.047 8  56530344.539 7  21602703.631 0  21602703.817 0
   3034740.276 7 122518563.800 6  21602814.067 0  21602816.317 0
   2725347.153 7   2224356.515 6  24468502.317 0  24468502.208 0
 88  3  2  9 49 29.0800000  0  4  3 13 12  9
 -12452776.814 8  74927319.882 7  21701777.484 0  21701778.641 0
   1266868.988 8  56558814.879 7  21609656.239 0  21609657.226 0
   3109324.141 7 122576681.080 7  21617007.326 0  21617008.982 0
   2848671.042 8   2320453.067 6  24491969.947 0  24491970.059 0
 88  3  2  9 49 59.0800000  0  4  3 13 12  9
 -12483073.119 8  74903712.371 7  21696013.544 0  21696013.307 0
   1303468.268 7  56587333.806 6  21616620.436 0  21616620.250 0
   3184368.022 8 122635156.811 7  21631288.292 0  21631289.348 0
   2971982.689 7   2416540.070 7  24515435.097 0  24515436.447 0
 88  3  2  9 50 29.0800000  0  4  3 13 12  9
 -12513250.322 7  74880197.662 6  21690270.901 0  21690271.761 0
   1340128.531 7  56615900.233 7  21623596.010 0  21623597.069 0
   3259868.237 7 122693988.117 7  21645655.279 0  21645656.557 0
   3095277.890 7   2512614.250 7  24538898.065 0  24538897.942 0
 88  3  2  9 50 59.0800000  0  4  3 13 12  9
 -12543308.879 8  74856775.418 7  21684550.518 0  21684552.270 0
   1376848.977 7  56644513.565 7  21630584.577 0  21630585.335 0
   3335821.688 8 122753172.612 7  21660108.178 0  21660109.591 0
   3218553.940 8   2608673.539 7  24562357.017 0  24562356.886 0
 88  3  2  9 51 29.0800000  0  4  3 13 12  9
 -12573249.296 7  74833445.227 7  21678853.636 0  21678854.313 0
   1413629.239 7  56673173.505 7  21637583.589 0  21637584.391 0
   3412225.660 7 122812708.150 7  21674644.622 0  21674648.796 0
   3341807.651 7   2704715.412 6  24585811.392 0  24585811.269 0
 88  3  2  9 51 59.0800000  0  4  3 13 12  9
 -12603071.587 8  74810207.072 7  21673178.241 0  21673178.172 0
   1450469.163 7  56701879.932 7  21644593.948 0  21644594.778 0
   3489077.550 7 122872592.710 7  21689270.647 0  21689272.933 0
   3465036.672 7   2800738.052 7  24609260.209 0  24609259.917 0
 88  3  2  9 52 29.0800000  0  4  3 13 12  9
 -12632777.114 8  74787059.889 7  21667525.227 0  21667525.887 0
   1487367.495 7  56730631.868 7  21651614.810 0  21651615.984 0
   3566373.983 7 122932823.684 7  21703980.783 0  21703982.281 0
   3588237.133 7   2896738.385 7  24632704.658 0  24632705.647 0
 88  3  2  9 52 59.0800000  0  4  3 13 12  9
 -12662366.429 8  74764003.282 7  21661894.760 0  21661896.014 0
   1524324.000 7  56759429.152 7  21658648.336 0  21658648.351 0
   3644111.451 8 122993398.304 7  21718773.131 0  21718775.732 0
   3711405.422 7   2992713.681 7  24656144.099 0  24656143.474 0
 88  3  2  9 53 29.0800000  0  4  3 13 12  9
 -12691839.124 8  74741037.552 8  21656286.515 0  21656287.218 0
   1561339.966 7  56788272.763 6  21665691.192 0  21665691.507 0
   3722287.881 8 123054314.984 7  21733650.090 0  21733652.047 0
   3834539.602 7   3088662.405 7  24679574.987 0  24679574.566 0
 88  3  2  9 53 59.0800000  0  4  3 13 12  9
 -12721197.091 7  74718161.220 7  21650699.251 0  21650700.888 0
   1598412.798 8  56817160.679 7  21672747.512 0  21672746.883 0
   3800899.554 8 123115570.820 7  21748609.213 0  21748612.736 0
   3957635.527 7   3184581.309 7  24702998.948 0  24702999.897 0
 88  3  2  9 54 29.0800000  0  4  3 13 12  9
 -12750440.286 8  74695374.308 7  21645135.629 0  21645135.470 0
   1635542.572 8  56846092.952 6  21679811.989 0  21679812.791 0
   3879943.159 7 123177163.230 7  21763650.362 0  21763652.791 0
   4080690.375 7   3280468.177 7  24726417.103 0  24726415.993 0
 88  3  2  9 54 59.0800000  0  4  3 13 12  9
 -12779569.068 8  74672676.537 7  21639592.649 0  21639592.222 0
   1672729.499 8  56875069.791 7  21686889.158 0  21686888.601 0
   3959416.089 8 123239090.170 7  21778773.082 0  21778775.847 0
   4203701.547 6   3376321.022 7  24749825.096 0  24749824.038 0
 88  3  2  9 55 29.0800000  0  4  3 13 12  9
 -12808583.640 7  74650067.795 7  21634071.075 0  21634071.767 0
   1709973.178 8  56904090.842 7  21693975.514 0  21693975.600 0
   4039315.622 7 123301349.519 7  21793976.513 0  21793979.964 0
   4326666.204 7   3472137.636 7  24773224.074 0  24773223.918 0
 88  3  2  9 55 59.0800000  0  4  3 13 12  9
 -12837484.618 7  74627547.565 7  21628571.176 0  21628572.580 0
   1747273.345 7  56933155.902 7  21701074.590 0  21701074.876 0
   4119638.198 8 123363938.513 6  21809263.065 0  21809264.786 0
   4449580.847 6   3567915.268 7  24796613.797 0  24796613.476 0
 88  3  2  9 56 29.0800000  0  4  3 13 12  9
 -12866272.968 7  74605115.082 7  21623092.920 0  21623094.005 0
   1784628.492 7  56962263.797 7  21708181.780 0  21708181.680 0
   4200380.692 8 123426854.733 6  21824628.218 0  21824630.131 0
   4572442.244 6   3663651.405 7  24819992.549 0  24819992.626 0
 88  3  2  9 56 59.0800000  0  4  3 13 12  9
 -12894949.668 7  74582769.618 7  21617635.834 0  21617636.164 0
   1822038.108 8  56991414.154 6  21715301.332 0  21715301.620 0
   4281539.306 8 123490095.190 7  21840073.030 0  21840074.500 0
   4695246.641 6   3759343.074 7  24843360.466 0  24843361.758 0
 88  3  2  9 57 29.0800000  0  4  3 13 12  9
 -12923514.539 7  74560511.269 8  21612199.699 0  21612200.049 0
   1859502.901 7  57020607.502 7  21722429.099 0  21722431.116 0
   4363111.694 8 123553658.086 7  21855595.047 0  21855596.947 0
   4817992.092 6   3854988.808 7  24866719.546 0  24866720.838 0
 88  3  2  9 57 59.0800000  0  4  3 13 12  9
 -12951968.317 7  74538339.514 7  21606786.124 0  21606785.690 0
   1897022.515 7  57049843.563 7  21729570.216 0  21729570.746 0
   4445094.575 8 123617540.826 7  21871195.078 0  21871197.586 0
   4940675.208 7   3950586.049 7  24890065.915 0  24890065.588 0
 88  3  2  9 58 29.0800000  0  3  3 13 12
 -12980312.064 7  74516253.473 7  21601391.931 0  21601392.265 0
   1934595.580 8  57079121.270 7  21736720.734 0  21736722.251 0
   4265094.075 8 123681739.578 4          .000 0  21886877.069 0
 88  3  2  9 58 59.0800000  0  3  3 13 12
 -13008545.221 7  74494253.621 7  21596018.457 0  21596019.736 0
   1972222.490 7  57108440.947 7  21743881.139 0  21743881.970 0
   4085093.575 8 123746257.567 4          .000 0  21902629.726 0
 88  3  2  9 59 29.0800000  0  3  3 13 12
 -13036668.719 7  74472339.193 7  21590666.648 0  21590668.935 0
   2009903.041 8  57137802.418 6  21751051.132 0  21751050.961 0
 -12768410.786 1 123974257.067 4          .000 0          .000 0
 88  3  2  9 59 59.0800000  0  3  3 13 12
 -13064683.440 8  74450509.539 7  21585336.647 0  21585336.782 0
   2047636.307 8  57167204.954 7  21758232.145 0  21758232.436 0
 -12684778.583 7 124202256.567 4  21934350.544 0          .000 0
 88  3  2 10  0 29.0800000  0  3  3 13 12
 -13092589.078 7  74428764.896 7  21580025.619 0  21580026.784 0
   2085422.691 8  57196648.897 7  21765421.655 0  21765423.120 0
 -12600791.288 7 136398719.956 7  21950351.760 0  21950352.375 0
 88  3  2 10  0 59.0800000  0  3  3 13 12
 -13120386.068 7  74407104.927 7  21574735.757 0  21574737.498 0
   2123262.085 7  57226134.133 7  21772622.370 0  21772622.762 0
 -12516411.842 8 136464470.140 8  21966408.347 0  21966408.368 0
 88  3  2 10  1 29.0800000  0  3  3 13 12
 -13148075.775 7  74385528.531 7  21569466.955 0  21569467.906 0
   2161153.652 8  57255660.028 7  21779832.958 0  21779832.964 0
 -12431645.066 7 136530522.175 7  21982536.595 0  21982538.734 0
 88  3  2 10  1 59.0800000  0  3  3 13 12
 -13175659.306 8  74364034.869 7  21564218.246 0  21564218.124 0
   2199096.061 8  57285225.526 6  21787052.203 0  21787053.124 0
 -12346494.832 7 136596872.981 7  21998739.365 0  21998743.157 0
 88  3  2 10  2 29.0800000  0  3  3 13 12
 -13203136.269 7  74342624.257 7  21558988.885 0  21558990.543 0
   2237089.982 7  57314831.177 6  21794283.081 0  21794283.073 0
 -12260963.519 7 136663520.722 7  22015016.049 0  22015019.769 0
 88  3  2 10  2 59.0800000  0  3  3 13 12
 -13230506.266 7  74321296.971 7  21553780.503 0  21553782.015 0
   2275135.637 7  57344477.135 7  21801522.846 0  21801523.380 0
 -12175053.200 7 136730463.833 8  22031364.372 0  22031367.764 0
 88  3  2 10  3 29.0800000  0  3  3 13 12
 -13257770.767 7  74300051.912 7  21548592.726 0  21548593.967 0
   2313232.513 7  57374163.013 6  21808772.769 0  21808774.477 0
 -12088767.966 7 136797699.067 7  22047785.372 0  22047787.218 0
 88  3  2 10  3 59.0800000  0  3  3 13 12
 -13284929.406 7  74278889.347 7  21543425.287 0  21543425.762 0
   2351380.291 7  57403888.533 7  21816032.768 0  21816033.760 0
 -12002110.662 8 136865224.222 7  22064275.285 0  22064277.202 0
 88  3  2 10  4 29.0800000  0  3  3 13 12
 -13311982.370 7  74257809.123 7  21538275.562 0  21538278.374 0
   2389579.036 8  57433653.791 6  21823299.890 0  21823300.826 0
 -11915084.652 8 136933036.676 7  22080835.592 0  22080836.837 0
 88  3  2 10  4 59.0800000  0  3  3 13 12
 -13338932.243 7  74236809.222 7  21533146.783 0  21533149.816 0
   2427827.361 8  57463457.676 7  21830578.275 0  21830579.683 0
 -11827695.172 8 137001132.376 7  22097465.921 0  22097467.072 0
 88  3  2 10  5 29.0800000  0  3  3 13 12
 -13365777.676 7  74215890.715 7  21528039.904 0  21528040.336 0
   2466125.885 7  57493300.694 7  21837867.163 0  21837868.585 0
 -11739943.564 8 137069510.220 7  22114164.290 0  22114165.706 0
 88  3  2 10  5 59.0800000  0  3  3 13 12
 -13392518.841 7  74195053.454 8  21522951.394 0  21522951.558 0
   2504475.377 7  57523183.405 7  21845164.136 0  21845165.673 0
 -11651832.731 8 137138168.017 7  22130930.620 0  22130932.687 0
 88  3  2 10  6 29.0800000  0  3  3 13 12
 -13419156.220 8  74174297.065 7  21517882.427 0  21517884.104 0
   2542875.118 7  57553105.275 7  21852472.498 0  21852472.947 0
 -11563366.512 8 137207102.712 8  22147765.420 0  22147767.474 0
 88  3  2 10  6 59.0800000  0  3  3 13 12
 -13445691.158 7  74153620.513 7  21512832.877 0  21512833.885 0
   2581323.616 7  57583065.139 6  21859788.674 0  21859789.266 0
 -11474549.319 8 137276310.897 7  22164667.416 0  22164669.841 0
 88  3  2 10  7 29.0800000  0  3  3 13 12
 -13472123.739 8  74133023.693 7  21507803.561 0  21507803.618 0
   2619821.072 8  57613063.154 7  21867113.278 0  21867115.600 0
 -11385383.946 8 137345790.391 7  22181634.562 0  22181637.288 0
 88  3  2 10  7 59.0800000  0  3  3 13 12
 -13498454.077 7  74112506.543 7  21502791.434 0  21502792.643 0
   2658368.188 7  57643099.858 7  21874450.244 0  21874450.607 0
 -11295873.825 7 137415538.543 7  22198668.925 0  22198670.249 0
 88  3  2 10  8 29.0800000  0  3  3 13 12
 -13524683.146 8  74092068.325 6  21497802.011 0  21497801.925 0
   2696963.533 7  57673174.150 6  21881793.679 0  21881795.172 0
 -11206022.617 8 137485552.443 7  22215766.306 0  22215766.800 0
 88  3  2 10  8 59.0800000  0  3  3 13 12
 -13550811.072 8  74071708.907 6  21492828.852 0  21492830.075 0
   2735608.100 7  57703286.789 7  21889147.687 0  21889149.124 0
 -11115833.124 7 137555829.986 7  22232927.807 0  22232930.389 0
 88  3  2 10  9 29.0800000  0  3  3 13 12
 -13576837.493 7  74051428.594 7  21487877.067 0  21487876.712 0
   2774302.330 7  57733438.130 7  21896509.738 0  21896511.575 0
 -11025308.151 7 137626368.880 7  22250154.549 0  22250156.660 0
 88  3  2 10  9 59.0800000  0  3  3 13 12
 -13602763.119 8  74031226.822 7  21482943.758 0  21482943.889 0
   2813044.835 7  57763627.081 7  21903882.807 0  21903884.473 0
 -10934451.892 7 137697165.950 7  22267442.851 0  22267445.870 0
 88  3  2 10 10 29.0800000  0  3  3 13 12
 -13628589.076 7  74011102.711 7  21478029.955 0  21478029.226 0
   2851835.453 7  57793853.551 7  21911264.461 0  21911265.468 0
 -10843267.997 7 137768218.318 7  22284794.506 0  22284797.060 0
 88  3  2 10 10 59.0800000  0  3  3 13 12
 -13654314.632 8  73991056.824 7  21473131.919 0  21473133.074 0
   2890675.110 7  57824118.219 7  21918655.474 0  21918656.825 0
 -10751758.752 7 137839524.202 8  22302209.537 0  22302210.824 0
 88  3  2 10 11 29.0800000  0  3  3 13 12
 -13679939.659 7  73971089.266 7  21468257.206 0  21468257.235 0
   2929563.682 7  57854421.002 7  21926055.101 0  21926057.967 0
 -10659927.492 7 137911081.019 7  22319684.359 0  22319686.068 0
 88  3  2 10 11 59.0800000  0  3  3 13 12
 -13705465.742 7  73951198.840 7  21463399.515 0  21463399.901 0
   2968500.095 7  57884761.061 8  21933466.432 0  21933466.065 0
 -10567778.920 8 137982885.092 7  22337220.366 0  22337220.459 0
 88  3  2 10 12 29.0800000  0  3  3 13 12
 -13730894.012 8  73931384.619 7  21458560.539 0  21458560.764 0
   3007483.804 7  57915137.967 7  21940883.587 0  21940884.523 0
 -10475317.216 7 138054933.140 7  22354814.669 0  22354817.910 0
 88  3  2 10 12 59.0800000  0  3  3 13 12
 -13756222.423 7  73911648.182 7  21453740.645 0  21453741.585 0
   3046516.684 7  57945553.200 7  21948311.475 0  21948312.825 0
 -10382543.414 7 138127224.403 7  22372469.071 0  22372471.132 0
 88  3  2 10 13 29.0800000  0  3  3 13 12
 -13781451.980 7  73891988.808 7  21448939.027 0  21448939.936 0
   3085597.799 8  57976006.013 6  21955749.192 0  21955749.656 0
 -10289462.268 7 138199755.147 7  22390181.468 0  22390183.636 0
 88  3  2 10 13 59.0800000  0  3  3 13 12
 -13806583.705 7  73872405.655 7  21444156.878 0  21444157.882 0
   3124726.595 8  58006495.964 7  21963194.093 0  21963195.415 0
 -10196077.503 7 138272522.498 7  22407952.018 0  22407953.878 0
 88  3  2 10 14 29.0800000  0  3  3 13 12
 -13831617.395 7  73852898.876 8  21439393.741 0  21439393.755 0
   3163903.124 7  58037023.145 6  21970650.041 0  21970651.048 0
 -10102391.915 8 138345524.243 8  22425779.661 0  22425782.101 0
 88  3  2 10 14 59.0800000  0  3  3 13 12
 -13856554.216 8  73833467.601 7  21434647.986 0  21434648.877 0
   3203127.373 7  58067587.486 6  21978113.401 0  21978115.610 0
 -10008409.959 8 138418756.952 7  22443662.675 0  22443665.185 0
 88  3  2 10 15 29.0800000  0  3  3 13 12
 -13881394.235 7  73814111.762 7  21429919.521 0  21429921.807 0
   3242399.309 7  58098188.985 6  21985586.848 0  21985587.069 0
  -9914134.911 7 138492218.029 7  22461604.655 0  22461605.478 0
 88  3  2 10 15 59.0800000  0  3  3 13 12
 -13906136.450 7  73794832.120 7  21425212.941 0  21425213.138 0
   3281720.375 8  58128828.769 7  21993068.925 0  21993071.806 0
  -9819568.578 8 138565906.058 8  22479600.324 0  22479600.546 0
 88  3  2 10 16 29.0800000  0  3  3 13 12
 -13930781.319 7  73775628.329 7  21420523.422 0  21420523.890 0
   3321089.333 7  58159505.875 7  22000560.016 0  22000561.724 0
  -9724714.831 8 138639818.050 7  22497650.154 0  22497651.878 0
 88  3  2 10 16 59.0800000  0  3  3 13 12
 -13955330.327 8  73756499.251 6  21415850.734 0  21415851.412 0
   3360505.517 7  58190219.798 7  22008060.909 0  22008062.002 0
  -9629579.040 8 138713949.825 7  22515754.165 0  22515754.358 0
 88  3  2 10 17 29.0800000  0  3  3 13 12
 -13979783.207 8  73737445.053 7  21411197.978 0  21411199.454 0
   3399969.085 7  58220970.617 8  22015572.118 0  22015573.297 0
  -9534163.773 8 138788299.378 7  22533910.162 0  22533911.800 0
 88  3  2 10 17 59.0800000  0  3  3 13 12
 -14004139.044 7  73718466.501 7  21406563.592 0  21406563.713 0
   3439481.748 7  58251759.708 7  22023090.797 0  22023090.832 0
  -9438471.279 7 138862864.940 7  22552120.361 0  22552120.998 0
 88  3  2 10 18 29.0800000  0  3  3 13 12
 -14028398.465 7  73699563.061 7  21401947.507 0  21401947.327 0
   3479042.445 7  58282586.213 6  22030617.990 0  22030619.499 0
  -9342505.410 8 138937643.524 7  22570381.845 0  22570382.918 0
 88  3  2 10 18 59.0800000  0  3  3 13 12
 -14052561.863 7  73680734.448 6  21397349.270 0  21397349.119 0
   3518651.815 7  58313450.655 7  22038156.459 0  22038157.724 0
  -9246269.614 8 139012632.433 8  22588696.058 0  22588696.845 0
 88  3  2 10 19 29.0800000  0  3  3 13 12
 -14076631.018 8  73661979.280 7  21392768.818 0  21392769.966 0
   3558308.172 7  58344351.703 6  22045702.783 0  22045702.932 0
  -9149768.759 7 139087827.891 6  22607057.385 0  22607059.473 0
 88  3  2 10 19 59.0800000  0  3  3 13 12
 -14100604.995 7  73643298.279 6  21388205.581 0  21388206.364 0
   3598012.499 8  58375290.147 7  22053258.281 0  22053257.499 0
  -9053005.999 8 139163227.437 7  22625471.018 0  22625472.627 0
 88  3  2 10 20 29.0800000  0  3  3 13 12
 -14124483.316 7  73624691.806 7  21383663.199 0  21383663.199 0
   3637765.984 7  58406266.888 7  22060822.763 0  22060824.572 0
  -8955983.830 8 139238829.118 7  22643934.433 0  22643935.650 0
 88  3  2 10 20 59.0800000  0  3  3 13 12
 -14148266.728 7  73606159.273 7  21379137.105 0  21379137.935 0
   3677567.994 7  58437281.428 7  22068396.204 0  22068397.540 0
  -8858705.828 8 139314630.184 7  22662446.149 0  22662446.957 0
 88  3  2 10 21 29.0800000  0  3  3 13 12
 -14171954.834 7  73587701.034 7  21374628.729 0  21374629.670 0
   3717418.736 8  58468333.951 6  22075979.331 0  22075981.898 0
  -8761175.504 7 139390627.823 7  22681004.841 0  22681006.051 0
 88  3  2 10 21 59.0800000  0  3  3 13 12
 -14195548.840 7  73569316.088 7  21370139.961 0  21370139.871 0
   3757317.294 7  58499423.742 7  22083573.177 0  22083573.526 0
  -8663397.413 8 139466818.528 7  22699611.613 0  22699612.959 0
 88  3  2 10 22 29.0800000  0  3  3 13 12
 -14219048.162 7  73551004.934 7  21365667.644 0  21365666.993 0
   3797264.642 7  58530551.539 6  22091173.533 0  22091175.513 0
  -8565374.329 7 139543200.155 8  22718264.168 0  22718265.985 0
 88  3  2 10 22 59.0800000  0  3  3 13 12
 -14242452.953 7  73532767.447 7  21361212.706 0  21361215.274 0
   3837260.746 8  58561717.338 7  22098786.066 0  22098787.116 0
  -8467109.987 7 139619769.742 7  22736962.053 0  22736966.224 0
 88  3  2 10 23 29.0800000  0  3  3 13 12
 -14265763.617 7  73514603.305 7  21356778.374 0  21356778.026 0
   3877305.583 7  58592921.120 6  22106404.280 0  22106406.704 0
  -8368608.223 7 139696524.372 7  22755707.316 0  22755709.220 0
 88  3  2 10 23 59.0800000  0  3  3 13 12
 -14288979.933 7  73496512.656 7  21352360.170 0  21352360.671 0
   3917399.602 7  58624163.213 7  22114035.773 0  22114036.079 0
  -8269871.492 8 139773462.063 7  22774497.568 0  22774498.820 0
 88  3  2 10 24 29.0800000  0  3  3 13 12
 -14312103.028 7  73478494.680 7  21347958.659 0  21347961.449 0
   3957542.190 7  58655443.149 7  22121674.034 0  22121675.327 0
  -8170904.428 8 139850579.249 7  22793329.602 0  22793332.107 0
 88  3  2 10 24 59.0800000  0  3  3 13 12
 -14335132.930 8  73460549.315 7  21343577.227 0  21343578.160 0
   3997733.897 7  58686761.368 7  22129321.181 0  22129322.474 0
  -8071710.336 7 139927873.333 8  22812204.965 0  22812206.975 0
 88  3  2 10 25 29.0800000  0  3  3 13 12
 -14358068.997 8  73442677.049 7  21339212.977 0  21339213.674 0
   4037975.143 7  58718118.172 7  22136979.905 0  22136980.610 0
  -7972292.264 7 140005341.971 7  22831123.899 0  22831126.453 0
 88  3  2 10 25 59.0800000  0  3  3 13 12
 -14380909.954 8  73424878.919 7  21334865.626 0  21334866.603 0
   4078266.940 7  58749514.396 7  22144647.871 0  22144647.590 0
  -7872652.662 8 140082983.195 7  22850085.431 0  22850087.535 0
 88  3  2 10 26 29.0800000  0  3  3 13 12
 -14403656.741 8  73407154.144 7  21330537.195 0  21330537.897 0
   4118609.139 7  58780949.861 7  22152324.123 0  22152323.814 0
  -7772795.726 8 140160793.792 7  22869087.416 0  22869089.197 0
 88  3  2 10 26 59.0800000  0  3  3 13 12
 -14426310.206 7  73389502.115 7  21326227.911 0  21326227.163 0
   4159000.847 7  58812423.932 7  22160009.333 0  22160010.855 0
  -7672726.497 8 140238769.802 7  22888129.938 0  22888132.034 0
 88  3  2 10 27 29.0800000  0  3  3 13 12
 -14448870.175 8  73371922.935 6  21321934.556 0  21321934.895 0
   4199443.386 7  58843937.585 7  22167706.376 0  22167707.740 0
  -7572446.977 8 140316909.680 7  22907213.156 0  22907214.608 0
 88  3  2 10 27 59.0800000  0  3  3 13 12
 -14471336.740 7  73354416.516 7  21317658.379 0  21317658.840 0
   4239936.261 8  58875490.488 6  22175411.117 0  22175413.040 0
  -7471961.100 8 140395210.358 7  22926334.479 0  22926336.783 0
 88  3  2 10 28 29.0800000  0  3  3 13 12
 -14493710.110 8  73336982.718 6  21313401.269 0  21313401.651 0
   4280479.548 7  58907082.665 6  22183126.505 0  22183127.526 0
  -7371272.783 7 140473668.768 7  22945494.273 0  22945496.784 0
 88  3  2 10 28 59.0800000  0  3  3 13 12
 -14515990.062 8  73319621.733 7  21309161.723 0  21309162.095 0
   4321073.489 7  58938714.323 6  22190850.248 0  22190851.428 0
  -7270385.105 8 140552282.527 7  22964692.765 0  22964694.282 0
 88  3  2 10 29 29.0800000  0  3  3 13 12
 -14538177.232 7  73302333.037 7  21304939.464 0  21304940.121 0
   4361718.117 7  58970385.454 7  22198585.612 0  22198586.319 0
  -7169301.899 8 140631048.674 7  22983928.376 0  22983929.456 0
 88  3  2 10 29 59.0800000  0  3  3 13 12
 -14560270.860 8  73285117.246 7  21300734.385 0  21300736.152 0
   4402414.039 7  59002096.553 7  22206329.318 0  22206330.969 0
  -7068026.725 8 140709964.367 7  23003200.933 0  23003202.035 0
 88  3  2 10 30 29.0800000  0  3  3 13 12
 -14582270.039 8  73267975.037 7  21296549.161 0  21296549.683 0
   4443162.522 7  59033848.623 7  22214085.200 0  22214084.862 0
  -6966561.812 7 140789027.944 7  23022508.763 0  23022510.194 0
 88  3  2 10 30 59.0800000  0  3  3 13 12
 -14604175.676 8  73250905.705 7  21292380.596 0  21292380.896 0
   4483963.271 7  59065641.410 7  22221847.980 0  22221849.145 0
  -6864911.398 8 140868236.073 7  23041851.835 0  23041854.447 0
 88  3  2 10 31 29.0800000  0  3  3 13 12
 -14625989.466 8  73233907.962 7  21288229.947 0  21288229.431 0
   4524814.587 7  59097473.590 7  22229620.046 0  22229622.899 0
  -6763080.917 8 140947584.500 7  23061229.615 0  23061232.856 0
 88  3  2 10 31 59.0800000  0  3  3 13 12
 -14647709.861 7  73216982.982 7  21284095.728 0  21284096.028 0
   4565717.969 7  59129346.366 7  22237404.104 0  22237406.012 0
  -6661072.467 8 141027071.609 7  23080641.637 0  23080642.524 0
 88  3  2 10 32 29.0800000  0  3  3 13 12
 -14669336.022 7  73200131.456 7  21279981.302 0  21279980.994 0
   4606674.419 7  59161260.472 6  22245198.750 0  22245200.314 0
  -6558888.624 7 141106695.372 7  23100085.675 0  23100088.745 0
 88  3  2 10 32 59.0800000  0  3  3 13 12
 -14690867.703 8  73183353.529 7  21275884.268 0  21275883.242 0
   4647685.281 7  59193216.980 6  22253003.913 0  22253004.005 0
  -6456533.061 7 141186452.976 7  23119564.435 0  23119566.338 0
 88  3  2 10 33 29.0800000  0  3  3 13 12
 -14712306.296 7  73166648.130 7  21271803.492 0  21271804.023 0
   4688748.500 7  59225214.291 6  22260817.777 0  22260818.397 0
  -6354011.110 8 141266340.195 7  23139073.259 0  23139075.555 0
 88  3  2 10 33 59.0800000  0  3  3 13 12
 -14733650.348 7  73150016.429 7  21267742.009 0  21267743.736 0
   4729865.872 8  59257253.803 7  22268643.903 0  22268642.034 0
  -6251324.355 7 141346355.842 7  23158614.006 0  23158614.943 0
 88  3  2 10 34 29.0800000  0  3  3 13 12
 -14754901.153 7  73133457.359 7  21263698.128 0  21263698.299 0
   4771036.631 7  59289334.923 8  22276478.701 0  22276478.578 0
  -6148477.128 7 141426496.546 7  23178185.338 0  23178186.920 0
 88  3  2 10 34 59.0800000  0  3  3 13 12
 -14776058.467 7  73116971.140 7  21259672.680 0  21259673.456 0
   4812261.361 7  59321458.075 7  22284322.228 0  22284322.419 0
  -6045473.023 7 141506759.484 7  23197787.465 0  23197788.281 0
 88  3  2 10 35 29.0800000  0  3  3 13 12
 -14797121.818 7  73100558.155 7  21255663.803 0  21255664.449 0
   4853540.377 7  59353623.543 7  22292176.943 0  22292178.451 0
  -5942315.395 7 141587142.034 7  23217414.833 0  23217417.695 0
 88  3  2 10 35 59.0800000  0  3  3 13 12
 -14818091.925 7  73084217.818 7  21251672.861 0  21251673.490 0
   4894873.731 7  59385831.333 7  22300042.792 0  22300043.986 0
  -5839008.503 7 141667640.902 7  23237074.303 0  23237076.379 0
 88  3  2 10 36 29.0800000  0  3  3 13 12
 -14838967.612 8  73067951.074 7  21247701.513 0  21247701.115 0
   4936262.300 7  59418082.174 6  22307917.857 0  22307918.620 0
  -5735555.037 7 141748254.014 7  23256760.955 0  23256763.094 0
 88  3  2 10 36 59.0800000  0  3  3 13 12
 -14859747.852 8  73051758.684 6  21243747.439 0  21243746.941 0
   4977707.014 7  59450376.766 7  22315805.169 0  22315806.533 0
  -5631957.386 7 141828979.451 7  23276476.131 0  23276477.061 0
 88  3  2 10 37 29.0800000  0  3  3 13 12
 -14880434.452 7  73035639.268 7  21239810.955 0  21239810.922 0
   5019207.206 7  59482714.564 6  22323703.185 0  22323703.261 0
  -5528220.882 7 141909813.090 7  23296215.353 0  23296216.477 0
 88  3  2 10 37 59.0800000  0  3  3 13 12
 -14901027.264 7  73019592.924 7  21235891.457 0  21235891.760 0
   5060763.198 7  59515095.859 7  22331611.360 0  22331610.693 0
  -5424348.922 8 141990752.288 8  23315983.982 0  23315984.697 0
 88  3  2 10 38 29.0800000  0  3  3 13 12
 -14921525.203 7  73003620.524 7  21231990.227 0  21231990.641 0
   5102375.561 7  59547521.037 7  22339529.394 0  22339530.201 0
  -5320344.305 7 142071794.816 7  23335774.775 0  23335776.077 0
 88  3  2 10 38 59.0800000  0  3  3 13 12
 -14941928.059 7  72987722.190 7  21228107.678 0  21228108.961 0
   5144045.194 7  59579990.879 7  22347458.203 0  22347459.210 0
  -5216210.488 8 142152938.059 7  23355590.352 0  23355591.739 0
 88  3  2 10 39 29.0800000  0  3  3 13 12
 -14962235.706 7  72971898.073 7  21224243.244 0  21224244.574 0
   5185772.368 7  59612505.545 7  22355398.460 0  22355399.467 0
  -5111950.604 7 142234179.523 8  23375428.136 0  23375432.021 0
 88  3  2 10 39 59.0800000  0  3  3 13 12
 -14982448.934 8  72956147.509 7  21220397.287 0  21220398.206 0
   5227556.746 8  59645064.803 6  22363349.120 0  22363351.858 0
  -5007569.537 7 142315515.414 7  23395291.084 0  23395294.882 0
 88  3  2 10 40 29.0800000  0  3  3 13 12
 -15002566.131 7  72940471.792 7  21216569.854 0  21216570.075 0
   5269399.662 7  59677669.669 7  22371311.584 0  22371313.578 0
  -4903069.864 8 142396943.719 7  23415176.503 0  23415180.260 0
 88  3  2 10 40 59.0800000  0  3  3 13 12
 -15022587.284 7  72924870.877 7  21212760.024 0  21212760.163 0
   5311301.310 7  59710320.305 6  22379285.538 0  22379285.715 0
  -4798454.499 8 142478462.212 7  23435084.976 0  23435087.494 0
 88  3  2 10 41 29.0800000  0  3  3 13 12
 -15042512.226 7  72909344.977 7  21208966.847 0  21208968.792 0
   5353261.508 7  59743016.550 7  22387270.898 0  22387271.647 0
  -4693727.365 8 142560067.811 7  23455014.139 0  23455016.493 0
 88  3  2 10 41 59.0800000  0  3  3 13 12
 -15062342.374 8  72893892.911 7  21205193.602 0  21205194.854 0
   5395280.487 7  59775758.617 7  22395267.390 0  22395267.595 0
  -4588893.051 8 142641756.920 7  23474963.549 0  23474965.324 0
 88  3  2 10 42 29.0800000  0  3  3 13 12
 -15082076.524 7  72878515.661 6  21201438.394 0  21201439.986 0
   5437358.919 7  59808546.986 7  22403274.198 0  22403274.733 0
  -4483954.174 8 142723527.507 7  23494934.216 0  23494934.859 0
 88  3  2 10 42 59.0800000  0  3  3 13 12
 -15101713.472 7  72863214.157 7  21197702.053 0  21197702.618 0
   5479498.440 7  59841382.957 7  22411293.369 0  22411294.033 0
  -4378913.947 8 142805377.074 7  23514922.555 0  23514922.562 0
 88  3  2 10 43 29.0800000  0  3  3 13 12
 -15121254.166 7  72847987.642 7  21193983.266 0  21193983.995 0
   5521697.834 8  59874265.586 7  22419323.373 0  22419323.408 0
  -4273776.684 7 142887302.239 7  23534930.597 0  23534929.724 0
 88  3  2 10 43 59.0800000  0  3  3 13 12
 -15140698.006 8  72832836.607 7  21190282.844 0  21190283.134 0
   5563957.895 8  59907195.492 7  22427364.868 0  22427366.805 0
  -4168545.234 7 142969300.767 7  23554954.716 0  23554954.730 0
 88  3  2 10 44 29.0800000  0  3  3 13 12
 -15160043.745 8  72817761.999 7  21186601.747 0  21186602.148 0
   5606280.692 7  59940174.280 7  22435420.498 0  22435419.330 0
  -4063222.545 7 143051370.394 7  23574996.543 0  23574997.043 0
 88  3  2 10 44 59.0800000  0  3  3 13 12
 -15179291.741 8  72802763.567 7  21182940.522 0  21182940.912 0
   5648665.480 7  59973201.389 7  22443484.774 0  22443485.938 0
  -3957812.333 7 143133508.172 7  23595056.342 0  23595057.637 0
 88  3  2 10 45 29.0800000  0  3  3 13 12
 -15198442.701 8  72787840.758 7  21179295.516 0  21179295.377 0
   5691111.376 8  60006276.100 7  22451562.784 0  22451562.904 0
  -3852318.589 6 143215711.074 6  23615128.075 0  23615132.596 0
 88  3  2 10 45 59.0800000  0  3  3 13 12
 -15217495.171 8  72772994.675 7  21175669.213 0  21175669.366 0
   5733620.678 8  60039400.239 7  22459651.456 0  22459651.318 0
  -3746743.904 7 143297977.075 7  23635217.264 0  23635221.306 0
 88  3  2 10 46 29.0800000  0  3  3 13 12
 -15236449.034 8  72758225.445 7  21172063.232 0  21172063.321 0
   5776193.794 8  60072574.099 7  22467752.562 0  22467753.440 0
  -3641092.095 7 143380303.171 7  23655323.125 0  23655326.359 0
 88  3  2 10 46 59.0800000  0  3  3 13 12
 -15255303.964 7  72743533.290 7  21168474.400 0  21168475.319 0
   5818830.675 7  60105797.636 7  22475866.232 0  22475866.008 0
  -3535366.712 7 143462686.607 7  23675442.814 0  23675447.043 0
 88  3  2 10 47 29.0800000  0  3  3 13 12
 -15274060.657 7  72728917.692 7  21164906.192 0  21164905.172 0
   5861531.640 7  60139071.109 7  22483991.235 0  22483993.057 0
  -3429571.645 8 143545124.361 7  23695575.447 0  23695578.030 0
 88  3  2 10 47 59.0800000  0  3  3 13 12
 -15292718.465 8  72714379.148 7  21161355.159 0  21161354.518 0
   5904296.840 7  60172394.630 7  22492130.274 0  22492130.380 0
  -3323710.517 8 143627613.564 7  23715720.293 0  23715722.539 0
 88  3  2 10 48 29.0800000  0  3  3 13 12
 -15311275.857 8  72699918.842 7  21157823.940 0  21157823.395 0
   5947127.543 7  60205769.196 8  22500280.274 0  22500281.039 0
  -3217785.770 8 143710152.335 7  23735877.180 0  23735879.190 0
 88  3  2 10 48 59.0800000  0  3  3 13 12
 -15329732.609 8  72685536.945 7  21154311.097 0  21154311.301 0
   5990024.225 7  60239195.181 7  22508443.540 0  22508444.548 0
  -3111801.056 8 143792737.817 7  23756045.485 0  23756047.180 0
 88  3  2 10 49 29.0800000  0  3  3 13 12
 -15348089.589 8  72671232.824 6  21150817.858 0  21150817.815 0
   6032986.722 7  60272672.456 7  22516618.224 0  22516617.786 0
  -3005760.613 8 143875366.759 7  23776224.737 0  23776224.981 0
 88  3  2 10 49 59.0800000  0  3  3 13 12
 -15366345.524 8  72657007.399 7  21147343.715 0  21147344.498 0
   6076016.336 7  60306202.014 7  22524806.803 0  22524807.537 0
  -2899667.158 8 143958037.011 8  23796413.405 0  23796414.686 0
 88  3  2 10 50 29.0800000  0  3  3 13 12
 -15384499.691 8  72642861.301 7  21143889.365 0  21143889.958 0
   6119113.672 7  60339784.335 7  22533007.643 0  22533008.851 0
  -2793523.593 8 144040746.286 7  23816611.130 0  23816612.332 0
 88  3  2 10 50 59.0800000  0  3  3 13 12
 -15402552.652 7  72628794.063 6  21140453.757 0  21140454.486 0
   6162278.551 7  60373419.307 6  22541220.690 0  22541222.360 0
  -2687334.042 8 144123491.406 7  23836817.820 0  23836819.924 0
 88  3  2 10 51 29.0800000  0  3  3 13 12
 -15420504.831 7  72614805.345 7  21137038.532 0  21137038.252 0
   6205510.301 7  60407106.371 7  22549448.222 0  22549450.213 0
  -2581103.004 8 144206268.869 7  23857033.518 0  23857035.599 0
 88  3  2 10 51 59.0800000  0  3  3 13 12
 -15438353.510 7  72600897.293 7  21133641.782 0  21133641.904 0
   6248812.261 8  60440848.150 6  22557688.494 0  22557689.458 0
  -2474831.214 7 144289078.098 7  23877255.168 0  23877258.515 0
 88  3  2 10 52 29.0800000  0  3  3 13 12
 -15456098.279 7  72587070.212 7  21130264.562 0  21130265.944 0
   6292184.251 7  60474644.498 7  22565941.692 0  22565942.027 0
  -2368522.894 8 144371915.745 6  23897484.971 0  23897488.889 0
 88  3  2 10 52 59.0800000  0  3  3 13 12
 -15473740.026 7  72573323.401 7  21126907.061 0  21126908.485 0
   6335625.757 7  60508495.006 7  22574208.485 0  22574209.163 0
  -2262182.415 7 144454778.474 7  23917722.486 0  23917724.684 0
 88  3  2 10 53 29.0800000  0  3  3 13 12
 -15491278.425 8  72559657.129 7  21123570.573 0  21123570.822 0
   6379137.746 7  60542400.439 6  22582487.971 0  22582489.371 0
  -2155812.763 6 144537663.906 7  23937963.721 0  23937966.773 0
 88  3  2 10 53 59.0800000  0  3  3 13 12
 -15508712.445 7  72546072.195 7  21120252.797 0  21120253.479 0
   6422721.110 7  60576361.492 7  22590782.895 0  22590783.236 0
  -2049417.052 6 144620569.635 7  23958208.308 0  23958213.822 0
 88  3  2 10 54 29.0800000  0  3  3 13 12
 -15526041.781 8  72532568.817 7  21116955.187 0  21116955.186 0
   6466376.059 8  60610378.305 7  22599089.373 0  22599089.892 0
  -1942998.718 7 144703493.049 7  23978462.425 0  23978464.372 0
 88  3  2 10 54 59.0800000  0  3  3 13 12
 -15543266.902 8  72519146.654 7  21113677.178 0  21113677.791 0
   6510102.299 7  60644450.701 6  22607409.864 0  22607411.017 0
  -1836562.304 7 144786430.504 7  23998715.643 0  23998717.740 0
 88  3  2 10 55 29.0800000  0  3  3 13 12
 -15560385.253 8  72505807.702 7  21110419.301 0  21110420.050 0
   6553902.037 7  60678580.341 6  22615744.539 0  22615745.777 0
  -1730109.023 7 144869381.110 6  24018973.890 0  24018975.034 0
 88  3  2 10 55 59.0800000  0  3  3 13 12
 -15577397.468 8  72492551.425 7  21107182.510 0  21107182.074 0
   6597775.397 8  60712767.359 7  22624093.631 0  22624095.217 0
  -1623643.320 7 144952341.424 7  24039233.256 0  24039234.441 0
 88  3  2 10 56 29.0800000  0  3  3 13 12
 -15594303.205 6  72479378.138 6  21103963.617 0  21103965.333 0
   6641722.340 7  60747011.724 7  22632457.124 0  22632456.968 0
  -1517168.918 7 145035308.471 6  24059494.304 0  24059494.602 0
 88  3  2 10 56 59.0800000  0  3  3 13 12
 -15611100.830 7  72466289.078 7  21100767.808 0  21100768.930 0
   6685744.453 8  60781314.663 7  22640833.712 0  22640834.215 0
  -1410688.193 8 145118280.480 6  24079756.584 0  24079758.302 0
 88  3  2 10 57 29.0800000  0  3  3 13 12
 -15627790.861 7  72453283.868 7  21097592.157 0  21097592.805 0
   6729841.539 7  60815675.997 7  22649224.812 0  22649225.330 0
  -1304204.582 7 145201254.785 6  24100019.653 0  24100018.999 0
 88  3  2 10 57 59.0800000  0  3  3 13 12
 -15644373.970 7  72440361.975 7  21094436.491 0  21094437.056 0
   6774013.746 7  60850095.890 7  22657629.956 0  22657632.278 0
  -1197722.868 8 145284227.594 6  24120281.739 0  24120283.414 0
 88  3  2 10 58 29.0800000  0  3  3 13 12
 -15660848.720 7  72427524.506 7  21091301.821 0  21091302.426 0
   6818261.925 7  60884575.001 7  22666050.266 0  22666052.097 0
  -1091245.687 8 145367196.841 7  24140543.681 0  24140544.492 0
 88  3  2 10 58 59.0800000  0  3  3 13 12
 -15677213.626 7  72414772.649 7  21088188.253 0  21088188.000 0
   6862587.337 7  60919114.280 6  22674485.843 0  22674486.025 0
   -984775.504 8 145450160.650 6  24160803.116 0  24160805.195 0
 88  3  2 10 59 29.0800000  0  3  3 13 12
 -15693467.692 7  72402107.136 8  21085094.120 0  21085095.211 0
   6906991.210 7  60953714.681 7  22682934.944 0  22682935.984 0
   -878315.043 8 145533116.860 7  24181062.006 0  24181064.349 0
 88  3  2 10 59 59.0800000  0  3  3 13 12
 -15709610.901 7  72389528.030 7  21082023.539 0  21082024.029 0
   6951473.942 7  60988376.522 7  22691400.062 0  22691402.184 0
   -771867.900 7 145616062.681 7  24201318.912 0  24201320.181 0
 88  3  2 11  0 29.0800000  0  3  3 13 12
 -15725643.925 7  72377034.772 7  21078971.315 0  21078972.938 0
   6996033.991 7  61023098.614 6  22699879.460 0  22699881.182 0
   -665439.367 7 145698994.029 8  24221572.320 0  24221573.523 0
 88  3  2 11  0 59.0800000  0  3  3 13 12
 -15741566.423 7  72364627.628 7  21075941.486 0  21075941.623 0
   7040672.765 7  61057882.075 7  22708374.229 0  22708375.290 0
   -559032.304 8 145781908.643 7  24241822.128 0  24241822.845 0
 88  3  2 11  1 29.0800000  0  3  3 13 12
 -15757375.487 8  72352308.873 7  21072933.723 0  21072934.655 0
   7085392.905 7  61092728.936 6  22716883.981 0  22716886.136 0
   -452647.914 7 145864805.590 7  24262065.938 0  24262065.996 0
 88  3  2 11  1 59.0800000  0  3  3 13 12
 -15773070.950 7  72340078.628 7  21069947.493 0  21069947.011 0
   7130194.117 7  61127638.958 7  22725410.810 0  22725410.502 0
   -346289.621 7 145947682.190 7  24282305.586 0  24282306.543 0
 88  3  2 11  2 29.0800000  0  3  3 13 12
 -15788654.130 8  72327935.883 7  21066980.898 0  21066981.572 0
   7175076.086 7  61162611.908 7  22733949.859 0  22733951.712 0
   -239962.912 7 146030534.170 7  24302538.337 0  24302539.569 0
 88  3  2 11  2 59.0800000  0  3  3 13 12
 -15804123.244 7  72315882.017 7  21064036.610 0  21064037.599 0
   7220039.555 7  61197648.373 7  22742507.750 0  22742507.178 0
   -133669.623 6 146113360.093 7  24322763.894 0  24322767.361 0
 88  3  2 11  3 29.0800000  0  3  3 13 12
 -15819476.884 8  72303918.147 7  21061116.131 0  21061116.179 0
   7265085.738 7  61232749.278 7  22751078.993 0  22751080.036 0
    -27412.487 6 146196157.841 7  24342982.462 0  24342987.429 0
 88  3  2 11  3 59.0800000  0  3  3 13 12
 -15834714.549 7  72292044.637 7  21058215.428 0  21058216.419 0
   7310216.062 7  61267915.747 7  22759666.303 0  22759667.856 0
     78805.284 6 146278924.896 7  24363195.638 0  24363200.547 0
 88  3  2 11  4 29.0800000  0  3  3 13 12
 -15849836.599 8  72280261.222 7  21055339.480 0  21055339.153 0
   7355430.289 7  61303147.590 7  22768271.557 0  22768272.599 0
    184979.248 6 146361657.822 7  24383401.584 0  24383404.134 0
 88  3  2 11  4 59.0800000  0  3  3 13 12
 -15864842.977 7  72268567.951 7  21052482.849 0  21052483.782 0
   7400728.033 8  61338444.530 7  22776890.915 0  22776891.741 0
    291105.817 7 146444353.841 7  24403596.984 0  24403599.126 0
 88  3  2 11  5 29.0800000  0  3  3 13 12
 -15879732.092 8  72256966.054 7  21049649.985 0  21049649.763 0
   7446110.387 8  61373807.398 7  22785526.400 0  22785528.655 0
    397182.514 7 146527011.045 7  24423781.399 0  24423784.112 0
 88  3  2 11  5 59.0800000  0  3  3 13 12
 -15894501.936 8  72245457.075 7  21046839.060 0  21046838.691 0
   7491580.089 8  61409238.331 7  22794178.815 0  22794179.788 0
    503207.782 8 146609628.161 6  24443957.480 0  24443959.570 0
 88  3  2 11  6 29.0800000  0  3  3 13 12
 -15909152.644 7  72234040.939 7  21044051.471 0  21044051.803 0
   7537136.753 8  61444737.023 7  22802848.499 0  22802848.955 0
    609177.117 8 146692201.676 6  24464123.550 0  24464124.533 0
 88  3  2 11  6 59.0800000  0  3  3 13 12
 -15923684.539 7  72222717.372 7  21041286.390 0  21041284.978 0
   7582779.807 7  61480303.031 7  22811533.921 0  22811535.383 0
    715086.427 8 146774728.454 6  24484277.795 0  24484278.394 0
 88  3  2 11  7 29.0800000  0  3  3 13 12
 -15938096.186 8  72211487.505 7  21038543.789 0  21038544.798 0
   7628510.806 7  61515937.560 7  22820236.811 0  22820237.960 0
    820933.245 8 146857206.541 6  24504419.253 0  24504421.676 0
 88  3  2 11  7 59.0800000  0  2  3 13
 -15952386.652 8  72200352.092 7  21035824.371 0  21035825.536 0
   7674330.245 8  61551641.001 7  22828955.888 0  22828956.665 0
 88  3  2 11  8 29.0800000  0  2  3 13
 -15966555.684 7  72189311.277 7  21033128.188 0  21033128.253 0
   7720238.733 7  61587413.839 7  22837692.052 0  22837693.600 0
 88  3  2 11  8 59.0800000  0  2  3 13
 -15980601.134 7  72178366.779 6  21030455.802 0  21030456.096 0
   7766238.481 8  61623257.768 7  22846445.844 0  22846446.701 0
 88  3  2 11  9 29.0800000  0  2  3 13
 -15994523.689 7  72167518.036 6  21027806.199 0  21027804.142 0
   7812328.014 8  61659171.669 7  22855215.480 0  22855216.862 0
 88  3  2 11  9 59.0800000  0  2  3 13
 -16008323.264 7  72156765.105 7  21025179.902 0  21025179.320 0
   7858507.932 7  61695156.002 7  22864003.051 0  22864004.967 0
 88  3  2 11 10 29.0800000  0  2  3 13
 -16021997.642 7  72146109.761 7  21022577.789 0  21022577.222 0
   7904780.483 8  61731212.525 7  22872808.662 0  22872810.623 0
 88  3  2 11 10 59.0800000  0  2  3 13
 -16035546.390 8  72135552.279 6  21019998.114 0  21019998.906 0
   7951145.715 8  61767341.263 7  22881632.274 0  22881633.294 0
 88  3  2 11 11 29.0800000  0  2  3 13
 -16048969.361 7  72125092.833 7  21017445.481 0  21017444.484 0
   7997603.988 8  61803542.498 7  22890471.986 0  22890474.012 0
 88  3  2 11 11 59.0800000  0  2  3 13
 -16062264.914 8  72114732.665 6  21014914.242 0  21014915.963 0
   8044156.567 7  61839817.228 7  22899330.285 0  22899332.330 0
 88  3  2 11 12 29.0800000  0  2  3 13
 -16075432.103 8  72104472.518 7  21012409.762 0  21012409.823 0
   8090804.000 7  61876165.857 8  22908206.535 0  22908209.327 0
 88  3  2 11 12 59.0800000  0  2  3 13
 -16088471.698 7  72094311.808 7  21009929.062 0  21009927.750 0
   8137546.585 7  61912588.633 7  22917103.656 0  22917103.954 0
 88  3  2 11 13 29.0800000  0  2  3 13
 -16101381.340 8  72084252.338 7  21007471.642 0  21007472.148 0
   8184385.715 7  61949086.616 7  22926015.383 0  22926017.681 0
 88  3  2 11 13 59.0800000  0  2  3 13
 -16114160.078 7  72074294.880 6  21005040.167 0  21005038.698 0
   8231321.898 7  61985660.245 7  22934947.982 0  22934949.819 0
 88  3  2 11 14 29.0800000  0  2  3 13
 -16126807.122 8  72064440.032 7  21002632.660 0  21002633.664 0
   8278355.938 7  62022310.132 8  22943898.920 0  22943899.641 0
 88  3  2 11 14 59.0800000  0  2  3 13
 -16139322.104 8  72054688.112 6  21000251.796 0  21000251.272 0
   8325487.904 7  62059036.308 8  22952866.031 0  22952868.578 0
 88  3  2 11 15 29.0800000  0  2  3 13
 -16151704.669 8  72045039.357 6  20997894.870 0  20997896.606 0
   8372718.008 7  62095838.967 7  22961856.058 0  22961856.067 0
 88  3  2 11 15 59.0800000  0  2  3 13
 -16163953.638 7  72035494.702 7  20995563.172 0  20995564.408 0
   8420048.108 7  62132719.547 8  22970861.806 0  22970862.767 0
 88  3  2 11 16 29.0800000  0  2  3 13
 -16176067.003 7  72026055.720 7  20993259.092 0  20993259.910 0
   8467480.268 7  62169679.642 7  22979887.932 0  22979889.022 0
 88  3  2 11 16 59.0800000  0  2  3 13
 -16188045.502 7  72016721.838 7  20990980.194 0  20990980.285 0
   8515012.184 8  62206717.483 7  22988933.507 0  22988933.715 0
 88  3  2 11 17 29.0800000  0  2  3 13
 -16199887.918 8  72007493.991 7  20988726.527 0  20988726.959 0
   8562645.993 7  62243834.696 7  22997996.854 0  22997999.341 0
 88  3  2 11 17 59.0800000  0  2  3 13
 -16211591.835 7  71998374.053 6  20986499.743 0  20986499.618 0
   8610383.344 7  62281032.614 7  23007079.397 0  23007082.292 0
 88  3  2 11 18 29.0800000  0  2  3 13
 -16223158.146 7  71989361.344 7  20984299.246 0  20984296.946 0
   8658222.797 7  62318310.086 7  23016182.904 0  23016185.445 0
 88  3  2 11 18 59.0800000  0  2  3 13
 -16234585.286 7  71980457.061 6  20982122.831 0  20982123.609 0
   8706165.875 7  62355668.300 6  23025308.029 0  23025309.505 0
 88  3  2 11 19 29.0800000  0  2  3 13
 -16245871.742 8  71971662.422 7  20979977.053 0  20979975.367 0
   8754214.195 8  62393108.542 7  23034451.441 0  23034452.915 0
 88  3  2 11 19 59.0800000  0  2  3 13
 -16257017.147 8  71962977.692 7  20977854.969 0  20977854.829 0
   8802368.017 7  62430630.996 7  23043614.600 0  23043615.667 0
 88  3  2 11 20 29.0800000  0  2  3 13
 -16268021.092 7  71954403.187 7  20975760.176 0  20975761.880 0
   8850627.952 7  62468236.125 6  23052798.726 0  23052799.266 0
 88  3  2 11 20 59.0800000  0  2  3 13
 -16278882.313 7  71945939.902 7  20973693.025 0  20973694.146 0
   8898994.460 7  62505924.316 7  23062002.037 0  23062003.936 0
 88  3  2 11 21 29.0800000  0  2  3 13
 -16289599.151 7  71937589.116 7  20971654.465 0  20971655.285 0
   8947468.981 8  62543696.652 7  23071226.057 0  23071227.514 0
 88  3  2 11 21 59.0800000  0  2  3 13
 -16300170.593 7  71929351.632 7  20969642.706 0  20969642.754 0
   8996052.412 7  62581553.862 7  23080470.941 0  23080472.123 0
 88  3  2 11 22 29.0800000  0  2  3 13
 -16310595.417 8  71921228.397 7  20967659.781 0  20967659.156 0
   9044745.840 8  62619496.773 7  23089738.177 0  23089738.793 0
 88  3  2 11 22 59.0800000  0  2  3 13
 -16320873.723 7  71913219.325 7  20965703.300 0  20965704.918 0
   9093548.682 8  62657524.959 7  23099024.851 0  23099026.109 0
 88  3  2 11 23 29.0800000  0  2  3 13
 -16331005.429 7  71905324.468 7  20963775.894 0  20963775.380 0
   9142460.441 7  62695638.006 7  23108332.719 0  23108333.081 0
 88  3  2 11 23 59.0800000  0  2  3 13
 -16340987.761 7  71897546.034 7  20961877.089 0  20961875.693 0
   9191484.074 8  62733838.214 7  23117660.734 0  23117661.411 0
 88  3  2 11 24 29.0800000  0  2  3 13
 -16350819.373 8  71889885.041 7  20960005.132 0  20960005.422 0
   9240620.187 7  62772126.075 6  23127012.738 0  23127011.348 0
 88  3  2 11 24 59.0800000  0  2  3 13
 -16360499.313 7  71882342.225 6  20958162.824 0  20958163.543 0
   9289869.881 8  62810502.438 7  23136383.304 0  23136384.106 0
 88  3  2 11 25 29.0800000  0  2  3 13
 -16370027.840 7  71874917.394 7  20956349.874 0  20956350.339 0
   9339232.577 8  62848966.845 7  23145776.859 0  23145778.389 0
 88  3  2 11 25 59.0800000  0  2  3 13
 -16379404.325 7  71867611.041 7  20954565.592 0  20954564.894 0
   9388708.367 8  62887519.406 7  23155191.973 0  23155192.921 0
 88  3  2 11 26 29.0800000  0  2  3 13
 -16388626.708 8  71860424.779 7  20952810.023 0  20952809.528 0
   9438299.066 8  62926161.497 7  23164627.818 0  23164628.902 0
 88  3  2 11 26 59.0800000  0  2  3 13
 -16397693.721 8  71853359.573 8  20951084.922 0  20951086.472 0
   9488005.680 8  62964893.914 7  23174088.267 0  23174087.805 0
 88  3  2 11 27 29.0800000  0  2  3 13
 -16406603.820 8  71846416.647 7  20949390.196 0  20949389.802 0
   9537829.294 8  63003717.496 7  23183569.012 0  23183569.072 0
 88  3  2 11 27 59.0800000  0  2  3 13
 -16415356.540 8  71839596.343 6  20947725.093 0  20947723.640 0
   9587770.044 8  63042632.366 7  23193072.462 0  23193073.016 0
 88  3  2 11 28 29.0800000  0  2  3 13
 -16423951.670 8  71832898.842 7  20946089.880 0  20946089.241 0
   9637828.201 8  63081638.704 7  23202597.797 0  23202599.361 0
 88  3  2 11 28 59.0800000  0  2  3 13
 -16432388.303 7  71826324.837 7  20944483.402 0  20944483.405 0
   9688004.552 7  63120737.145 7  23212146.276 0  23212145.407 0
 88  3  2 11 29 29.0800000  0  2  3 13
 -16440664.203 7  71819876.077 7  20942907.817 0  20942909.394 0
   9738300.346 7  63159928.650 6  23221717.093 0  23221718.551 0
 88  3  2 11 29 59.0800000  0  2  3 13
 -16448778.136 8  71813553.518 6  20941363.495 0  20941364.773 0
   9788716.995 7  63199214.338 7  23231310.816 0  23231311.348 0
 88  3  2 11 30 29.0800000  0  2  3 13
 -16456728.825 8  71807358.192 7  20939851.799 0  20939851.432 0
   9839254.969 7  63238594.547 7  23240927.392 0  23240928.302 0
 88  3  2 11 30 59.0800000  0  2  3 13
 -16464516.148 7  71801290.160 7  20938368.880 0  20938369.226 0
   9889914.176 7  63278069.229 7  23250568.125 0  23250569.553 0
 88  3  2 11 31 29.0800000  0  2  3 13
 -16472139.332 7  71795350.021 6  20936917.255 0  20936918.505 0
   9940694.792 7  63317638.514 7  23260230.819 0  23260232.518 0
 88  3  2 11 31 59.0800000  0  2  3 13
 -16479596.214 7  71789539.465 6  20935499.266 0  20935498.517 0
   9991598.635 7  63357303.831 7  23269917.848 0  23269919.326 0
 88  3  2 11 32 29.0800000  0  2  3 13
 -16486885.684 7  71783859.360 7  20934112.293 0  20934112.355 0
  10042627.127 8  63397066.268 6  23279628.201 0  23279629.442 0
 88  3  2 11 32 59.0800000  0  2  3 13
 -16494006.778 7  71778310.456 7  20932757.512 0  20932758.101 0
  10093780.267 7  63436925.835 7  23289362.726 0  23289363.229 0
 88  3  2 11 33 29.0800000  0  2  3 13
 -16500958.441 7  71772893.577 7  20931434.441 0  20931434.186 0
  10145058.461 7  63476882.870 7  23299120.794 0  23299122.421 0
 88  3  2 11 33 59.0800000  0  2  3 13
 -16507739.858 7  71767609.362 7  20930144.180 0  20930143.641 0
  10196462.204 7  63516937.726 7  23308901.909 0  23308904.050 0
 88  3  2 11 34 29.0800000  0  2  3 13
 -16514349.361 7  71762459.108 7  20928886.416 0  20928886.146 0
  10247992.341 7  63557091.069 7  23318708.810 0  23318709.342 0
 88  3  2 11 34 59.0800000  0  2  3 13
 -16520786.683 8  71757443.007 7  20927661.747 0  20927661.136 0
  10299649.677 8  63597343.511 8  23328538.187 0  23328539.500 0
 88  3  2 11 35 29.0800000  0  2  3 13
 -16527049.361 7  71752562.991 6  20926470.150 0  20926469.550 0
  10351435.456 7  63637696.035 7  23338393.070 0  23338394.248 0
 88  3  2 11 35 59.0800000  0  2  3 13
 -16533136.360 7  71747819.862 7  20925310.389 0  20925311.137 0
  10403350.459 8  63678149.253 7  23348271.795 0  23348273.265 0
 88  3  2 11 36 29.0800000  0  2  3 13
 -16539047.066 7  71743214.131 7  20924186.370 0  20924185.406 0
  10455394.628 8  63718703.128 7  23358175.320 0  23358176.923 0
 88  3  2 11 36 59.0800000  0  2  3 13
 -16544780.819 8  71738746.270 7  20923094.608 0  20923094.555 0
  10507568.565 7  63759358.127 7  23368103.393 0  23368104.869 0
 88  3  2 11 37 29.0800000  0  2  3 13
 -16550335.722 8  71734417.767 7  20922037.616 0  20922038.823 0
  10559873.390 7  63800115.109 8  23378056.857 0  23378059.283 0
 88  3  2 11 37 59.0800000  0  2  3 13
 -16555710.059 7  71730229.967 7  20921014.967 0  20921015.830 0
  10612310.537 7  63840975.185 7  23388036.118 0  23388036.940 0
 88  3  2 11 38 29.0800000  0  2  3 13
 -16560903.651 7  71726182.998 7  20920027.458 0  20920028.380 0
  10664879.897 8  63881938.301 7  23398039.961 0  23398041.560 0
 88  3  2 11 38 59.0800000  0  2  3 13
 -16565915.166 7  71722277.921 7  20919073.006 0  20919073.155 0
  10717582.425 7  63923005.189 8  23408068.703 0  23408070.459 0
 88  3  2 11 39 29.0800000  0  2  3 13
 -16570742.188 7  71718516.601 7  20918152.797 0  20918156.133 0
  10770419.618 8  63964176.998 8  23418123.304 0  23418124.686 0
 88  3  2 11 39 59.0800000  0  2  3 13
 -16575384.462 7  71714899.258 7  20917269.830 0  20917272.796 0
  10823390.563 7  64005453.054 8  23428203.721 0  23428204.977 0
 88  3  2 11 40 29.0800000  0  2  3 13
 -16579840.844 8  71711426.763 7  20916421.895 0  20916424.147 0
  10876496.836 8  64046834.530 7  23438309.379 0  23438310.361 0
 88  3  2 11 40 59.0800000  0  2  3 13
 -16584110.357 8  71708099.882 7  20915610.680 0  20915612.384 0
  10929739.076 7  64088321.959 7  23448440.431 0  23448442.152 0
 88  3  2 11 41 29.0800000  0  2  3 13
 -16588190.453 8  71704920.578 7  20914833.474 0  20914835.282 0
  10983118.393 8  64129916.216 7  23458597.956 0  23458599.671 0
 88  3  2 11 41 59.0800000  0  2  3 13
 -16592081.098 8  71701888.922 7  20914094.976 0  20914094.293 0
  11036634.667 7  64171617.186 7  23468782.045 0  23468783.053 0
 88  3  2 11 42 29.0800000  0  2  3 13
 -16595781.131 8  71699005.767 7  20913390.546 0  20913391.167 0
  11090288.391 7  64213425.263 7  23478992.829 0  23478993.647 0
 88  3  2 11 42 59.0800000  0  2  3 13
 -16599288.745 7  71696272.561 7  20912722.566 0  20912722.755 0
  11144081.237 8  64255341.743 7  23489228.376 0  23489229.580 0
 88  3  2 11 43 29.0800000  0  2  3 13
 -16602602.005 7  71693690.791 7  20912092.185 0  20912092.318 0
  11198014.110 7  64297367.325 7  23499491.674 0  23499492.922 0
 88  3  2 11 43 59.0800000  0  2  3 13
 -16605721.214 7  71691260.248 7  20911498.669 0  20911498.429 0
  11252086.672 7  64339501.766 7  23509781.233 0  23509782.580 0
 88  3  2 11 44 29.0800000  0  2  3 13
 -16608644.657 7  71688982.245 6  20910942.026 0  20910943.435 0
  11306299.983 8  64381745.882 7  23520097.627 0  23520100.096 0
 88  3  2 11 44 59.0800000  0  2  3 13
 -16611371.149 7  71686857.717 8  20910423.645 0  20910424.037 0
  11360654.162 8  64424099.784 7  23530441.638 0  23530442.355 0
 88  3  2 11 45 29.0800000  0  2  3 13
 -16613899.352 7  71684887.696 7  20909942.182 0  20909942.560 0
  11415150.359 8  64466564.327 7  23540811.844 0  23540812.791 0
 88  3  2 11 45 59.0800000  0  2  3 13
 -16616227.462 7  71683073.587 7  20909498.983 0  20909499.976 0
  11469789.673 8  64509140.402 8  23551209.582 0  23551210.508 0
 88  3  2 11 46 29.0800000  0  2  3 13
 -16618353.635 7  71681416.812 7  20909094.908 0  20909095.482 0
  11524572.978 7  64551828.669 7  23561634.344 0  23561635.225 0
 88  3  2 11 46 59.0800000  0  2  3 13
 -16620277.326 7  71679917.837 7  20908727.589 0  20908728.107 0
  11579499.883 8  64594628.840 8  23572086.199 0  23572087.889 0
 88  3  2 11 47 29.0800000  0  2  3 13
 -16621997.252 7  71678577.628 7  20908401.052 0  20908401.541 0
  11634572.073 8  64637542.218 7  23582566.232 0  23582567.328 0
